[[{"header":{"parameterUnit":"m.s-1","parameterCategory":1,"la1":30.6,"la2":29.2853,"lo1":-89.7004,"lo2":-87.6739,"dy":0.0162,"dx":0.0183,"nx":112,"ny":82,"refTime":"2023-09-04T00:00:00:Z","depth":0,"parameterNumber":2,"parameterNumberName":"U-component_of_WINDS"},"data":[0.0,0.0,0.0,0.0,0.0,0.0,0.0,0.0,0.0,0.0,0.0,0.0,0.0,0.0,0.0,0.0,0.0,0.0,0.0,0.0,0.0,0.0,0.0,0.0,0.0,0.0,0.0,0.0,0.0,0.0,0.0,0.0,0.0,0.0,0.0,0.0,0.0,0.0,0.0,0.0,0.0,0.0,0.0,0.0,0.0,0.0,0.0,0.0,0.0,0.0,0.0,0.0,0.0,0.0,0.0,0.0,0.0,0.0,0.0,0.0,0.0,0.0,0.0,0.0,0.0,0.0,0.0,0.0,0.0,0.0,0.0,0.0,0.0,0.0,0.0,0.0,0.0,0.0,0.0,0.0,0.0,0.0,0.0,0.0,0.0,0.0,0.0,0.0,0.0,0.0,0.0,-4.2886,-4.6726,-4.9039,-4.8906,-4.7305,-4.4844,-4.1426,0.0,0.0,0.0,0.0,0.0,0.0,0.0,0.0,0.0,0.0,0.0,0.0,0.0,0.0,0.0,0.0,0.0,0.0,0.0,0.0,0.0,0.0,0.0,0.0,0.0,0.0,0.0,0.0,0.0,0.0,0.0,0.0,0.0,0.0,0.0,0.0,0.0,0.0,0.0,0.0,0.0,0.0,0.0,0.0,0.0,0.0,0.0,0.0,0.0,0.0,0.0,0.0,0.0,0.0,0.0,0.0,0.0,0.0,0.0,0.0,0.0,0.0,0.0,0.0,0.0,0.0,0.0,0.0,0.0,0.0,0.0,0.0,0.0,0.0,0.0,0.0,0.0,0.0,0.0,0.0,0.0,0.0,0.0,0.0,0.0,0.0,0.0,0.0,0.0,0.0,0.0,0.0,0.0,0.0,0.0,0.0,0.0,0.0,0.0,0.0,0.0,0.0,0.0,0.0,-4.1454,-4.6291,-4.8661,-4.9643,-4.8963,-4.7304,-4.4844,-4.1426,0.0,0.0,0.0,0.0,0.0,0.0,0.0,0.0,0.0,0.0,0.0,0.0,0.0,0.0,0.0,0.0,0.0,0.0,0.0,0.0,0.0,0.0,0.0,0.0,0.0,0.0,0.0,0.0,0.0,0.0,0.0,0.0,0.0,0.0,0.0,0.0,0.0,0.0,0.0,0.0,0.0,0.0,0.0,0.0,0.0,0.0,0.0,0.0,0.0,0.0,0.0,0.0,0.0,0.0,0.0,0.0,0.0,0.0,0.0,0.0,0.0,0.0,0.0,0.0,0.0,0.0,0.0,0.0,0.0,0.0,0.0,0.0,0.0,0.0,0.0,0.0,0.0,0.0,0.0,0.0,0.0,0.0,0.0,0.0,0.0,0.0,0.0,0.0,0.0,0.0,0.0,0.0,0.0,0.0,0.0,0.0,0.0,0.0,0.0,0.0,0.0,0.0,0.0,-4.035,-4.3562,-4.7853,-4.8561,-4.8781,-4.8885,-4.6874,-4.4336,-4.1387,-3.793,0.0,0.0,0.0,0.0,0.0,0.0,0.0,0.0,0.0,0.0,0.0,0.0,0.0,0.0,0.0,0.0,0.0,0.0,0.0,0.0,0.0,0.0,0.0,0.0,0.0,0.0,0.0,0.0,0.0,0.0,0.0,0.0,0.0,0.0,0.0,0.0,0.0,0.0,0.0,0.0,0.0,0.0,0.0,0.0,0.0,0.0,0.0,0.0,0.0,0.0,0.0,0.0,0.0,0.0,0.0,0.0,0.0,0.0,0.0,0.0,0.0,0.0,0.0,0.0,0.0,0.0,0.0,0.0,0.0,0.0,0.0,0.0,0.0,0.0,0.0,0.0,0.0,0.0,0.0,0.0,0.0,0.0,0.0,0.0,0.0,0.0,0.0,0.0,0.0,0.0,0.0,0.0,0.0,0.0,0.0,0.0,0.0,0.0,0.0,0.0,0.0,0.0,-4.2785,-4.5156,-4.8237,-4.8164,-4.7995,-4.8257,-4.6071,-4.3612,-4.1054,-3.7617,0.0,0.0,0.0,0.0,0.0,0.0,0.0,0.0,0.0,0.0,0.0,0.0,0.0,0.0,0.0,0.0,0.0,0.0,0.0,0.0,0.0,0.0,0.0,0.0,0.0,0.0,0.0,0.0,0.0,0.0,0.0,0.0,0.0,0.0,0.0,0.0,0.0,0.0,0.0,0.0,0.0,0.0,0.0,0.0,0.0,0.0,0.0,0.0,0.0,0.0,0.0,0.0,0.0,0.0,0.0,0.0,0.0,0.0,0.0,0.0,0.0,0.0,0.0,0.0,0.0,0.0,0.0,0.0,0.0,0.0,0.0,0.0,0.0,0.0,0.0,0.0,0.0,0.0,0.0,0.0,0.0,0.0,0.0,0.0,0.0,0.0,0.0,0.0,0.0,0.0,0.0,0.0,0.0,0.0,0.0,0.0,0.0,0.0,0.0,0.0,0.0,0.0,-4.3231,-4.5531,-4.7396,-4.8267,-4.8101,-4.6606,-4.4835,-4.271,-4.0151,-3.6716,0.0,0.0,0.0,0.0,0.0,0.0,0.0,0.0,0.0,0.0,0.0,0.0,0.0,0.0,0.0,0.0,0.0,0.0,0.0,0.0,0.0,0.0,0.0,0.0,0.0,0.0,0.0,0.0,0.0,0.0,0.0,0.0,0.0,0.0,0.0,0.0,0.0,0.0,0.0,0.0,0.0,0.0,0.0,0.0,0.0,0.0,0.0,0.0,0.0,0.0,0.0,0.0,0.0,0.0,0.0,0.0,0.0,0.0,0.0,0.0,0.0,0.0,0.0,0.0,0.0,0.0,0.0,0.0,0.0,0.0,0.0,0.0,0.0,0.0,0.0,0.0,0.0,0.0,0.0,0.0,0.0,0.0,0.0,0.0,0.0,0.0,0.0,0.0,0.0,0.0,0.0,0.0,0.0,0.0,0.0,0.0,0.0,0.0,0.0,0.0,0.0,0.0,-4.2468,-4.4754,0.0,-4.6989,-4.6921,-4.6296,-4.4174,-4.1798,-3.9247,0.0,0.0,0.0,0.0,0.0,0.0,0.0,0.0,0.0,0.0,0.0,0.0,0.0,0.0,0.0,0.0,0.0,0.0,0.0,0.0,0.0,0.0,0.0,0.0,0.0,0.0,0.0,0.0,0.0,0.0,0.0,0.0,0.0,0.0,0.0,0.0,0.0,0.0,0.0,0.0,0.0,0.0,0.0,0.0,0.0,0.0,0.0,0.0,0.0,0.0,0.0,0.0,0.0,0.0,0.0,0.0,0.0,0.0,0.0,0.0,0.0,0.0,0.0,0.0,0.0,0.0,0.0,0.0,0.0,0.0,0.0,0.0,0.0,0.0,0.0,0.0,0.0,0.0,0.0,0.0,0.0,0.0,0.0,0.0,0.0,0.0,0.0,0.0,0.0,0.0,0.0,0.0,0.0,0.0,0.0,0.0,0.0,0.0,0.0,0.0,0.0,0.0,-3.9282,-4.168,-4.3794,0.0,-4.5764,-4.5641,-4.5362,-4.3005,-4.0576,-3.8309,0.0,0.0,0.0,0.0,0.0,0.0,0.0,0.0,0.0,0.0,0.0,0.0,0.0,0.0,0.0,0.0,0.0,0.0,0.0,0.0,0.0,0.0,0.0,0.0,0.0,0.0,0.0,0.0,0.0,0.0,0.0,0.0,0.0,0.0,0.0,0.0,0.0,0.0,0.0,0.0,0.0,0.0,0.0,0.0,0.0,0.0,0.0,0.0,0.0,0.0,0.0,0.0,0.0,0.0,0.0,0.0,0.0,0.0,0.0,0.0,0.0,0.0,0.0,0.0,0.0,0.0,0.0,0.0,0.0,0.0,0.0,0.0,0.0,0.0,0.0,0.0,0.0,0.0,0.0,0.0,0.0,0.0,0.0,0.0,0.0,0.0,0.0,0.0,0.0,0.0,0.0,0.0,0.0,0.0,0.0,0.0,0.0,0.0,0.0,0.0,0.0,0.0,-3.9111,-4.1038,-4.2782,-4.4574,-4.4773,-4.4422,-4.3533,-4.1142,-3.8988,0.0,0.0,0.0,0.0,0.0,0.0,0.0,0.0,0.0,0.0,0.0,0.0,0.0,0.0,0.0,0.0,0.0,0.0,0.0,0.0,0.0,0.0,0.0,0.0,0.0,0.0,0.0,0.0,0.0,0.0,0.0,0.0,0.0,0.0,0.0,0.0,0.0,0.0,0.0,0.0,0.0,0.0,0.0,0.0,0.0,0.0,0.0,0.0,0.0,0.0,0.0,0.0,0.0,0.0,0.0,0.0,0.0,0.0,0.0,0.0,0.0,0.0,0.0,0.0,0.0,0.0,0.0,0.0,0.0,0.0,0.0,0.0,0.0,0.0,0.0,0.0,0.0,0.0,0.0,0.0,0.0,0.0,0.0,0.0,0.0,0.0,0.0,0.0,0.0,0.0,0.0,0.0,0.0,0.0,0.0,0.0,0.0,0.0,0.0,0.0,0.0,0.0,0.0,-3.7324,-3.9661,-4.1561,-4.2693,-4.3383,-4.3167,-4.1709,-4.0383,-3.838,-3.5488,0.0,0.0,0.0,0.0,0.0,0.0,0.0,0.0,0.0,0.0,0.0,0.0,0.0,0.0,0.0,0.0,0.0,0.0,0.0,0.0,0.0,0.0,0.0,0.0,0.0,0.0,0.0,0.0,0.0,0.0,0.0,0.0,0.0,0.0,0.0,0.0,0.0,0.0,0.0,0.0,0.0,0.0,0.0,0.0,0.0,0.0,0.0,0.0,0.0,0.0,0.0,0.0,0.0,0.0,0.0,0.0,0.0,0.0,0.0,0.0,0.0,0.0,0.0,0.0,0.0,0.0,0.0,0.0,0.0,0.0,0.0,0.0,0.0,0.0,0.0,0.0,0.0,0.0,0.0,0.0,0.0,0.0,0.0,0.0,0.0,0.0,0.0,0.0,0.0,0.0,0.0,0.0,0.0,0.0,0.0,0.0,0.0,0.0,0.0,0.0,0.0,0.0,-3.6022,-3.8497,-4.044,-4.1299,-4.1873,-4.1789,-4.0803,-3.935,-3.732,-3.4584,0.0,0.0,0.0,0.0,0.0,0.0,0.0,0.0,0.0,0.0,0.0,0.0,0.0,0.0,0.0,0.0,0.0,0.0,0.0,0.0,0.0,0.0,0.0,0.0,0.0,0.0,0.0,0.0,0.0,0.0,0.0,0.0,0.0,0.0,0.0,0.0,0.0,0.0,0.0,0.0,0.0,0.0,0.0,0.0,0.0,0.0,0.0,0.0,0.0,0.0,0.0,0.0,0.0,0.0,0.0,0.0,0.0,0.0,0.0,0.0,0.0,0.0,0.0,0.0,0.0,0.0,0.0,0.0,0.0,0.0,0.0,0.0,0.0,0.0,0.0,0.0,0.0,0.0,0.0,0.0,0.0,0.0,0.0,0.0,0.0,0.0,0.0,0.0,0.0,0.0,0.0,0.0,0.0,0.0,0.0,0.0,0.0,0.0,0.0,0.0,0.0,0.0,-3.506,-3.7429,-3.9288,-4.0173,-4.0258,-4.0254,-4.0234,-3.8122,-3.6061,-3.4386,0.0,0.0,0.0,0.0,0.0,0.0,0.0,0.0,0.0,0.0,0.0,0.0,0.0,0.0,0.0,0.0,0.0,0.0,0.0,0.0,0.0,0.0,0.0,0.0,0.0,0.0,0.0,0.0,0.0,0.0,0.0,0.0,0.0,0.0,0.0,0.0,0.0,0.0,0.0,0.0,0.0,0.0,0.0,0.0,0.0,0.0,0.0,0.0,0.0,0.0,0.0,0.0,0.0,0.0,0.0,0.0,0.0,0.0,0.0,0.0,-3.9337,0.0,0.0,0.0,0.0,0.0,0.0,0.0,0.0,0.0,0.0,0.0,0.0,0.0,0.0,0.0,0.0,0.0,0.0,0.0,0.0,0.0,0.0,0.0,0.0,0.0,0.0,0.0,0.0,0.0,0.0,0.0,0.0,0.0,0.0,0.0,0.0,0.0,0.0,0.0,0.0,0.0,-3.4167,-3.5983,-3.7493,-3.8358,-3.8442,-3.8174,-3.751,-3.7002,-3.5979,-3.4256,-3.3391,0.0,0.0,0.0,0.0,0.0,0.0,0.0,0.0,0.0,0.0,0.0,0.0,0.0,0.0,0.0,0.0,0.0,0.0,0.0,0.0,0.0,0.0,0.0,0.0,0.0,0.0,0.0,0.0,0.0,0.0,0.0,0.0,0.0,0.0,0.0,0.0,0.0,0.0,0.0,0.0,0.0,0.0,0.0,0.0,0.0,0.0,0.0,0.0,0.0,0.0,0.0,0.0,0.0,0.0,0.0,0.0,0.0,0.0,0.0,0.0,-3.9816,0.0,0.0,0.0,0.0,0.0,0.0,0.0,0.0,0.0,0.0,0.0,0.0,0.0,0.0,0.0,0.0,0.0,0.0,0.0,0.0,0.0,0.0,0.0,0.0,0.0,0.0,0.0,0.0,0.0,0.0,0.0,0.0,0.0,0.0,0.0,0.0,0.0,0.0,0.0,0.0,-3.3276,-3.5166,-3.6634,-3.7124,-3.7181,-3.7018,-3.6594,-3.6197,-3.5419,-3.4083,-3.325,0.0,0.0,0.0,0.0,0.0,0.0,0.0,0.0,0.0,0.0,0.0,0.0,0.0,0.0,0.0,0.0,0.0,0.0,0.0,0.0,0.0,0.0,0.0,0.0,0.0,0.0,0.0,0.0,0.0,0.0,0.0,0.0,0.0,0.0,0.0,0.0,0.0,0.0,0.0,0.0,0.0,0.0,0.0,0.0,0.0,0.0,0.0,0.0,0.0,0.0,0.0,0.0,0.0,-4.4946,-4.5608,-4.5725,-4.5104,-4.4915,-4.4891,-4.2665,-4.1126,-4.0131,0.0,0.0,0.0,0.0,0.0,0.0,0.0,0.0,0.0,0.0,0.0,0.0,0.0,0.0,0.0,0.0,0.0,0.0,0.0,0.0,0.0,0.0,0.0,0.0,0.0,-3.3346,-3.3538,0.0,0.0,0.0,0.0,0.0,0.0,0.0,0.0,0.0,0.0,0.0,0.0,-3.2545,-3.4504,-3.593,-3.6137,-3.6174,-3.6211,-3.6245,-3.5605,-3.4871,-3.4157,-3.3336,-3.2497,0.0,0.0,0.0,0.0,0.0,0.0,0.0,0.0,0.0,0.0,0.0,0.0,0.0,0.0,0.0,0.0,0.0,0.0,0.0,0.0,0.0,0.0,0.0,0.0,0.0,0.0,0.0,0.0,0.0,0.0,0.0,0.0,-3.6424,-3.6627,0.0,0.0,0.0,0.0,0.0,0.0,0.0,0.0,0.0,0.0,0.0,0.0,0.0,-4.327,-4.3372,-4.4756,-4.5467,-4.5467,-4.6174,-4.661,-4.6691,-4.6606,-4.6283,-4.5785,-4.493,0.0,-4.1222,-4.0489,0.0,0.0,0.0,0.0,0.0,0.0,0.0,0.0,0.0,0.0,0.0,0.0,0.0,0.0,0.0,0.0,0.0,0.0,0.0,0.0,0.0,0.0,-3.3885,-3.4711,-3.5078,-3.4997,0.0,-3.3218,-3.2323,-3.1751,-3.1648,0.0,0.0,0.0,0.0,0.0,0.0,0.0,-3.2348,-3.3425,-3.4402,-3.5115,-3.5246,-3.5273,-3.5281,-3.5186,-3.5053,-3.4958,-3.4077,-3.3204,-3.2387,-3.1528,0.0,0.0,0.0,0.0,0.0,0.0,0.0,0.0,0.0,0.0,0.0,0.0,0.0,0.0,0.0,0.0,0.0,0.0,0.0,0.0,0.0,0.0,0.0,0.0,0.0,0.0,0.0,0.0,0.0,-3.5608,-3.6697,-3.7093,-3.7143,-3.7143,0.0,0.0,0.0,0.0,0.0,0.0,0.0,0.0,0.0,-4.3518,-4.4193,-4.4935,-4.5761,-4.6797,-4.7524,-4.7945,-4.8186,-4.8368,-4.8397,-4.7555,-4.7089,-4.6849,-4.5738,-4.4477,-4.3039,-4.1324,-4.0299,-3.9656,0.0,0.0,0.0,0.0,-3.7918,-3.8135,-3.8135,-3.7563,0.0,0.0,0.0,0.0,0.0,0.0,0.0,0.0,0.0,0.0,0.0,0.0,0.0,-3.4977,-3.5135,-3.4972,-3.427,-3.3728,-3.3248,0.0,-3.2483,-3.2021,-3.1322,0.0,0.0,0.0,0.0,0.0,-3.145,-3.2298,-3.3006,-3.344,-3.3904,-3.4225,-3.4309,-3.4726,-3.4765,-3.4226,-3.3383,-3.2514,-3.1646,-3.0808,-3.0195,0.0,0.0,0.0,0.0,0.0,0.0,0.0,0.0,0.0,0.0,0.0,0.0,0.0,0.0,0.0,0.0,0.0,0.0,0.0,0.0,0.0,0.0,0.0,0.0,0.0,0.0,0.0,0.0,-3.6013,-3.7012,-3.7735,-3.8001,-3.8118,0.0,0.0,0.0,0.0,0.0,0.0,-4.2309,-4.2409,-4.3356,-4.5433,-4.5666,-4.6398,-4.7679,-4.8411,-4.8977,-4.9327,-4.9343,-4.9227,-4.9027,-4.7928,-4.7391,-4.7264,-4.6022,-4.5169,-4.4451,-4.2321,-4.1177,-4.0614,-3.952,-3.8865,-3.8614,-3.8619,-3.8597,-3.8614,-3.8614,-3.8185,-3.7529,-3.6732,0.0,-3.4877,-3.3708,0.0,0.0,0.0,0.0,-3.3821,-3.4682,-3.4913,-3.4985,-3.5272,-3.5363,-3.5171,-3.4322,-3.416,-3.4059,0.0,-3.3127,-3.2557,-3.1642,0.0,0.0,0.0,0.0,-3.0404,-3.0688,-3.1298,-3.1837,-3.2155,-3.2749,-3.3165,-3.3271,-3.38,-3.3856,-3.3155,-3.2532,-3.1787,-3.0863,-3.0254,-2.9832,-2.9589,0.0,0.0,0.0,0.0,0.0,0.0,0.0,0.0,0.0,0.0,0.0,0.0,0.0,0.0,0.0,0.0,0.0,0.0,0.0,0.0,0.0,0.0,0.0,0.0,0.0,0.0,0.0,0.0,0.0,-3.8657,-3.9345,0.0,0.0,0.0,0.0,-4.0676,-4.0774,-4.177,-4.3948,-4.4079,-4.4734,-4.6209,-4.6929,-4.7667,-4.8436,-4.9173,-4.9225,-4.8571,-4.8571,-4.8226,-4.7586,-4.7521,-4.7194,-4.6632,-4.6033,-4.5443,-4.4793,-4.3726,-4.1982,-4.0062,-4.0111,-3.9261,-3.805,-3.811,-3.8103,-3.8027,-3.8027,-3.7939,-3.7675,-3.6937,-3.5829,-3.4694,-3.3973,-3.3837,0.0,0.0,-3.397,-3.416,-3.4979,-3.5232,-3.5469,-3.6316,-3.6609,-3.6346,-3.5044,-3.4764,-3.4429,0.0,-3.3309,-3.2988,-3.1472,0.0,-3.0924,-2.9351,-2.9149,-2.951,-3.0401,-3.0604,-3.1004,-3.1832,-3.2008,-3.2088,-3.2088,-3.2125,-3.2125,-3.2077,-3.1987,-3.1542,-3.0658,-3.0581,-3.018,-2.9332,-2.9384,0.0,0.0,0.0,0.0,0.0,0.0,0.0,0.0,0.0,0.0,0.0,0.0,0.0,0.0,0.0,0.0,0.0,0.0,0.0,0.0,0.0,0.0,0.0,0.0,0.0,0.0,0.0,0.0,-4.0713,-4.1498,0.0,-4.1939,-4.171,-4.1956,-4.2937,-4.3003,-4.3968,-4.6127,-4.6241,-4.6896,-4.8386,-4.8697,-4.8942,-4.9223,-4.9485,-4.9468,-4.9206,-4.8731,-4.8371,-4.8109,-4.7225,-4.6651,-4.6405,-4.5287,-4.4628,-4.436,-4.3552,-4.2625,-4.1692,-4.1251,-4.0438,-3.9482,-3.9612,-3.9353,-3.8984,-3.9068,-3.8748,-3.811,-3.6901,-3.5536,-3.4324,-3.4163,-3.3846,-3.3658,-3.4172,-3.4308,-3.4517,-3.5378,-3.5673,-3.583,-3.6194,-3.6367,-3.6073,-3.459,-3.4375,-3.4087,-3.272,-3.285,-3.2688,-3.1141,-3.1052,-3.0638,-2.9083,-2.8833,-2.8983,-2.943,-2.9501,-2.9669,-3.0065,-3.0591,-3.0921,-3.0962,-3.1448,-3.1511,-3.0947,-3.0887,-3.0479,-2.9606,-2.9576,-2.9418,-2.9104,-2.9134,-2.9178,0.0,0.0,0.0,0.0,0.0,0.0,0.0,0.0,0.0,0.0,0.0,0.0,0.0,0.0,0.0,0.0,0.0,0.0,0.0,0.0,0.0,0.0,0.0,0.0,0.0,0.0,-4.078,-4.2225,-4.3051,-4.349,-4.349,-4.349,-4.3847,-4.4821,-4.4902,-4.573,-4.7628,-4.7533,-4.7956,-4.9209,-4.8998,-4.8982,-4.9245,-4.9245,-4.9115,-4.8836,-4.8348,-4.799,-4.7714,-4.6612,-4.6011,-4.5767,-4.4639,-4.4,-4.3768,-4.3064,-4.2624,-4.2332,-4.165,-4.0894,-4.0161,-3.9996,-3.9653,-3.9299,-3.9388,-3.8916,-3.8092,-3.6896,-3.5666,-3.4649,-3.4491,-3.4164,-3.3951,-3.4494,-3.4628,-3.479,-3.5397,-3.5667,-3.5778,-3.5854,-3.5775,-3.5351,-3.4103,-3.3781,-3.3363,-3.2154,-3.2243,-3.2076,-3.0788,-3.0531,-3.0053,-2.8755,-2.8582,-2.865,-2.8743,-2.8773,-2.8822,-2.8952,-2.9445,-2.9793,-2.9858,-3.036,-3.0421,-2.9829,-2.9793,-2.9519,-2.8923,-2.8893,-2.8881,-2.8876,-2.8876,-2.8881,-2.8929,0.0,0.0,0.0,0.0,0.0,0.0,0.0,0.0,0.0,0.0,0.0,0.0,0.0,0.0,0.0,0.0,0.0,0.0,0.0,0.0,0.0,0.0,0.0,-3.8551,-4.0083,-4.1598,-4.3116,-4.3884,-4.4299,-4.4315,-4.4315,-4.4891,-4.623,-4.6362,-4.6933,-4.8307,-4.7769,-4.7757,-4.8445,-4.7805,-4.7757,-4.8429,-4.8445,-4.8077,-4.7337,-4.7337,-4.6969,-4.625,-4.5755,-4.5201,-4.4625,-4.4123,-4.3565,-4.2984,-4.2327,-4.1929,-4.171,-4.1203,-4.0541,-3.9804,-3.91,-3.8821,-3.8805,-3.8805,-3.8313,-3.7593,-3.6905,-3.6286,-3.5663,-3.4922,-3.4787,-3.4899,-3.4899,-3.4899,-3.4923,-3.5041,-3.5158,-3.5264,-3.5322,-3.4885,-3.4273,-3.3596,-3.2988,-3.2374,-3.1697,-3.1516,-3.1209,-3.0433,-2.9846,-2.9199,-2.8407,-2.834,0.0,-2.8479,-2.8479,-2.8543,-2.8669,-2.8682,-2.8724,-2.8773,-2.8785,-2.8785,-2.8785,-2.8785,-2.8761,-2.8682,-2.8682,-2.8662,-2.8587,-2.8587,-2.8587,-2.8587,0.0,0.0,0.0,0.0,0.0,0.0,0.0,0.0,0.0,0.0,0.0,0.0,0.0,0.0,0.0,0.0,0.0,0.0,0.0,0.0,0.0,0.0,-3.8169,-3.9467,-4.1112,-4.2859,-4.4791,-4.5667,-4.6285,-4.6755,-4.695,-4.7109,-4.7379,-4.7522,-4.7697,-4.7965,-4.7807,-4.7807,-4.8035,-4.786,-4.7606,-4.7273,-4.7273,-4.6924,-4.6242,-4.6242,-4.5933,-4.534,-4.4657,-4.4092,-4.3554,-4.2398,-4.1848,-4.1761,-4.1081,-4.076,-4.0714,-4.0834,-4.0342,-3.9588,-3.9508,-3.9168,-3.8805,-3.8805,-3.8232,-3.7459,-3.6879,-3.6158,-3.5371,-3.4751,-3.457,-3.4594,-3.4594,-3.4594,-3.4618,-3.4659,-3.4367,-3.4064,-3.4087,-3.3621,-3.3022,-3.2412,-3.2198,-3.1968,-3.1289,-3.0869,-3.0473,-3.0015,-2.9497,-2.8897,-2.8191,-2.8136,0.0,-2.834,-2.8349,-2.8393,-2.8471,-2.8484,-2.8484,-2.8497,-2.8497,-2.8497,-2.8497,-2.8497,-2.8497,-2.8484,-2.8484,-2.8471,-2.8463,-2.8445,-2.8445,0.0,0.0,0.0,0.0,0.0,0.0,0.0,0.0,0.0,0.0,0.0,0.0,0.0,0.0,0.0,0.0,0.0,0.0,0.0,0.0,0.0,0.0,-3.7287,-3.9013,-4.0614,-4.2061,-4.3633,-4.545,-4.6028,-4.6544,-4.7177,-4.7355,-4.7519,-4.77,-4.7566,-4.7535,-4.7715,-4.7169,-4.691,-4.6948,-4.6667,-4.6322,-4.5878,-4.5878,-4.5675,-4.5284,-4.5023,-4.4716,-4.4385,-4.3535,-4.3011,0.0,-4.1486,-4.1022,-4.1005,-4.0135,-3.9764,0.0,0.0,0.0,0.0,0.0,-3.889,-3.8628,-3.8628,-3.8295,-3.772,-3.6824,-3.6179,-3.5591,-3.4626,-3.4325,-3.4325,-3.4325,-3.4113,-3.3925,-3.3941,-3.349,-3.302,-3.309,-3.2599,-3.2023,-3.1654,-3.1452,-3.1208,-3.0857,-3.0393,0.0,-2.9453,-2.905,-2.8553,-2.7886,-2.7853,-2.794,-2.8077,-2.8091,-2.8132,-2.8246,-2.8259,-2.8304,-2.834,-2.8353,0.0,0.0,0.0,-2.8398,-2.8353,-2.8327,0.0,0.0,0.0,-2.8291,-2.8318,0.0,0.0,0.0,-3.0609,-3.1266,0.0,0.0,0.0,0.0,0.0,0.0,0.0,0.0,0.0,0.0,0.0,0.0,0.0,0.0,0.0,0.0,-3.8105,-3.9802,-4.1607,-4.2734,-4.3876,-4.5278,-4.5455,-4.5708,-4.6419,-4.6496,-4.6781,-4.7395,-4.6929,-4.6776,-4.7221,0.0,0.0,0.0,0.0,-4.4458,-4.4458,-4.4381,-4.435,-4.4335,-4.3659,-4.3328,-4.322,-4.2364,-4.1902,-4.1738,-4.0939,-4.0547,-4.0404,-3.9255,-3.8818,-3.8802,-3.8993,-3.8964,-3.8827,-3.8348,-3.8221,-3.8335,-3.8335,0.0,0.0,-3.6686,-3.6185,-3.5861,-3.4471,-3.4075,-3.4059,-3.3978,-3.355,-3.3089,-3.3079,-3.2566,-3.2069,-3.2207,-3.1673,-3.1133,-3.115,-3.0712,-3.0396,-3.0464,-3.0081,-2.9577,-2.8934,-2.8612,-2.8208,-2.7539,-2.7511,-2.7585,-2.773,-2.776,-2.785,-2.8011,0.0,0.0,-2.8214,-2.8214,-2.8259,-2.8313,-2.8327,-2.8313,-2.8259,-2.8209,-2.8186,-2.8186,-2.8112,-2.8112,-2.8186,-2.8186,-2.8538,-2.9269,-3.0284,-3.0808,0.0,0.0,0.0,0.0,0.0,0.0,0.0,0.0,0.0,0.0,0.0,0.0,0.0,0.0,0.0,-3.7204,-3.8698,-3.9981,-4.0825,-4.1891,-4.3114,-4.4384,-4.4554,-4.5036,-4.6214,-4.6486,-4.6588,-4.6557,-4.6562,-4.6105,-4.4991,-4.469,0.0,-4.3777,-4.3626,-4.3566,-4.3566,-4.3079,-4.2823,-4.2808,0.0,0.0,-4.1273,-4.1218,-4.0679,-3.9729,-3.9296,-3.8887,-3.8498,-3.7819,-3.7548,-3.7578,-3.7993,-3.8126,-3.8097,-3.7982,-3.7963,-3.7992,-3.7992,-3.7636,-3.707,-3.6192,-3.5519,-3.4936,-3.4028,-3.3848,0.0,-3.3215,-3.3064,-3.2975,-3.2376,-3.1695,-3.116,-3.1183,-3.0654,-3.0179,-3.0228,-3.0158,-3.0103,-3.0231,-3.0264,-3.0017,-2.9254,-2.8521,-2.7811,-2.7175,-2.7152,-2.7244,-2.7448,-2.7509,-2.7585,-2.7692,-2.7748,-2.7789,-2.7818,-2.7818,-2.7818,-2.7832,-2.789,-2.7904,-2.789,-2.7996,-2.8042,-2.8042,-2.8028,-2.8028,-2.8042,-2.8042,-2.8113,-2.8323,-2.984,-3.0913,0.0,0.0,0.0,0.0,0.0,0.0,0.0,0.0,0.0,0.0,0.0,-3.3634,0.0,0.0,-3.7058,-3.8328,-3.9433,-4.0345,-4.0949,-4.1529,-4.2364,-4.3696,-4.392,-4.4388,-4.5414,-4.5588,-4.5588,-4.5518,-4.5275,-4.4825,-4.4032,-4.369,-4.3337,-4.3025,-4.2905,-4.2702,-4.2361,-4.1942,-4.1593,-4.1283,-4.0642,-4.0193,-3.9943,-3.9898,-3.9391,-3.8472,-3.8284,-3.7879,-3.7304,-3.677,-3.6554,-3.6585,-3.6799,-3.7178,-3.7551,-3.7551,-3.7581,-3.7639,-3.7639,-3.7208,-3.6536,-3.5908,-3.5234,-3.4585,-3.3892,-3.3761,-3.3652,-3.298,-3.2619,-3.2289,-3.1632,-3.0943,-3.0393,-3.0393,-3.0139,-2.9902,-2.9946,-2.9946,-2.9989,-3.0081,-3.0146,-2.9981,-2.9284,-2.8784,-2.8223,-2.7383,-2.7029,-2.6908,-2.7086,-2.72,-2.7279,-2.734,-2.74,-2.7476,-2.7554,-2.7585,-2.76,-2.76,-2.763,-2.7659,-2.7659,-2.7704,-2.7766,-2.7795,-2.7795,-2.7824,-2.785,-2.785,-2.7864,-2.7929,-2.9166,-2.9988,0.0,0.0,0.0,0.0,0.0,0.0,0.0,0.0,-3.1494,-3.2186,-3.3332,-3.4541,-3.5691,-3.695,-3.825,-3.9363,-4.0046,-4.0657,-4.1198,-4.1212,-4.1564,-4.2613,-4.3023,-4.3527,-4.4187,-4.4203,-4.4203,-4.4203,-4.3747,-4.3395,-4.3263,-4.2737,-4.2444,-4.2444,-4.2179,-4.1791,-4.1237,-4.0815,-4.0358,-3.9865,-3.9214,-3.8895,-3.888,-3.8603,-3.8091,-3.7445,-3.7203,-3.6817,-3.6328,-3.5883,-3.5721,-3.5721,-3.5721,-3.6134,-3.6769,-3.6937,-3.7088,-3.7238,-3.7238,-3.6688,-3.5946,-3.5508,-3.4822,-3.4127,-3.3662,-3.3581,-3.3483,-3.2745,-3.2168,-3.1589,-3.0829,-3.0228,-2.983,-2.983,-2.983,-2.983,-2.9852,-2.9874,-2.988,-2.9968,-2.9973,-2.9816,-2.9335,-2.9165,-2.8681,-2.7592,-2.7019,-2.6689,-2.6674,-2.6792,-2.6908,-2.6956,-2.7053,-2.7151,-2.7246,-2.7308,-2.734,-2.734,-2.7355,-2.7355,-2.7355,-2.7404,-2.7434,-2.7496,-2.7478,-2.7524,-2.758,-2.758,-2.7642,-2.7733,-2.8396,-2.8843,-2.7074,-2.7108,-2.7258,-2.7958,-2.8252,-2.8615,0.0,0.0,-3.206,-3.233,-3.4085,-3.5781,-3.6465,-3.7782,-3.8971,-3.9647,-4.028,-4.0703,-4.0773,-4.0491,-4.0291,-4.0446,-4.1153,-4.1908,-4.2496,-4.2553,-4.2553,-4.2553,-4.2496,-4.2209,-4.1693,-4.1592,-4.1564,-4.1564,-4.1019,-4.0662,-4.059,-3.9459,-3.8842,-3.8771,-3.8102,-3.7801,-3.7773,-3.7391,-3.6815,-3.6151,-3.5322,-3.5019,-3.5078,-3.5037,-3.5008,-3.5008,-3.5008,-3.5073,-3.5237,-3.6023,-3.643,-3.66,-3.66,-3.5735,-3.4594,-3.4562,-3.3779,-3.2847,-3.2951,-3.315,-3.3103,-3.1897,-3.1589,-3.1318,-3.0005,-2.9605,-2.9541,-2.9541,-2.9541,-2.9586,-2.9697,-2.972,-2.9764,-2.9896,-2.9902,-2.9886,-2.9827,-2.9323,-2.8535,-2.7328,-2.7085,-2.686,-2.6325,-2.6383,-2.647,-2.6487,-2.6641,-2.6758,-2.6775,-2.6791,-2.6791,-2.6791,-2.6858,-2.6891,-2.6891,-2.6989,-2.7054,-2.707,-2.707,-2.7103,-2.7182,-2.7182,-2.7261,-2.745,-2.7537,-2.8137,-2.6336,-2.6574,0.0,0.0,-2.7961,-2.8662,-2.9414,-3.0806,-3.2142,-3.2791,-3.4246,-3.5691,-3.671,-3.7743,-3.8686,0.0,-4.001,-4.0515,-4.0515,-4.0182,-3.9914,-3.9914,-3.9954,-4.029,-4.1167,-4.1266,-4.1423,-4.1738,-4.1767,-4.1667,-4.141,-4.1396,-4.1239,-4.0867,-4.0472,-3.9947,-3.9221,-3.8547,-3.8,-3.7685,-3.7392,-3.7264,-3.7236,-3.684,-3.6162,-3.5267,-3.4502,-3.4249,-3.4332,-3.4332,-3.4332,-3.4332,-3.4332,-3.4351,-3.4505,-3.5187,-3.5591,-3.572,-3.572,-3.4922,-3.3894,-3.3969,-3.3189,-3.2274,-3.2428,-3.2687,-3.2634,-3.1385,-3.1158,-3.094,-2.9617,-2.9275,-2.9298,-2.9366,-2.9389,-2.9412,-2.9563,-2.9586,-2.9608,-2.9653,-2.9675,-2.9675,-2.9675,-2.944,-2.8957,-2.8106,-2.7408,-2.6759,-2.6107,-2.61,-2.6207,-2.6278,-2.6365,-2.6418,-2.6418,-2.6418,-2.6418,-2.6418,-2.6435,-2.6452,-2.6452,-2.6539,-2.659,-2.659,-2.6624,-2.6674,-2.6691,-2.6775,-2.6858,-2.7006,-2.7104,-2.7434,-2.5906,0.0,0.0,-2.7163,-2.7854,-2.861,-2.9302,-3.056,-3.1746,-3.2567,-3.3723,-3.4974,-3.6062,-3.6989,-3.7814,-3.8406,-3.9392,-3.9979,-3.9897,-3.9606,-3.9424,-3.9283,-3.8721,-3.8756,-3.9705,-3.9932,-4.0302,-4.0914,-4.0971,-4.1042,-4.1213,-4.1056,-4.0757,-4.0316,-3.9782,-3.9092,-3.8187,-3.7817,-3.7428,-3.6978,-3.6978,-3.6978,-3.7003,-3.6368,-3.5532,-3.4612,-3.4014,-3.3709,-3.3709,-3.3709,-3.3709,-3.3709,-3.3709,-3.3799,-3.3922,-3.4337,-3.4673,-3.4986,-3.4986,-3.4194,-3.3238,-3.3347,-3.2617,-3.1754,-3.191,-3.2148,-3.209,-3.0933,-3.069,-3.0495,-2.9241,-2.8905,-2.8928,-2.9029,-2.9075,-2.9144,-2.9252,-2.9321,-2.9344,-2.9382,-2.9405,-2.9405,-2.9434,-2.9434,-2.924,-2.8629,-2.7826,-2.7082,-2.6474,-2.629,-2.6186,-2.6115,-2.6117,-2.6117,-2.6117,-2.6117,-2.6117,-2.6117,-2.6117,-2.6117,-2.6117,-2.6154,-2.6189,-2.6189,-2.6242,-2.6261,-2.6296,-2.64,-2.6487,-2.659,-2.6742,-2.6859,-2.5937,-2.6118,-2.6419,-2.7659,-2.7977,-2.825,-2.9192,-3.017,-3.0979,-3.1227,-3.2411,-3.3658,-3.4272,-3.5357,-3.6372,-3.6962,-3.8241,-3.8989,-3.863,-3.856,-3.8405,-3.7992,-3.7414,-3.7288,0.0,-3.8564,-3.9197,-3.9802,-3.9858,-4.0112,-4.0716,-4.0182,-3.9844,-3.983,-3.8635,-3.7948,-3.7906,-3.7316,-3.7007,-3.6978,-3.6978,-3.6978,-3.695,-3.5766,-3.4866,-3.4161,-3.3593,-3.3326,-3.3326,-3.3326,-3.3326,-3.3326,-3.3326,-3.3326,-3.3326,-3.3347,-3.3799,-3.4414,-3.4414,-3.359,-3.2533,-3.2533,-3.1845,-3.1058,-3.1278,-3.1509,-3.1509,-3.0403,-3.0184,-2.996,-2.8725,-2.842,-2.842,-2.8436,-2.8541,-2.8645,-2.8724,-2.8826,-2.8967,-2.9075,-2.9098,-2.9144,-2.9282,-2.9305,-2.9112,-2.8488,-2.8382,-2.818,-2.7717,-2.7136,-2.6553,-2.5963,-2.5899,-2.5899,-2.5899,-2.5899,-2.5899,-2.5899,-2.5899,-2.5899,-2.5899,-2.5899,-2.5899,-2.5899,-2.5899,-2.5954,-2.601,-2.601,-2.6118,-2.6313,-2.6313,-2.6435,-2.5655,-2.6224,-2.6851,-2.7284,-2.7774,-2.823,-2.8688,-2.9576,-3.0259,-3.0093,-3.1086,-3.2059,-3.2267,-3.3291,-3.4485,-3.5534,-3.6728,-3.7783,-3.8571,-3.8104,-3.7799,-3.8061,-3.72,0.0,0.0,0.0,0.0,-3.9169,-3.9591,-3.9873,-4.0083,-3.9901,-3.9606,-3.924,-3.8341,-3.7709,-3.7302,-3.7091,-3.6978,-3.6978,-3.6978,-3.6768,-3.6399,-3.5569,-3.4815,-3.4175,-3.3557,-3.329,-3.329,-3.329,-3.329,-3.329,-3.329,-3.329,-3.329,-3.329,-3.3198,-3.3084,-3.3234,-3.2796,-3.2091,-3.1706,-3.111,-3.0553,-3.0613,-3.0837,-3.0865,-2.9633,-2.9372,-2.9167,-2.7863,-2.765,-2.774,-2.7795,-2.7949,-2.8097,-2.8149,-2.8207,-2.8295,-2.8462,-2.8486,-2.8549,-2.8668,-2.8787,-2.881,-2.8728,-2.8166,-2.7683,-2.7506,-2.7306,-2.6985,-2.6377,-2.6296,-2.6137,-2.5742,-2.5694,-2.5694,-2.5694,-2.5694,-2.5694,-2.5694,-2.5694,-2.5694,-2.5694,-2.5694,-2.5712,-2.5731,-2.5772,-2.583,-2.5903,-2.6046,-2.6136,-2.6174,-2.669,-2.7211,-2.7564,-2.7884,-2.8063,-2.8021,-2.8554,-2.8968,-2.8625,-2.9313,-2.9986,-3.0075,-3.1228,-3.2528,-3.3661,-3.5047,-3.6452,-3.7735,-3.7591,-3.7538,-3.7978,-3.7289,-3.6763,0.0,0.0,0.0,-3.8482,-3.91,-3.9591,-3.9774,-3.9788,-3.9535,-3.893,-3.8243,-3.7611,-3.6993,-3.6978,-3.6978,-3.6978,-3.6978,-3.6782,-3.6399,-3.5569,-3.4978,-3.452,-3.3691,-3.329,-3.329,-3.329,-3.329,-3.329,-3.329,-3.329,-3.329,-3.329,-3.2932,-3.2412,-3.2549,-3.2118,-3.1407,-3.1009,-3.0534,-3.0129,-3.0129,-3.0312,-3.0292,-2.9072,-2.8779,-2.8556,-2.7293,-2.7049,-2.7167,-2.7199,-2.7342,-2.7494,-2.754,-2.7575,-2.764,-2.7785,-2.785,-2.794,-2.8048,-2.8244,-2.8422,-2.8614,-2.8114,-2.7677,-2.77,-2.7689,-2.7444,-2.6864,-2.6595,-2.6278,-2.5886,-2.5631,-2.5486,-2.5486,-2.5486,-2.5486,-2.5486,-2.5486,-2.5486,-2.5486,-2.5486,-2.5486,-2.5486,-2.5546,-2.5567,-2.5567,-2.568,-2.5754,-2.7366,-2.7472,-2.7418,-2.8357,-2.8228,-2.7775,-2.7199,-2.7238,-2.7266,-2.6848,-2.7151,-2.7545,-2.7741,0.0,-3.0546,-3.1384,-3.3262,-3.4986,-3.6094,-3.6897,-3.7473,0.0,0.0,0.0,0.0,0.0,0.0,-3.7786,0.0,-3.9142,-3.9746,-3.9746,-3.9507,-3.8875,-3.8203,-3.7571,-3.6993,-3.6993,-3.6993,-3.6993,-3.6993,-3.6964,-3.6894,-3.57,-3.5175,-3.5077,-3.3845,-3.329,-3.329,-3.329,-3.329,-3.329,-3.329,-3.329,-3.329,-3.329,-3.2918,-3.2356,-3.2356,-3.1555,-3.0484,-3.0455,-3.0161,-2.9777,-2.9777,-2.9929,-2.9854,-2.8727,-2.8426,-2.8152,-2.7006,-2.67,-2.6712,-2.6683,-2.6759,-2.6875,-2.6875,-2.6967,-2.7071,-2.7071,-2.7244,-2.7372,-2.7454,-2.7675,-2.7929,-2.8122,-2.8162,-2.8182,-2.8205,-2.8237,-2.8011,-2.7471,-2.6753,-2.6322,-2.6294,-2.5675,-2.5294,-2.5294,-2.5294,-2.5294,-2.5294,-2.5294,-2.5294,-2.5294,-2.5294,-2.5294,-2.5294,-2.5294,-2.5294,-2.5294,-2.5294,-2.5336,-2.7238,-2.7792,-2.8272,-2.8168,-2.8178,-2.7976,-2.7067,-2.7042,-2.6821,-2.5584,-2.5541,-2.5804,-2.5996,0.0,0.0,-3.0101,-3.1435,0.0,-3.5252,-3.5677,0.0,-3.7289,0.0,-3.6775,-3.7101,-3.7008,0.0,0.0,-3.8048,-3.863,-3.924,-3.9268,-3.8991,-3.838,-3.777,-3.716,-3.6549,-3.6549,-3.6549,-3.6549,-3.6549,-3.6339,-3.5853,-3.5203,-3.4664,-3.4212,-3.3564,-3.329,-3.329,-3.329,-3.329,-3.329,-3.329,-3.329,-3.329,-3.329,-3.2637,-3.1724,-3.1724,-3.119,-3.0413,-2.9996,-2.976,-2.9651,-2.9651,-2.9696,-2.9572,-2.8812,-2.863,-2.8333,-2.7088,-2.6846,-2.6815,-2.6359,-2.6353,-2.6445,-2.6445,-2.6486,-2.6525,-2.6642,-2.6788,-2.6919,-2.703,-2.7108,-2.721,-2.7352,-2.7524,-2.778,-2.8293,-2.8428,-2.8279,-2.7689,-2.7101,-2.6577,-2.6168,-2.554,-2.5201,-2.5294,-2.5294,-2.5294,-2.5294,-2.5294,-2.5294,-2.5294,-2.5294,-2.5294,-2.5294,-2.5294,-2.5294,-2.5294,-2.5294,-2.5314,-2.8046,-2.8459,-2.8632,-2.8356,-2.8061,-2.7556,-2.6528,-2.6055,-2.5518,-2.453,-2.4237,-2.4235,-2.4443,-2.5093,0.0,0.0,0.0,0.0,-3.4311,-3.495,-3.5618,0.0,-3.6618,0.0,-3.6841,-3.666,-3.6694,0.0,-3.7937,-3.8569,-3.8913,-3.9274,-3.9098,-3.8228,-3.7869,-3.7275,-3.6405,-3.6405,-3.6405,-3.6405,-3.6405,-3.606,-3.5463,-3.4958,-3.4372,-3.377,0.0,-3.3051,-3.3051,-3.3051,-3.3051,-3.3051,-3.3051,-3.3051,-3.3009,-3.2744,-3.2047,-3.1196,-3.0931,-3.0415,-2.983,-2.9652,-2.9602,-2.9602,-2.9602,-2.9602,-2.9476,-2.8872,-2.8689,-2.8464,-2.7481,-2.7088,-2.6835,-2.6496,-2.6254,-2.6111,-2.6111,-2.6111,-2.6165,-2.6312,-2.6392,-2.6472,-2.6616,-2.6642,-2.6695,-2.6811,-2.693,-2.7167,-2.76,-2.7999,-2.8154,-2.7921,-2.7101,-2.6467,-2.6213,-2.5294,-2.4791,-2.4866,-2.4866,-2.4866,-2.4866,-2.4906,-2.4962,-2.4962,-2.4985,-2.5005,-2.5005,-2.5005,-2.5005,-2.5005,-2.5005,-2.5005,-2.9137,-2.9206,-2.8873,-2.8735,-2.8012,-2.7007,-2.5957,-2.4923,-2.4064,-2.3642,0.0,-2.2931,-2.311,-2.4058,-2.535,-2.6931,0.0,-3.0626,-3.3158,-3.428,-3.5246,-3.6294,-3.6181,-3.6157,-3.6443,-3.6007,-3.6019,-3.6722,-3.7803,-3.8475,-3.8562,-3.9232,-3.9061,-3.7853,-3.7744,-3.7195,-3.6192,-3.6192,-3.6192,-3.6232,-3.6163,-3.5778,-3.5184,-3.462,-3.4014,-3.3431,0.0,0.0,-3.2632,-3.2632,-3.2632,-3.2632,-3.2668,-3.2668,-3.2585,-3.2013,-3.1419,-3.0812,-3.0204,-2.9596,-2.9162,-2.9446,-2.954,-2.954,-2.954,-2.954,-2.9459,-2.8926,-2.8816,-2.8675,-2.8087,-2.7481,-2.7017,-2.6849,-2.6399,-2.5992,-2.5921,-2.5893,-2.5921,-2.6056,-2.6056,-2.6111,-2.6233,-2.626,-2.6299,-2.6404,-2.6431,-2.6484,-2.6604,-2.7229,-2.7775,-2.7999,-2.6831,-2.6054,-2.6183,-2.5001,-2.424,-2.4261,-2.4261,-2.4261,-2.4261,-2.4359,-2.4436,-2.4436,-2.4503,-2.4528,-2.4528,-2.4549,-2.4569,-2.4569,-2.4569,-2.4569,-2.9424,-2.9722,-2.9757,-2.8907,-2.8276,-2.7472,-2.6037,-2.4923,0.0,0.0,-2.2443,-2.2164,-2.2362,-2.2918,-2.3979,-2.5876,0.0,0.0,0.0,0.0,-3.3859,0.0,0.0,0.0,0.0,0.0,0.0,0.0,0.0,-3.7298,-3.7938,-3.7672,-3.6977,-3.5857,-3.5326,-3.5052,-3.5018,-3.5005,-3.51,-3.5318,-3.4835,-3.4285,-3.3668,-3.3295,-3.279,-3.2208,-3.2218,0.0,-3.22,-3.22,-3.22,-3.2237,-3.2381,-3.2453,-3.2407,-3.1943,-3.1419,-3.0812,-3.0204,-2.9596,-2.9099,-2.9162,-2.9194,-2.9194,-2.9194,-2.9289,-2.9418,-2.932,-2.9355,-2.9307,-2.8689,-2.845,-2.8099,-2.7059,-2.6722,-2.6512,-2.6006,-2.5893,-2.5921,-2.5921,-2.5921,-2.5948,-2.5975,-2.5975,-2.5975,-2.5988,-2.6111,-2.6192,-2.6192,-2.6695,-2.7056,-2.7108,-2.6169,-2.5546,-2.5625,-2.4557,-2.3925,-2.4046,-2.4046,-2.4046,-2.4046,-2.4067,-2.4088,-2.4088,-2.4141,-2.4183,-2.4183,-2.4302,-2.4343,-2.4343,-2.4343,-2.4343,-2.9722,-3.0044,-2.9975,-2.8953,-2.8138,-2.7265,-2.6003,0.0,0.0,0.0,-2.2065,-2.1569,-2.1654,-2.2082,0.0,0.0,0.0,0.0,0.0,0.0,0.0,0.0,0.0,0.0,0.0,0.0,0.0,0.0,0.0,-3.6143,-3.7176,-3.6522,-3.5802,-3.496,-3.4347,-3.4092,-3.4176,-3.4176,-3.4103,-3.3953,-3.3679,-3.3077,-3.2189,-3.2043,-3.1648,-3.106,-3.1121,0.0,-3.1182,-3.1294,-3.1331,-3.1331,-3.1579,-3.1466,-3.1154,-3.0636,-3.0081,-2.9524,-2.8899,-2.8575,-2.843,-2.843,-2.8734,-2.9099,-2.9099,-2.9162,-2.9226,-2.9226,-2.9289,-2.9282,-2.899,-2.8683,-2.8223,-2.7261,-2.6565,-2.605,-2.5758,-2.5743,-2.5811,-2.5811,-2.5839,-2.5893,-2.5893,-2.5893,-2.5893,-2.5893,-2.5948,-2.6002,-2.6002,-2.6231,-2.6443,-2.668,-2.5675,-2.5038,-2.512,-2.402,-2.337,-2.3414,-2.3436,-2.3436,-2.3436,-2.348,-2.3523,-2.3523,-2.3631,-2.3696,-2.3745,-2.3809,-2.3873,-2.3931,-2.3931,-2.3931,-2.9848,-3.0135,-2.9975,-2.8953,-2.7954,-2.6892,-2.5796,-2.4062,0.0,-2.2547,-2.1822,-2.119,-2.119,0.0,-2.2293,0.0,-2.492,0.0,0.0,0.0,0.0,0.0,0.0,0.0,0.0,0.0,0.0,0.0,0.0,0.0,-3.5875,-3.5221,-3.4546,-3.4002,-3.3515,-3.3224,-3.3153,-3.3153,-3.2904,-3.2441,-3.2326,-3.1805,-3.0927,-3.08,-3.0495,-3.005,-3.005,0.0,0.0,-3.0228,-3.0304,-3.0342,-3.0517,-3.028,-2.9811,-2.9158,-2.866,-2.8226,-2.7585,-2.749,-2.7643,-2.7643,-2.8203,-2.8876,-2.8876,-2.894,-2.8972,-2.8926,-2.899,-2.9022,-2.9004,-2.8549,-2.7916,-2.7216,-2.6253,-2.5494,-2.5494,-2.5592,-2.5661,-2.5661,-2.5743,-2.5825,-2.5825,-2.5825,-2.5825,-2.5825,-2.5825,-2.5825,-2.5825,-2.5825,-2.5921,-2.6258,-2.5363,-2.4708,-2.4663,-2.3667,-2.2967,-2.2836,-2.2836,-2.2836,-2.2836,-2.2949,-2.2994,-2.2994,-2.3105,-2.3194,-2.3253,-2.3275,-2.3341,-2.3443,-2.3443,-2.3443,-2.9538,-2.9883,-2.9975,-2.8953,-2.7954,-2.68,-2.5325,0.0,-2.2547,-2.2055,-2.1548,-2.119,-2.119,-2.1583,-2.2227,0.0,0.0,-2.5582,0.0,0.0,0.0,0.0,0.0,0.0,0.0,0.0,0.0,0.0,0.0,0.0,-3.3484,-3.3044,-3.2499,-3.1966,-3.1906,-3.1726,-3.1431,-3.1431,-3.1276,-3.1001,-3.0502,-3.0217,-3.0106,-2.9547,-2.9248,-2.9199,-2.9199,0.0,0.0,-2.9238,-2.9367,-2.9473,-2.9189,-2.9163,-2.9184,-2.8315,-2.7996,-2.7868,-2.7267,-2.7074,-2.7074,-2.7074,-2.759,-2.8177,-2.8177,-2.8406,-2.8619,-2.843,-2.8578,-2.8803,-2.8683,-2.8189,-2.7503,-2.6517,-2.5893,-2.5494,-2.5494,-2.5494,-2.5522,-2.5522,-2.5522,-2.555,-2.555,-2.555,-2.555,-2.555,-2.555,-2.555,-2.555,-2.555,-2.555,-2.5605,-2.533,-2.4915,-2.4319,-2.3749,-2.3216,-2.2666,-2.2623,-2.2623,-2.2623,-2.2646,-2.2646,-2.2646,-2.2709,-2.2777,-2.2762,-2.2889,-2.2957,-2.2957,-2.2957,-2.2957,-2.8934,-2.924,-2.9161,-2.8449,-2.7307,-2.604,-2.4869,0.0,-2.2185,-2.1687,-2.1233,-2.0914,-2.0999,-2.1158,-2.167,-2.2788,-2.3533,0.0,0.0,0.0,0.0,0.0,0.0,0.0,0.0,0.0,0.0,0.0,0.0,0.0,-3.1891,-3.1968,-3.1808,-3.1297,-3.0965,-3.0723,-3.0596,-3.0274,-2.9899,-2.9551,-2.9306,-2.9054,-2.873,-2.8475,-2.8379,-2.8379,-2.8379,0.0,0.0,-2.8514,-2.8412,-2.8176,-2.8177,-2.7852,-2.7299,-2.6928,-2.6606,-2.6284,-2.6074,-2.6047,-2.6151,-2.6151,-2.6427,-2.6858,-2.741,-2.7756,-2.7921,-2.7855,-2.7908,-2.7926,-2.7548,-2.6764,-2.6001,-2.5668,-2.5193,-2.4806,-2.4934,-2.5032,-2.5075,-2.5075,-2.5216,-2.5328,-2.5328,-2.5425,-2.5494,-2.5494,-2.5494,-2.5494,-2.5494,-2.5494,-2.5494,-2.5494,-2.5172,-2.4842,-2.4589,-2.3773,-2.3168,-2.2927,-2.2545,-2.237,-2.237,-2.237,-2.237,-2.237,-2.2379,-2.2449,-2.2518,-2.2563,-2.2632,-2.2737,-2.2737,-2.2737,-2.7885,-2.8243,-2.831,-2.7553,-2.6476,-2.5287,0.0,0.0,-2.1832,-2.123,-2.0904,-2.0733,-2.0818,-2.0963,-2.1381,-2.2366,-2.2936,-2.3916,-2.5902,0.0,0.0,0.0,0.0,0.0,0.0,0.0,0.0,0.0,0.0,0.0,0.0,-3.0869,-3.0888,-3.0582,-3.0045,-2.9694,-2.9542,-2.918,-2.8759,-2.8257,-2.8257,-2.807,-2.7679,-2.7567,-2.7497,-2.7485,0.0,0.0,0.0,-2.7399,-2.7254,-2.699,-2.6966,-2.653,-2.5947,-2.5756,-2.5469,-2.5147,-2.5147,-2.5218,-2.5371,-2.5371,-2.5488,-2.572,-2.6214,-2.6731,-2.7188,-2.7188,-2.7025,-2.6729,-2.6058,-2.5314,-2.4697,-2.4679,-2.4374,-2.4147,-2.4276,-2.4421,-2.4507,-2.4507,-2.4708,-2.4878,-2.4878,-2.5033,-2.5145,-2.5145,-2.5201,-2.5229,-2.5229,-2.5257,-2.5285,-2.5285,-2.5053,-2.4856,-2.4729,-2.4038,-2.3441,-2.3052,-2.2666,-2.2405,-2.2208,-2.2208,-2.2208,-2.2208,-2.2208,-2.2254,-2.2347,-2.2347,-2.2394,-2.2486,-2.2486,-2.2486,-2.6365,-2.698,-2.7424,-2.6229,-2.5554,-2.4701,0.0,-2.205,-2.1538,-2.061,-2.0572,-2.0701,-2.0701,-2.1072,-2.1565,-2.2047,-2.2505,-2.3428,-2.5152,0.0,0.0,0.0,0.0,0.0,0.0,0.0,0.0,0.0,0.0,0.0,0.0,-2.9515,-2.9515,-2.9515,-2.8987,-2.8482,-2.8042,-2.8031,-2.7736,-2.7201,-2.7201,-2.719,-2.7167,-2.6743,-2.6513,0.0,0.0,0.0,0.0,-2.5727,-2.582,-2.598,-2.5431,-2.5394,-2.5532,-2.5026,-2.4801,-2.479,-2.479,-2.479,-2.479,-2.479,-2.4909,-2.4921,-2.4456,-2.5306,-2.6414,-2.6414,-2.5936,-2.5195,-2.4287,-2.4016,-2.3908,-2.35,-2.3526,-2.3607,-2.3607,-2.3725,-2.38,-2.38,-2.3959,-2.4102,-2.4102,-2.4205,-2.4321,-2.4321,-2.4492,-2.462,-2.462,-2.4734,-2.4806,-2.4806,-2.5033,-2.5011,-2.4543,-2.4675,-2.4225,-2.2978,-2.3038,-2.2817,-2.2222,-2.2208,-2.2208,-2.2208,-2.2208,-2.2208,-2.2208,-2.2208,-2.2208,-2.2208,-2.2208,-2.2208,-2.4768,-2.5039,-2.4977,-2.432,-2.3528,-2.2628,-2.1364,-2.072,-2.0281,-1.9776,-1.9714,-1.9846,-2.0107,-2.0621,-2.1206,-2.1851,-2.2445,-2.3343,0.0,0.0,0.0,0.0,0.0,0.0,0.0,0.0,0.0,0.0,0.0,0.0,0.0,-2.836,-2.8307,-2.8941,-2.8471,-2.8138,-2.7977,-2.7644,-2.7392,-2.719,-2.719,-2.7047,-2.6703,-2.6582,0.0,0.0,0.0,0.0,0.0,-2.5716,-2.5536,-2.5217,-2.5056,-2.4828,-2.4638,-2.4439,-2.4381,-2.4381,-2.4381,-2.4381,-2.4381,-2.4381,-2.4174,-2.3909,-2.3886,-2.4478,-2.5088,-2.4731,-2.4209,-2.3689,-2.3399,-2.3025,-2.2751,-2.2733,-2.2744,-2.2811,-2.2907,-2.2955,-2.3027,-2.3155,-2.3322,-2.3458,-2.3586,-2.3721,-2.3813,-2.3813,-2.3959,-2.4047,-2.4047,-2.4205,-2.4363,-2.445,-2.4523,-2.4684,-2.4956,-2.4736,-2.4416,-2.4029,-2.3666,-2.3398,-2.3303,-2.3214,-2.3189,-2.3289,-2.3189,-2.2956,-2.2537,-2.2537,-2.2376,-2.2067,-2.2067,-2.2114,-2.2602,-2.2906,-2.2766,-2.2186,-2.1606,0.0,-2.0042,-1.965,-1.9383,-1.9057,-1.9176,-1.9424,-1.976,-2.0416,-2.1099,-2.1623,-2.2176,-2.3038,0.0,0.0,0.0,0.0,0.0,0.0,0.0,0.0,0.0,0.0,0.0,0.0,0.0,-2.7508,-2.7388,-2.7884,-2.7641,-2.7482,-2.7482,-2.6951,-2.6649,-2.6649,-2.6496,-2.6246,-2.5966,-2.5784,0.0,0.0,0.0,0.0,0.0,-2.4915,-2.471,-2.4414,-2.4488,-2.4342,-2.4091,-2.4164,-2.42,-2.42,-2.42,-2.42,-2.4166,-2.3971,-2.3407,-2.2868,-2.2994,-2.3544,-2.401,-2.346,-2.3013,-2.267,-2.2544,-2.2194,-2.1956,-2.208,-2.2154,-2.2173,-2.2242,-2.2292,-2.2384,-2.2512,-2.2641,-2.2793,-2.2939,-2.3078,-2.3143,-2.3143,-2.3267,-2.3386,-2.3458,-2.3607,-2.3796,-2.3956,-2.4002,-2.4192,-2.4551,-2.4596,-2.4546,-2.4354,-2.4037,-2.3826,-2.3735,-2.3644,-2.3644,-2.3721,-2.3644,-2.3425,-2.3039,-2.2815,-2.2436,-2.1926,-2.1926,-2.1973,0.0,-2.0647,-2.0745,-2.0035,0.0,0.0,-1.8799,-1.8709,0.0,-1.8488,-1.8906,-1.9392,-1.9589,-2.0385,-2.1114,-2.1287,-2.1722,0.0,0.0,0.0,0.0,0.0,0.0,0.0,0.0,0.0,0.0,0.0,0.0,0.0,0.0,-2.685,-2.6692,-2.6434,-2.6431,-2.6472,-2.6547,-2.6024,-2.5726,-2.5726,-2.5307,-2.5099,-2.5054,-2.4621,0.0,0.0,0.0,0.0,0.0,-2.3593,-2.3593,-2.3641,-2.3824,-2.3897,-2.3897,-2.408,-2.4164,-2.4164,-2.4164,-2.4129,-2.4015,-2.3476,-2.2662,-2.1883,-2.1848,-2.2468,-2.306,-2.2556,-2.2274,-2.2071,-2.1764,-2.1517,-2.1431,-2.1624,-2.1667,-2.1667,-2.1667,-2.1749,-2.1862,-2.1862,-2.203,-2.2166,-2.2214,-2.2327,-2.2407,-2.2407,-2.2537,-2.2653,-2.2818,-2.2932,-2.3113,-2.33,-2.3454,-2.3518,-2.3518,-2.4263,-2.4536,-2.4108,-2.4205,-2.4122,-2.3692,-2.3678,-2.3678,-2.3664,-2.3597,-2.3583,-2.3569,-2.2935,-2.2366,-2.1838,-2.1797,-2.1769,-1.7891,0.0,-1.9141,-1.8682,-1.8541,-1.8407,0.0,-1.782,-1.785,-1.7862,-1.8261,-1.8633,-1.8809,-1.969,-2.0474,-2.068,-2.1244,0.0,0.0,0.0,0.0,0.0,0.0,0.0,0.0,0.0,0.0,0.0,0.0,0.0,0.0,-2.5126,-2.4816,-2.4792,-2.4592,-2.4945,-2.599,-2.5508,-2.5251,-2.5251,-2.5128,-2.4909,-2.4576,-2.4464,0.0,0.0,0.0,0.0,-2.3593,-2.3593,-2.3593,-2.3593,-2.3641,-2.3666,-2.3677,-2.3714,-2.3751,-2.3751,-2.3751,-2.3503,-2.3065,-2.2343,-2.1945,-2.1705,-2.1436,-2.1518,-2.1663,-2.1536,-2.147,-2.1415,-2.1331,-2.1285,-2.1253,-2.1296,-2.1328,-2.1328,-2.1328,-2.1348,-2.138,-2.1494,-2.1557,-2.1749,-2.2256,-2.2379,-2.2411,-2.2411,-2.2571,-2.2555,-2.219,-2.2297,-2.2482,-2.2635,-2.2653,-2.272,-2.2816,-2.3564,-2.3995,-2.388,-2.4138,-2.4285,-2.4292,-2.4333,-2.4333,-2.4278,-2.3628,-2.3347,-2.3444,-2.2444,-2.2023,-2.2165,-2.1713,-2.1544,-1.7038,-1.7467,-1.7817,-1.7603,-1.7546,-1.749,-1.7276,-1.722,-1.7289,-1.7442,0.0,0.0,-1.8603,-1.9406,0.0,0.0,-2.0689,0.0,0.0,0.0,0.0,0.0,0.0,0.0,0.0,0.0,0.0,0.0,0.0,0.0,0.0,-2.3563,-2.3402,-2.3597,-2.3261,-2.365,-2.4854,-2.4434,-2.4154,-2.4037,-2.3924,-2.3684,-2.3346,-2.3421,-2.3317,0.0,0.0,0.0,-2.3075,-2.315,-2.3187,-2.3187,-2.3298,-2.3335,-2.3335,-2.3446,-2.3349,-2.3148,-2.3257,-2.281,-2.2149,-2.1699,-2.1417,-2.1223,-2.1037,-2.0999,-2.1094,-2.1158,-2.119,-2.1247,-2.1456,-2.1374,-2.1259,-2.1456,-2.1374,-2.119,-2.119,-2.119,-2.1221,-2.1273,-2.1305,-2.1499,-2.2064,-2.2178,-2.2259,-2.2492,-2.2428,-2.2248,-2.2074,-2.191,-2.1894,-2.2061,-2.2092,-2.2111,-2.218,-2.2647,-2.31,-2.3446,-2.3653,-2.3842,-2.4076,-2.4118,-2.4118,-2.4076,-2.3631,-2.3288,-2.3085,-2.2515,-2.2232,-2.2194,-2.194,-2.1857,-1.676,-1.6841,-1.693,-1.6965,-1.7046,-1.7092,-1.7092,-1.7092,-1.7127,0.0,0.0,0.0,0.0,-1.9229,0.0,0.0,0.0,0.0,0.0,0.0,0.0,0.0,0.0,0.0,0.0,0.0,0.0,0.0,0.0,0.0,0.0,-2.2056,-2.2158,-2.2473,-2.2069,-2.2295,-2.3194,-2.2955,-2.2738,-2.2533,-2.2328,-2.2138,-2.1987,-2.2103,-2.2184,0.0,0.0,0.0,-2.2115,-2.2301,-2.2376,-2.2376,-2.2561,-2.2635,-2.2635,-2.282,-2.263,-2.2328,-2.2475,-2.1943,-2.123,-2.1219,-2.0917,-2.0625,-2.0669,-2.0786,-2.0926,-2.1165,-2.1284,-2.1431,-2.1904,-2.172,-2.1512,-2.1814,-2.1594,-2.1293,-2.1213,-2.119,-2.119,-2.119,-2.119,-2.1385,-2.1939,-2.2009,-2.2191,-2.265,-2.2317,-2.2017,-2.2064,-2.1646,-2.1443,-2.1604,-2.1635,-2.1635,-2.1635,-2.1718,-2.2087,-2.2816,-2.2937,-2.3118,-2.3416,-2.3429,-2.3429,-2.3429,-2.3412,-2.3141,-2.2642,-2.2697,-2.2529,-2.2108,-2.2168,-2.2198,-1.6377,-1.6652,-1.6965,-1.7332,-1.7669,-1.7898,-1.7898,-1.7898,-1.7898,0.0,0.0,0.0,0.0,-1.8578,0.0,0.0,0.0,0.0,0.0,0.0,0.0,0.0,0.0,0.0,0.0,0.0,0.0,0.0,0.0,0.0,0.0,-2.0705,-2.0642,-2.0723,-2.0415,-2.0341,-2.0487,-2.1316,-2.1632,-2.1458,-2.1387,-2.1357,-2.1346,-2.1148,-2.1038,0.0,0.0,-2.0803,-2.0803,-2.0839,-2.0839,-2.0839,-2.0874,-2.0874,-2.0874,-2.091,-2.1001,-2.1027,-2.0807,-2.0606,-2.0447,-2.0347,-2.0259,-2.028,-2.0593,-2.0701,-2.0823,-2.125,-2.1561,-2.1927,-2.2432,-2.2535,-2.2352,-2.1974,-2.1825,-2.1686,-2.1282,-2.119,-2.119,-2.119,-2.119,-2.1489,-2.2431,-2.257,-2.2627,-2.2696,-2.265,-2.2282,-2.1452,-2.1267,-2.1221,-2.1265,-2.1296,-2.1296,-2.1296,-2.1296,-2.1411,-2.1639,-2.218,-2.258,-2.2756,-2.2628,-2.2592,-2.2592,-2.2482,-2.2445,-2.2439,-2.2122,-2.2043,-2.2162,-2.1863,-2.1703,-1.6272,-1.6626,-1.7044,-1.7414,-1.7648,-1.7783,-1.7783,-1.7783,-1.7746,0.0,0.0,0.0,0.0,0.0,0.0,0.0,0.0,0.0,0.0,0.0,0.0,0.0,0.0,0.0,0.0,0.0,0.0,0.0,0.0,0.0,0.0,0.0,-1.9474,-1.9577,-1.9252,-1.907,-1.907,-1.9412,-1.9725,-2.0062,-2.0167,-2.004,-1.9731,-1.974,-1.9772,-1.9882,0.0,-1.9831,-1.9893,-2.0021,-2.0057,-2.0057,-2.0057,-2.0057,-2.0063,-1.9869,-1.9918,-2.0056,-1.9755,-1.9666,-1.9658,-1.9592,-1.9616,-1.9693,-1.99,-2.0107,-2.0401,-2.0963,-2.1375,-2.1754,-2.2241,-2.223,-2.2047,-2.1831,-2.1655,-2.1525,-2.1571,-2.1385,-2.1282,-2.1525,-2.1385,-2.1431,-2.2145,-2.2271,-2.2363,-2.2673,-2.2444,-2.2111,-2.164,-2.1374,-2.119,-2.119,-2.119,-2.119,-2.119,-2.119,-2.1253,-2.1388,-2.1788,-2.2049,-2.2118,-2.2049,-2.203,-2.203,-2.1968,-2.1949,-2.203,-2.1902,-2.1922,-2.2049,-2.1967,-2.1916,-1.6026,-1.6385,-1.6806,-1.7125,-1.7441,-1.7681,-1.7778,-1.7796,-1.7758,-1.772,0.0,0.0,0.0,0.0,0.0,0.0,0.0,0.0,0.0,0.0,0.0,0.0,0.0,0.0,0.0,0.0,0.0,0.0,0.0,0.0,0.0,0.0,-1.8338,-1.8487,-1.8223,-1.8062,-1.8062,-1.7776,-1.8012,-1.8739,-1.8919,-1.8742,-1.8286,-1.8395,-1.8494,-1.8649,-1.859,-1.8687,-1.8831,-1.8984,-1.903,-1.903,-1.903,-1.903,-1.9027,-1.8804,-1.8839,-1.8937,-1.8775,-1.8731,-1.8798,-1.8831,-1.8942,-1.9075,-1.9142,-1.9407,-1.9767,-2.045,-2.086,-2.1251,-2.1933,-2.1913,-2.171,-2.1631,-2.1433,-2.1348,-2.1715,-2.1487,-2.136,-2.1715,-2.1487,-2.1371,-2.1727,-2.1784,-2.1921,-2.2331,-2.2035,-2.175,-2.1701,-2.1335,-2.1158,-2.119,-2.119,-2.119,-2.119,-2.119,-2.1253,-2.1368,-2.1486,-2.1561,-2.1561,-2.1561,-2.1561,-2.1561,-2.1561,-2.1561,-2.1561,-2.1706,-2.1788,-2.18,-2.1999,-2.2061,-1.5275,-1.5585,-1.5968,-1.6304,-1.7214,-1.8151,-1.8523,-1.8612,-1.8572,-1.8355,0.0,0.0,0.0,0.0,0.0,0.0,0.0,0.0,0.0,0.0,0.0,0.0,0.0,0.0,0.0,0.0,0.0,0.0,0.0,0.0,0.0,0.0,0.0,-1.7033,-1.7008,-1.6991,-1.6991,-1.6965,-1.72,-1.7696,-1.7734,-1.7716,-1.768,-1.7405,-1.7334,-1.7316,-1.7156,-1.706,-1.7095,-1.7095,-1.7095,-1.7095,-1.7095,-1.7095,-1.713,-1.7292,-1.7351,-1.7376,-1.7486,-1.7647,-1.7842,-1.8003,-1.8216,-1.8438,-1.8741,-1.8875,-1.9011,-1.9702,-2.0033,-2.0482,-2.1841,-2.216,-2.2037,-2.152,-2.1407,-2.1396,-2.1442,-2.1419,-2.1408,-2.1442,-2.1419,-2.1397,-2.1441,-2.1441,-2.1452,-2.1486,-2.1464,-2.1306,-2.1016,-2.0958,-2.0999,-2.119,-2.119,-2.119,-2.119,-2.119,-2.119,-2.1221,-2.1221,-2.1233,-2.1233,-2.1233,-2.1233,-2.1233,-2.1233,-2.1233,-2.1233,-2.1368,-2.1431,-2.1431,-2.1643,-2.173,-1.482,-1.4953,-1.5194,-1.5775,-1.6278,-1.6843,-1.7702,-1.7878,-1.7878,-1.7797,-1.7797,0.0,0.0,0.0,0.0,0.0,0.0,0.0,0.0,0.0,0.0,0.0,0.0,0.0,0.0,0.0,0.0,0.0,0.0,0.0,0.0,0.0,0.0,-1.688,-1.6687,-1.6604,-1.6604,-1.6336,-1.6177,-1.6122,-1.6555,-1.6668,-1.6478,-1.6366,-1.6395,-1.6519,-1.6448,-1.6456,-1.6525,-1.6525,-1.6525,-1.6525,-1.6525,-1.6525,-1.6551,-1.6751,-1.6821,-1.6855,-1.7038,-1.7141,-1.721,-1.7304,-1.7442,-1.7647,-1.7784,-1.7954,-1.8187,-1.8584,-1.8907,-1.9383,-2.0696,-2.1202,-2.1284,-2.0885,-2.0763,-2.0941,-2.1507,-2.1096,-2.0776,-2.1404,-2.1018,-2.0588,-2.0577,-2.0687,-2.0763,-2.0763,-2.0861,-2.0935,-2.0777,-2.0786,-2.0786,-2.0882,-2.0882,-2.0882,-2.0882,-2.0882,-2.0914,-2.0999,-2.1126,-2.119,-2.119,-2.119,-2.119,-2.119,-2.1094,-2.0999,-2.0999,-2.0967,-2.0967,-2.0978,-2.1053,-2.1097,-1.4245,-1.4323,-1.4539,-1.5149,-1.5374,-1.5685,-1.6554,-1.6976,-1.7188,-1.731,-1.7351,-1.7432,0.0,0.0,0.0,0.0,0.0,0.0,0.0,0.0,0.0,0.0,0.0,0.0,0.0,0.0,0.0,0.0,0.0,0.0,0.0,0.0,0.0,0.0,-1.631,-1.615,-1.6029,-1.5745,-1.5429,-1.5052,-1.5566,-1.5745,-1.5617,-1.5617,-1.5747,-1.6,-1.6,-1.607,-1.614,-1.614,-1.614,-1.614,-1.614,-1.614,-1.6175,-1.6307,-1.6342,-1.6377,-1.6491,-1.6595,-1.6665,-1.6665,-1.676,-1.6925,-1.6994,-1.7157,-1.7398,-1.7604,-1.7867,-1.8309,-1.9243,-1.9948,-2.0311,-2.0052,-2.0009,-2.0259,-2.1018,-2.057,-2.021,-2.0911,-2.0468,-1.9952,-1.9802,-1.9933,-2.0042,-2.0042,-2.027,-2.0464,-2.0496,-2.0518,-2.0518,-2.0518,-2.0572,-2.0604,-2.0604,-2.0669,-2.0733,-2.085,-2.0978,-2.1074,-2.1094,-2.1094,-2.1094,-2.1042,-2.0914,-2.0839,-2.0839,-2.0733,-2.0701,-2.0701,-2.0701,-2.0701,-1.3492,-1.3689,-1.3972,-1.4292,-1.4619,-1.498,-1.5328,-1.6064,-1.6771,-1.7009,-1.7261,-1.74,-1.7392,0.0,0.0,0.0,0.0,0.0,0.0,0.0,0.0,0.0,0.0,0.0,0.0,0.0,0.0,0.0,0.0,0.0,0.0,0.0,0.0,0.0,-1.5788,-1.5608,-1.5215,-1.5206,-1.5035,-1.4675,-1.4675,-1.4863,-1.5206,-1.5206,-1.542,-1.5797,-1.5797,-1.5797,-1.5805,-1.5805,-1.5805,-1.5805,-1.5805,-1.5805,-1.5805,-1.5805,-1.5805,-1.5805,-1.5805,-1.5929,-1.6096,-1.6096,-1.6202,-1.6342,-1.6542,-1.6603,-1.6647,-1.683,-1.7038,-1.727,-1.7604,-1.8496,-1.9252,-1.9108,-1.9208,-1.9377,-1.9734,-1.9793,-1.9793,-1.9793,-1.9793,-1.9647,-1.9181,-1.9208,-1.9274,-1.9274,-1.9648,-1.9933,-2.0074,-2.0107,-2.0107,-2.0107,-2.0259,-2.0378,-2.0378,-2.0572,-2.0701,-2.0701,-2.0701,-2.0754,-2.0903,-2.0903,-2.0839,-2.0701,-2.0701,-2.0701,-2.0701,-2.0701,-2.0701,-2.0701,-2.0701,-2.0701,-1.2673,-1.2855,0.0,-1.3459,0.0,0.0,0.0,-1.5144,0.0,0.0,-1.6147,-1.6312,-1.6648,0.0,0.0,0.0,0.0,0.0,0.0,0.0,0.0,0.0,0.0,0.0,0.0,0.0,0.0,0.0,0.0,0.0,0.0,0.0,0.0,0.0,-1.5146,-1.4958,-1.4846,-1.4846,-1.4649,-1.4273,-1.4273,-1.447,-1.4846,-1.4846,-1.5043,-1.5394,-1.5394,-1.5548,-1.5805,-1.5805,-1.5805,-1.5805,-1.5805,-1.5805,-1.5805,-1.5805,-1.5805,-1.5805,-1.5805,-1.5832,-1.5903,-1.5903,-1.5903,-1.5973,-1.6035,-1.614,-1.6272,-1.6307,-1.6542,-1.6811,-1.6915,-1.7364,-1.7978,-1.8553,-1.863,-1.8694,-1.9093,-1.8814,-1.8626,-1.8944,-1.8755,-1.8496,-1.8367,-1.8563,-1.8754,-1.8754,-1.9164,-1.9473,-1.9539,-1.9462,-1.9396,-1.9396,-1.9462,-1.9506,-1.9615,-1.9681,-1.9868,-2.0248,-2.0194,-2.0335,-2.0722,-2.0754,-2.0733,-2.0701,-2.0421,-2.028,-2.028,-2.0031,-1.9944,-1.9944,-1.9944,-1.9944,-1.219,-1.2432,0.0,-1.3047,-1.3302,-1.3563,-1.3769,0.0,0.0,0.0,0.0,0.0,0.0,0.0,0.0,0.0,0.0,0.0,0.0,0.0,0.0,0.0,0.0,0.0,0.0,0.0,0.0,0.0,0.0,0.0,0.0,0.0,0.0,0.0,-1.4795,-1.4607,-1.4453,-1.4453,-1.4256,-1.3862,-1.3862,-1.399,-1.4221,-1.4384,-1.4649,-1.5,-1.5,-1.5215,-1.5566,-1.5566,-1.566,-1.5805,-1.5805,-1.5805,-1.5805,-1.5805,-1.5805,-1.5805,-1.5805,-1.5805,-1.5805,-1.5805,-1.5805,-1.5805,-1.5805,-1.5867,-1.5964,-1.5964,-1.6132,-1.6307,-1.6368,-1.6577,-1.6959,-1.7706,-1.7852,-1.792,-1.8077,-1.7804,-1.764,-1.7932,-1.777,-1.7598,-1.7657,-1.7876,-1.807,-1.8172,-1.8596,-1.8908,-1.8965,-1.8865,-1.8741,-1.8674,-1.8741,-1.8831,-1.8965,-1.9075,-1.9264,-1.9682,-1.9627,-1.9736,-2.0042,-2.027,-2.0302,-2.014,-1.99,-1.9748,-1.9715,-1.9495,-1.9407,-1.9407,-1.9407,-1.9407,-1.1884,-1.2219,-1.2548,-1.2801,-1.3044,0.0,-1.327,-1.3747,-1.4231,-1.4525,0.0,0.0,0.0,0.0,0.0,0.0,0.0,0.0,0.0,0.0,0.0,0.0,0.0,0.0,0.0,0.0,0.0,0.0,0.0,0.0,0.0,0.0,0.0,-1.4632,-1.4598,-1.4377,-1.3987,-1.401,-1.3831,0.0,-1.345,-1.345,-1.3459,-1.3848,-1.4256,-1.4665,-1.4667,-1.4863,-1.5163,-1.5163,-1.5377,-1.5703,-1.5703,-1.5703,-1.5703,-1.5737,-1.5745,-1.5754,-1.5788,-1.5805,-1.5805,-1.5805,-1.5805,-1.5805,-1.5805,-1.5805,-1.5805,-1.5805,-1.5805,-1.5832,-1.6035,-1.6061,-1.6211,-1.67,-1.6968,-1.7063,-1.6864,-1.6839,-1.6839,-1.6839,-1.6839,-1.6899,-1.7107,-1.7235,-1.7442,-1.7672,-1.7988,-1.8269,-1.8408,-1.8327,-1.8168,-1.7974,-1.811,-1.8293,-1.8408,-1.8596,-1.8798,-1.8998,-1.9008,-1.9008,-1.9042,-1.9539,-1.9638,-1.9241,-1.9241,-1.9175,-1.9042,-1.9008,-1.8998,-1.8998,-1.8998,-1.8998,-1.0845,-1.1208,0.0,0.0,-1.1992,-1.2295,-1.2295,-1.2301,-1.2522,0.0,0.0,0.0,0.0,0.0,0.0,0.0,0.0,0.0,0.0,0.0,0.0,0.0,0.0,0.0,0.0,0.0,0.0,0.0,0.0,0.0,0.0,0.0,0.0,-1.4062,-1.376,-1.3473,-1.3258,-1.3258,-1.3186,0.0,-1.3103,-1.3103,-1.3103,-1.3483,-1.3853,-1.4238,-1.4555,-1.4726,-1.4804,-1.4804,-1.4846,-1.4923,-1.4923,-1.4923,-1.4958,-1.5232,-1.5343,-1.5386,-1.5694,-1.5805,-1.5805,-1.5805,-1.5805,-1.5805,-1.5805,-1.5805,-1.5805,-1.5805,-1.5805,-1.5797,-1.5867,-1.5867,-1.5903,-1.6008,-1.6281,-1.6482,-1.6447,-1.6421,-1.6421,-1.6421,-1.6421,-1.6447,-1.6482,-1.6795,-1.7176,-1.7638,-1.7691,-1.7725,-1.7842,-1.7759,-1.7676,-1.7608,-1.7642,-1.7735,-1.7876,-1.791,-1.809,-1.8438,-1.8303,-1.8303,-1.8472,-1.9008,-1.9175,-1.8908,-1.8754,-1.862,-1.8472,-1.8303,-1.8245,-1.8245,-1.8245,-1.8245,-1.0673,-1.0901,0.0,-1.1439,0.0,-1.1966,-1.1883,-1.1794,0.0,0.0,0.0,0.0,0.0,0.0,0.0,0.0,0.0,0.0,0.0,0.0,0.0,0.0,0.0,0.0,0.0,0.0,0.0,0.0,0.0,0.0,0.0,-1.3624,-1.3486,-1.3486,-1.3272,-1.3111,-1.2989,-1.2928,-1.2897,-1.2897,-1.2897,-1.2928,-1.3019,-1.3285,-1.3539,-1.3827,-1.4033,-1.423,-1.4401,-1.4401,-1.4512,-1.4684,-1.4684,-1.4684,-1.4709,-1.4889,-1.4958,-1.4992,-1.5197,-1.5377,-1.5523,-1.5523,-1.5651,-1.5805,-1.5805,-1.5805,-1.5805,-1.5805,-1.5805,-1.5805,-1.5805,-1.5805,-1.5805,-1.5805,-1.5938,-1.607,-1.607,-1.607,-1.607,-1.607,-1.607,-1.6105,-1.6202,-1.6412,-1.6726,-1.7123,-1.7028,-1.7012,-1.727,-1.7176,-1.7107,-1.7185,-1.722,-1.7289,-1.7442,-1.7467,-1.7579,-1.7906,-1.7803,-1.7803,-1.7906,-1.8202,-1.8303,-1.8259,-1.8182,-1.8056,-1.7906,-1.7803,-1.7769,-1.7769,-1.7769,-1.7769,-1.0609,-1.0728,-1.0903,-1.1396,-1.1626,0.0,-1.1555,-1.1475,0.0,0.0,0.0,0.0,0.0,0.0,0.0,0.0,0.0,0.0,0.0,0.0,0.0,0.0,0.0,0.0,0.0,0.0,0.0,0.0,0.0,0.0,-1.3148,-1.2959,-1.2889,-1.2889,-1.2889,-1.2858,-1.2797,-1.2674,-1.2613,-1.259,-1.2613,-1.2736,-1.2928,-1.3089,-1.3294,-1.348,-1.348,-1.3668,-1.399,-1.399,-1.4187,-1.4487,-1.4487,-1.4487,-1.4487,-1.4555,-1.4614,-1.4622,-1.4691,-1.4881,-1.512,-1.512,-1.5386,-1.5703,-1.5703,-1.5745,-1.5805,-1.5805,-1.5805,-1.5805,-1.5805,-1.5805,-1.5805,-1.5805,-1.5805,-1.5805,-1.5805,-1.5805,-1.5805,-1.5805,-1.5805,-1.5867,-1.6061,-1.6202,-1.6342,-1.6508,-1.6412,-1.6412,-1.676,-1.6647,-1.6612,-1.6769,-1.683,-1.6934,-1.7097,-1.7132,-1.721,-1.7401,-1.7401,-1.7401,-1.7401,-1.7401,-1.7461,-1.7579,-1.7604,-1.7545,-1.7401,-1.7401,-1.7401,-1.7401,-1.7401,-1.7401,-0.9774,0.0,-1.0437,0.0,-1.0789,-1.0765,0.0,0.0,0.0,0.0,0.0,0.0,0.0,0.0,0.0,0.0,0.0,0.0,0.0,0.0,0.0,0.0,0.0,0.0,0.0,0.0,0.0,0.0,0.0,0.0,-1.2437,-1.2421,-1.2398,-1.2398,-1.2398,-1.2243,-1.1957,-1.1926,-1.1872,-1.1747,-1.1864,-1.2182,-1.2652,-1.2683,-1.2936,-1.3333,-1.3333,-1.341,-1.3588,-1.3588,-1.3613,-1.3665,-1.3665,-1.3665,-1.3708,-1.405,-1.4179,-1.4221,-1.4564,-1.4718,-1.4761,-1.4761,-1.5,-1.5292,-1.5292,-1.5531,-1.5805,-1.5805,-1.5805,-1.5805,-1.5805,-1.5805,-1.5805,-1.5805,-1.5805,-1.5805,-1.5805,-1.5805,-1.5805,-1.5805,-1.5805,-1.5867,-1.6061,-1.6096,-1.6167,-1.6307,-1.6307,-1.6307,-1.6377,-1.6342,-1.6342,-1.6377,-1.6542,-1.6638,-1.6673,-1.683,-1.6943,-1.6978,-1.6978,-1.6978,-1.6978,-1.6978,-1.6978,-1.7003,-1.7166,-1.7176,-1.6978,-1.6978,-1.6978,-1.6978,-1.6978,-1.6978,-0.9431,-0.97,-0.9995,0.0,-1.0174,-1.0277,-1.0266,0.0,0.0,0.0,0.0,0.0,0.0,0.0,0.0,0.0,0.0,0.0,0.0,0.0,0.0,0.0,0.0,0.0,0.0,0.0,0.0,0.0,0.0,-1.2114,-1.1973,-1.1711,-1.1615,-1.1747,-1.1646,-1.149,-1.1365,-1.1272,-1.1209,-1.1153,-1.1341,-1.1622,-1.2058,-1.222,-1.2621,-1.3119,-1.3119,-1.3233,-1.3376,-1.3376,-1.3428,-1.3511,-1.3511,-1.3511,-1.3528,-1.3708,-1.3768,-1.3793,-1.3964,-1.417,-1.4358,-1.4358,-1.4607,-1.4915,-1.4915,-1.518,-1.5471,-1.5471,-1.5634,-1.5805,-1.5805,-1.5805,-1.5805,-1.5805,-1.5805,-1.5805,-1.5805,-1.5805,-1.5805,-1.5805,-1.5805,-1.5832,-1.5938,-1.5929,-1.5929,-1.6,-1.6008,-1.607,-1.6167,-1.6202,-1.6202,-1.6307,-1.6377,-1.6438,-1.6438,-1.6517,-1.6551,-1.6551,-1.6551,-1.6551,-1.6551,-1.6551,-1.6551,-1.6551,-1.6864,-1.7003,-1.6908,-1.6908,-1.6908,-1.6908,-1.6908,-1.6908,0.0,0.0,-0.9532,-0.9593,-0.9696,-0.9816,0.0,0.0,0.0,0.0,0.0,0.0,0.0,0.0,0.0,0.0,0.0,0.0,0.0,0.0,0.0,0.0,0.0,0.0,0.0,0.0,0.0,0.0,0.0,-1.1478,-1.1364,-1.1033,-1.0876,-1.0982,-1.0825,-1.0724,-1.0699,-1.0548,-1.0516,-1.0548,-1.0744,-1.1028,-1.1404,-1.1716,-1.2151,-1.2705,-1.2867,-1.305,-1.3211,-1.3211,-1.3294,-1.3359,-1.3359,-1.3359,-1.3359,-1.3359,-1.3398,-1.3459,-1.3459,-1.3677,-1.3947,-1.3947,-1.4213,-1.4538,-1.4538,-1.4855,-1.5215,-1.5215,-1.5497,-1.5805,-1.5805,-1.5805,-1.5805,-1.5805,-1.5805,-1.5805,-1.5805,-1.5805,-1.5805,-1.5805,-1.5805,-1.5805,-1.5805,-1.5805,-1.5805,-1.5805,-1.5805,-1.5867,-1.6,-1.6035,-1.607,-1.6175,-1.6211,-1.6237,-1.6237,-1.6272,-1.6307,-1.6307,-1.6307,-1.6307,-1.6307,-1.6307,-1.6307,-1.6307,-1.6586,-1.676,-1.683,-1.683,-1.6839,-1.6908,-1.6908,-1.6908,0.0,-0.9186,0.0,-0.9286,-0.9314,0.0,0.0,0.0,0.0,0.0,0.0,0.0,0.0,0.0,0.0,0.0,0.0,0.0,0.0,0.0,0.0,0.0,0.0,0.0,0.0,0.0,0.0,0.0,0.0,-1.0816,-1.0486,-1.0447,-1.0308,-1.0091,-1.0047,-0.999,-0.9869,-0.9678,-0.9678,-0.9869,-0.9977,-1.0333,-1.0839,-1.1059,-1.1404,-1.1895,-1.2521,-1.2897,-1.3019,-1.3019,-1.3019,-1.3042,-1.3042,-1.3042,-1.3042,-1.3042,-1.3141,-1.3302,-1.3302,-1.3424,-1.3536,-1.3536,-1.381,-1.4127,-1.4127,-1.4632,-1.5215,-1.5215,-1.5497,-1.5805,-1.5805,-1.5805,-1.5805,-1.5805,-1.5805,-1.5805,-1.5805,-1.5805,-1.5805,-1.5805,-1.5805,-1.5805,-1.5805,-1.5805,-1.5805,-1.5805,-1.5805,-1.5805,-1.5797,-1.5841,-1.5841,-1.5832,-1.6,-1.6096,-1.6096,-1.6237,-1.6307,-1.6307,-1.6307,-1.6307,-1.6307,-1.6307,-1.6307,-1.6307,-1.6307,-1.6447,-1.6603,-1.6603,-1.6716,-1.6908,-1.6908,-1.6908,0.0,0.0,0.0,-0.8718,-0.8835,-0.8937,0.0,0.0,0.0,0.0,0.0,0.0,0.0,0.0,0.0,0.0,0.0,0.0,0.0,0.0,0.0,0.0,0.0,0.0,0.0,0.0,0.0,0.0,0.0,0.0,-1.0412,-1.0008,-0.9747,-0.9757,-0.9485,-0.9332,-0.93,-0.9204,-0.9204,-0.93,-0.9466,-0.976,-1.018,-1.046,-1.0807,-1.1178,-1.149,-1.1988,-1.2552,-1.2552,-1.2613,-1.2705,-1.2828,-1.2867,-1.2867,-1.2958,-1.305,-1.3111,-1.3111,-1.3133,-1.3186,-1.3186,-1.3286,-1.3394,-1.3394,-1.3769,-1.4212,-1.4422,-1.4798,-1.5176,-1.5517,-1.5611,-1.5647,-1.5761,-1.5805,-1.5805,-1.5805,-1.5805,-1.5805,-1.5805,-1.5805,-1.5805,-1.5805,-1.5805,-1.5805,-1.5805,-1.5805,-1.5805,-1.5805,-1.5805,-1.5805,-1.5805,-1.5867,-1.5903,-1.5903,-1.5938,-1.5973,-1.5973,-1.5973,-1.5929,-1.578,-1.5788,-1.5744,-1.5594,-1.5594,-1.5877,-1.6412,-1.6412,-1.6447,-1.6517,-1.6517,-1.6517,-0.8277,0.0,0.0,0.0,0.0,-0.8552,0.0,0.0,0.0,0.0,0.0,0.0,0.0,0.0,0.0,0.0,0.0,0.0,0.0,0.0,0.0,0.0,0.0,0.0,0.0,0.0,0.0,0.0,0.0,0.0,-1.0117,-0.9722,-0.9434,-0.9371,-0.9102,-0.8913,-0.8829,-0.8829,-0.8829,-0.8829,-0.9022,-0.928,-0.9542,-0.9824,-1.0136,-1.0485,-1.0573,-1.1108,-1.1957,-1.1957,-1.205,-1.2212,-1.2398,-1.2459,-1.249,-1.2674,-1.2805,-1.2867,-1.2928,-1.292,-1.292,-1.292,-1.2897,-1.2828,-1.2828,-1.3173,-1.3564,-1.3802,-1.4271,-1.4777,-1.5156,-1.5377,-1.5541,-1.5761,-1.5805,-1.577,-1.5726,-1.5761,-1.5805,-1.5805,-1.5805,-1.577,-1.5726,-1.5691,-1.5691,-1.5611,-1.5611,-1.5611,-1.5611,-1.5611,-1.5611,-1.5611,-1.5655,-1.5691,-1.5611,-1.5655,-1.5691,-1.5611,-1.5611,-1.5541,-1.539,-1.5328,-1.5248,-1.5106,-1.5026,-1.5204,-1.563,-1.5885,-1.6061,-1.6132,-1.6132,-1.6132,0.0,0.0,0.0,0.0,0.0,0.0,0.0,0.0,0.0,0.0,0.0,0.0,0.0,0.0,0.0,0.0,0.0,0.0,0.0,0.0,0.0,0.0,0.0,0.0,0.0,0.0,0.0,0.0,0.0,-0.9825,-0.9604,-0.9619,-0.9398,-0.8922,-0.89,-0.8787,-0.8528,-0.8517,-0.8517,-0.8517,-0.8705,-0.8867,-0.8985,-0.921,-0.946,-0.9773,-0.9773,-1.0345,-1.124,-1.1272,-1.1404,-1.1591,-1.1716,-1.1771,-1.1833,-1.2151,-1.2398,-1.259,-1.2744,-1.2775,-1.2775,-1.2775,-1.2644,-1.2482,-1.2482,-1.2876,-1.3339,-1.3355,-1.3966,-1.466,-1.4684,-1.508,-1.5524,-1.5709,-1.5788,-1.5709,-1.5524,-1.5647,-1.577,-1.577,-1.577,-1.5726,-1.5541,-1.5497,-1.5426,-1.524,-1.5196,-1.5196,-1.5204,-1.5196,-1.5196,-1.5204,-1.539,-1.5426,-1.524,-1.539,-1.5426,-1.5204,-1.5204,-1.5169,-1.5161,-1.4963,-1.4864,-1.4872,-1.4641,-1.4453,-1.4266,-1.507,-1.5568,-1.5762,-1.5762,-1.5762,-0.8096,0.0,0.0,0.0,0.0,0.0,0.0,0.0,0.0,0.0,0.0,0.0,0.0,0.0,0.0,0.0,0.0,0.0,0.0,0.0,0.0,0.0,0.0,0.0,0.0,0.0,0.0,0.0,-0.9884,-0.989,-0.983,-0.9669,-0.9437,-0.912,-0.8981,-0.8863,-0.8803,-0.8597,-0.8517,-0.8517,-0.8544,-0.8673,-0.8861,-0.8926,-0.9055,-0.921,-0.921,-0.946,-0.9875,-1.039,-1.0618,-1.0713,-1.1122,-1.1341,-1.149,-1.1802,-1.2058,-1.222,-1.212,-1.2089,-1.2058,-1.1965,-1.1903,-1.184,-1.184,-1.2025,-1.2304,-1.2549,-1.2959,-1.3489,-1.4271,-1.469,-1.4945,-1.498,-1.5014,-1.498,-1.4937,-1.5171,-1.539,-1.539,-1.539,-1.5355,-1.5275,-1.5275,-1.5275,-1.5204,-1.507,-1.5034,-1.5169,-1.507,-1.5034,-1.5169,-1.524,-1.5275,-1.5204,-1.524,-1.5213,-1.5007,-1.4963,-1.482,-1.4418,-1.4346,-1.4173,-1.3891,-1.3702,-1.3557,-1.3521,-1.4274,-1.4661,-1.4732,-1.4848,-1.4919,0.0,0.0,0.0,0.0,0.0,0.0,-0.8125,-0.8113,0.0,0.0,0.0,0.0,0.0,0.0,0.0,0.0,0.0,0.0,0.0,0.0,0.0,0.0,0.0,0.0,0.0,0.0,0.0,-0.9884,-0.9884,-0.9884,-0.9884,-0.9793,-0.961,-0.9367,-0.9268,-0.91,-0.89,-0.876,-0.8608,-0.8517,-0.8517,-0.8549,-0.8673,-0.8673,-0.8705,-0.8797,-0.8797,-0.8861,-0.899,-0.9472,-0.9792,-1.0009,-1.0453,-1.0744,-1.0933,-1.1334,-1.1622,-1.1747,-1.1615,-1.1553,-1.1466,-1.131,-1.1216,-1.1185,-1.1185,-1.1341,-1.1565,-1.1755,-1.2295,-1.2997,-1.3947,-1.4375,-1.4552,-1.451,-1.4592,-1.4587,-1.4399,-1.4641,-1.4919,-1.5169,-1.5133,-1.507,-1.4955,-1.4883,-1.482,-1.4641,-1.4505,-1.4433,-1.4489,-1.4469,-1.4469,-1.4605,-1.4784,-1.4812,-1.474,-1.4812,-1.4748,-1.4477,-1.4441,-1.4217,-1.3731,-1.3622,-1.3448,-1.3119,-1.2936,-1.2783,-1.2709,-1.3368,-1.3768,-1.384,-1.3956,-1.4065,0.0,0.0,0.0,0.0,0.0,0.0,-0.8082,-0.7996,-0.7952,0.0,0.0,0.0,0.0,0.0,0.0,0.0,0.0,0.0,0.0,0.0,0.0,0.0,0.0,0.0,0.0,-0.9884,-0.9884,-0.9884,-0.9884,-0.9884,-0.9884,-0.9884,-0.9825,-0.9626,-0.963,-0.9398,-0.8938,-0.8911,-0.8782,-0.8517,-0.8517,-0.8517,-0.8517,-0.8517,-0.8517,-0.8517,-0.8517,-0.8517,-0.8517,-0.8705,-0.9022,-0.946,-0.9786,-1.0047,-1.0301,-1.0807,-1.109,-1.1209,-1.1209,-1.1122,-1.0965,-1.0776,-1.0618,-1.053,-1.053,-1.0744,-1.1028,-1.109,-1.1866,-1.2863,-1.3569,-1.4007,-1.4221,-1.4099,-1.4257,-1.432,-1.3909,-1.4077,-1.4425,-1.4883,-1.4856,-1.4721,-1.4497,-1.4389,-1.4181,-1.379,-1.3717,-1.3645,-1.3455,-1.3608,-1.3717,-1.3717,-1.4072,-1.4245,-1.4057,-1.4209,-1.4145,-1.3717,-1.3717,-1.3499,-1.3083,-1.29,-1.2709,-1.2489,-1.2305,-1.2114,-1.1892,-1.2526,-1.29,-1.3083,-1.3083,-1.32,0.0,0.0,0.0,0.0,0.0,0.0,-0.8179,-0.8184,-0.827,0.0,0.0,0.0,0.0,0.0,0.0,0.0,0.0,0.0,0.0,0.0,0.0,0.0,0.0,0.0,0.0,-0.9884,-0.9884,-0.9884,-0.9884,-0.9884,-0.9884,-0.9884,-0.99,-0.9852,-0.9674,-0.9437,-0.9141,-0.8987,-0.8782,-0.8517,-0.8517,-0.8517,-0.8517,-0.8517,-0.8517,-0.8517,-0.8517,-0.8517,-0.8517,-0.8549,-0.8705,-0.8958,-0.9306,-0.9632,-0.9926,-1.0149,-1.0428,-1.0713,-1.0555,-1.0491,-1.0428,-1.0206,-1.0142,-1.011,-1.011,-1.0276,-1.0555,-1.0965,-1.1605,-1.2262,-1.2667,-1.3028,-1.3258,-1.3234,-1.3264,-1.3294,-1.3192,-1.3444,-1.3674,-1.3593,-1.3819,-1.3935,-1.3746,-1.3674,-1.3601,-1.3346,-1.32,-1.3046,-1.301,-1.3046,-1.3119,-1.3309,-1.3528,-1.3674,-1.3637,-1.3637,-1.3492,-1.3083,-1.3083,-1.2826,-1.2261,-1.2187,-1.2077,-1.1892,-1.1669,-1.1484,-1.1298,-1.1892,-1.2187,-1.2224,-1.2415,-1.2489,0.0,0.0,0.0,-0.9066,0.0,0.0,0.0,-0.8389,-0.8351,-0.813,0.0,0.0,0.0,0.0,0.0,0.0,0.0,0.0,0.0,0.0,0.0,0.0,0.0,0.0,0.0,-0.9695,-0.9809,-0.9879,-0.9884,-0.9884,-0.9884,-0.9884,-0.9884,-0.9884,-0.9809,-0.9637,-0.9394,-0.9152,-0.8915,-0.8689,-0.8571,-0.8517,-0.8517,-0.8517,-0.8517,-0.8517,-0.8517,-0.8517,-0.8517,-0.8517,-0.8549,-0.8673,-0.8958,-0.9183,-0.944,-0.9658,-0.9951,-1.018,-1.0085,-1.0053,-1.0021,-0.983,-0.9766,-0.9766,-0.9766,-0.9894,-1.0149,-1.0593,-1.1146,-1.1676,-1.1874,-1.2319,-1.2627,-1.243,-1.2514,-1.262,-1.243,-1.2676,-1.2826,-1.2636,-1.2753,-1.2936,-1.3046,-1.2973,-1.282,-1.2636,-1.2526,-1.2415,-1.2305,-1.2378,-1.2489,-1.2599,-1.2783,-1.29,-1.29,-1.29,-1.2783,-1.2489,-1.2452,-1.2224,-1.1706,-1.1706,-1.1595,-1.1409,-1.1298,-1.1186,-1.1111,-1.1409,-1.1595,-1.1706,-1.1781,-1.1892,0.0,0.0,0.0,0.0,0.0,-0.9043,0.0,0.0,0.0,-0.8176,0.0,0.0,0.0,0.0,0.0,0.0,0.0,0.0,0.0,0.0,0.0,0.0,0.0,0.0,0.0,-0.9473,-0.9695,-0.9884,-0.9884,-0.9884,-0.9884,-0.9884,-0.9884,-0.9884,-0.9884,-0.9809,-0.9619,-0.933,-0.9093,-0.8895,-0.8624,-0.8517,-0.8517,-0.8517,-0.8517,-0.8517,-0.8517,-0.8517,-0.8517,-0.8517,-0.8517,-0.8511,-0.8673,-0.8835,-0.899,-0.9268,-0.9498,-0.9702,-0.9702,-0.9708,-0.9708,-0.9548,-0.9516,-0.9516,-0.9516,-0.9612,-0.9817,-1.0181,-1.0664,-1.1134,-1.1324,-1.1797,-1.2128,-1.1853,-1.1979,-1.2128,-1.1853,-1.1985,-1.2114,-1.1929,-1.1892,-1.2003,-1.2378,-1.2298,-1.2114,-1.1892,-1.1892,-1.1818,-1.1595,-1.1744,-1.1892,-1.1892,-1.2077,-1.2187,-1.2187,-1.2187,-1.2114,-1.1892,-1.1892,-1.1706,-1.1372,-1.1335,-1.126,-1.1111,-1.1111,-1.1111,-1.1111,-1.1111,-1.1186,-1.1335,-1.1335,-1.1446,0.0,0.0,0.0,0.0,-0.9561,0.0,0.0,0.0,-0.877,-0.8219,0.0,0.0,0.0,0.0,0.0,0.0,0.0,0.0,0.0,0.0,0.0,0.0,0.0,0.0,0.0,0.0,-0.9695,-0.9884,-0.9884,-0.9884,-0.9884,-0.9884,-0.9884,-0.9884,-0.9884,-0.9809,-0.9619,-0.933,-0.9093,-0.8895,-0.8624,-0.8517,-0.8517,-0.8517,-0.8517,-0.8517,-0.8517,-0.8517,-0.8517,-0.8517,-0.8517,-0.8517,-0.8517,-0.8641,-0.8835,-0.8867,-0.9087,-0.937,-0.937,-0.944,-0.9516,-0.9516,-0.9516,-0.9516,-0.9516,-0.9516,-0.9629,-1.0089,-1.0442,-1.0764,-1.1185,-1.155,-1.1774,-1.1705,-1.1755,-1.1774,-1.1705,-1.1755,-1.1706,-1.1521,-1.1484,-1.1558,-1.1744,-1.1781,-1.1706,-1.1484,-1.1484,-1.1409,-1.1186,-1.1335,-1.1484,-1.1484,-1.1632,-1.1781,-1.1781,-1.1781,-1.1669,-1.1484,-1.1484,-1.1372,-1.1149,-1.1149,-1.1111,-1.1111,-1.1111,-1.1111,-1.1111,-1.1111,-1.1111,-1.1149,-1.1149,-1.1149,0.0,0.0,0.0,0.0,0.0,0.0,0.0,0.0,-0.9018,0.0,0.0,0.0,0.0,0.0,0.0,0.0,0.0,0.0,0.0,0.0,0.0,0.0,0.0,0.0,0.0,0.0,0.0,0.0,-0.9884,-0.9884,-0.9884,-0.9884,-0.9884,-0.9884,-0.9884,-0.9873,-0.9776,-0.954,-0.9303,-0.906,-0.8829,-0.8646,-0.8517,-0.8517,-0.8517,-0.8517,-0.8517,-0.8517,-0.8517,-0.8517,-0.8517,-0.8517,-0.8517,-0.8544,-0.8641,-0.877,-0.8926,-0.9145,-0.9274,-0.9376,-0.9516,-0.9516,-0.9516,-0.9516,-0.9516,-0.9624,-0.9763,-0.9971,-1.0339,-1.0687,-1.091,-1.1132,-1.1335,-1.1335,-1.1335,-1.1335,-1.1335,-1.1335,-1.1335,-1.1223,-1.1223,-1.126,-1.1335,-1.1335,-1.1335,-1.1223,-1.1223,-1.1186,-1.1111,-1.1186,-1.1223,-1.1223,-1.1298,-1.1335,-1.1335,-1.1335,-1.1335,-1.1223,-1.1223,-1.1186,-1.1111,-1.1111,-1.1111,-1.1111,-1.1111,-1.1111,-1.1111,-1.1111,-1.1111,-1.1111,-1.1111,-1.1111,-0.9287,0.0,0.0,0.0,0.0,0.0,0.0,0.0,0.0,0.0,0.0,0.0,0.0,0.0,0.0,0.0,0.0,0.0,0.0,0.0,0.0,0.0,0.0,0.0,0.0,0.0,0.0,-0.9809,-0.9884,-0.9884,-0.9884,-0.9884,-0.9884,-0.9884,-0.9884,-0.9884,-0.9884,-0.969,-0.9486,-0.9303,-0.91,-0.8834,-0.8608,-0.8608,-0.8576,-0.8517,-0.8517,-0.8517,-0.8517,-0.8517,-0.8517,-0.8517,-0.8517,-0.8517,-0.8511,-0.8679,-0.8797,-0.8958,-0.9145,-0.9344,-0.9516,-0.9516,-0.9516,-0.9516,-0.9516,-0.9648,-0.9817,-0.9883,-1.0178,-1.0503,-1.0647,-1.0821,-1.1021,-1.1093,-1.1111,-1.1111,-1.1111,-1.1111,-1.1111,-1.1111,-1.1111,-1.1111,-1.1111,-1.1111,-1.1111,-1.1111,-1.1111,-1.1111,-1.1111,-1.1111,-1.1111,-1.1111,-1.1111,-1.1111,-1.1111,-1.1111,-1.1111,-1.1111,-1.1111,-1.1111,-1.1111,-1.1111,-1.1111,-1.1111,-1.1111,-1.1111,-1.1111,-1.1111,-1.1111,-1.1111,-1.1111,-1.1111,0.0,0.0,0.0,-0.9884,0.0,0.0,0.0,0.0,-0.917,0.0,0.0,0.0,0.0,0.0,0.0,-0.5542,0.0,0.0,0.0,0.0,0.0,0.0,0.0,0.0,0.0,0.0,0.0,-0.9582,-0.9809,-0.9884,-0.9884,-0.9884,-0.9884,-0.9884,-0.9884,-0.9884,-0.9884,-0.969,-0.9614,-0.9603,-0.9314,-0.9071,-0.8884,-0.8884,-0.8732,-0.8517,-0.8517,-0.8517,-0.8517,-0.8517,-0.8517,-0.8517,-0.8517,-0.8517,-0.8517,-0.8517,-0.8641,-0.8835,-0.8958,-0.9215,-0.9516,-0.9516,-0.9516,-0.9516,-0.9516,-0.9522,-0.9582,-0.9835,-0.9919,-1.0045,-1.0557,-1.0725,-1.0797,-1.1051,-1.1111,-1.1111,-1.1111,-1.1111,-1.1111,-1.1111,-1.1111,-1.1111,-1.1111,-1.1111,-1.1111,-1.1111,-1.1111,-1.1111,-1.1111,-1.1111,-1.1111,-1.1111,-1.1111,-1.1111,-1.1111,-1.1111,-1.1111,-1.1111,-1.1111,-1.1111,-1.1111,-1.1111,-1.1111,-1.1111,-1.1111,-1.1111,-1.1111,-1.1111,-1.1111,-1.1111,-1.1111,-1.1111,0.0,0.0,-0.9884,-0.9884,0.0,0.0,0.0,0.0,0.0,0.0,0.0,0.0,0.0,0.0,0.0,-0.6068,0.0,0.0,0.0,0.0,0.0,0.0,0.0,0.0,0.0,0.0,0.0,-0.9587,-0.9771,-0.9884,-0.9884,-0.9884,-0.9884,-0.9884,-0.9884,-0.9884,-0.9884,-0.9841,-0.9728,-0.9614,-0.9491,-0.9324,-0.9087,-0.8965,-0.8852,-0.8771,-0.8581,-0.8603,-0.8776,-0.8776,-0.8776,-0.8776,-0.8776,-0.8651,-0.8517,-0.8517,-0.8614,-0.8835,-0.9113,-0.9344,-0.9516,-0.9516,-0.9516,-0.9516,-0.9516,-0.9636,-0.9793,-0.9877,-1.0027,-1.0202,-1.0382,-1.0557,-1.0707,-1.0791,-1.0985,-1.1111,-1.1111,-1.1111,-1.1111,-1.1111,-1.1111,-1.1111,-1.1111,-1.1111,-1.1111,-1.1111,-1.1111,-1.1111,-1.1111,-1.1111,-1.1111,-1.1111,-1.1111,-1.1111,-1.1111,-1.1111,-1.1111,-1.1111,-1.1111,-1.1111,-1.1111,-1.1111,-1.1111,-1.1111,-1.1111,-1.1111,-1.1111,-1.1111,-1.1111,-1.1111,-1.1111,-1.1111,-0.9646,-0.9809,0.0,-0.9884,-0.9884,0.0,-0.9884,0.0,0.0,0.0,0.0,0.0,0.0,0.0,0.0,-0.6528,0.0,0.0,0.0,-0.6637,0.0,0.0,0.0,0.0,0.0,0.0,-0.9359,-0.9473,-0.9733,-0.9884,0.0,0.0,-0.9884,-0.9884,-0.9884,-0.9884,-0.9884,-0.9884,-0.9846,-0.9701,-0.9701,-0.9572,-0.933,-0.9219,-0.9106,-0.9008,-0.8824,-0.8845,-0.9019,-0.9019,-0.9019,-0.9019,-0.9019,-0.8845,-0.863,-0.8549,-0.8663,-0.8958,-0.9246,-0.9473,-0.9694,-0.976,-0.9793,-0.9775,-0.9678,-0.9775,-0.9883,-0.9793,-0.9889,-1.0039,-1.013,-1.0352,-1.0569,-1.0695,-1.0882,-1.1111,-1.1111,-1.1111,-1.1111,-1.1111,-1.1111,-1.1111,-1.1111,-1.1111,-1.1111,-1.1111,-1.1111,-1.1111,-1.1111,-1.1111,-1.1111,-1.1111,-1.1111,-1.1111,-1.1111,-1.1111,-1.1111,-1.1111,-1.1111,-1.1111,-1.1111,-1.1111,-1.1111,-1.1111,-1.1111,-1.1111,-1.1111,-1.1111,-1.1111,-1.1111,-1.1111,-1.1111]},{"header":{"parameterUnit":"m.s-1","parameterCategory":1,"la1":30.6,"la2":29.2853,"lo1":-89.7004,"lo2":-87.6739,"dy":0.0162,"dx":0.0183,"nx":112,"ny":82,"refTime":"2023-09-04T00:00:00:Z","depth":0,"parameterNumber":3,"parameterNumberName":"V-component_of_WINDS"},"data":[0.0,0.0,0.0,0.0,0.0,0.0,0.0,0.0,0.0,0.0,0.0,0.0,0.0,0.0,0.0,0.0,0.0,0.0,0.0,0.0,0.0,0.0,0.0,0.0,0.0,0.0,0.0,0.0,0.0,0.0,0.0,0.0,0.0,0.0,0.0,0.0,0.0,0.0,0.0,0.0,0.0,0.0,0.0,0.0,0.0,0.0,0.0,0.0,0.0,0.0,0.0,0.0,0.0,0.0,0.0,0.0,0.0,0.0,0.0,0.0,0.0,0.0,0.0,0.0,0.0,0.0,0.0,0.0,0.0,0.0,0.0,0.0,0.0,0.0,0.0,0.0,0.0,0.0,0.0,0.0,0.0,0.0,0.0,0.0,0.0,0.0,0.0,0.0,0.0,0.0,0.0,0.1451,0.1071,0.0588,0.0107,0.0,0.0,0.0,0.0,0.0,0.0,0.0,0.0,0.0,0.0,0.0,0.0,0.0,0.0,0.0,0.0,0.0,0.0,0.0,0.0,0.0,0.0,0.0,0.0,0.0,0.0,0.0,0.0,0.0,0.0,0.0,0.0,0.0,0.0,0.0,0.0,0.0,0.0,0.0,0.0,0.0,0.0,0.0,0.0,0.0,0.0,0.0,0.0,0.0,0.0,0.0,0.0,0.0,0.0,0.0,0.0,0.0,0.0,0.0,0.0,0.0,0.0,0.0,0.0,0.0,0.0,0.0,0.0,0.0,0.0,0.0,0.0,0.0,0.0,0.0,0.0,0.0,0.0,0.0,0.0,0.0,0.0,0.0,0.0,0.0,0.0,0.0,0.0,0.0,0.0,0.0,0.0,0.0,0.0,0.0,0.0,0.0,0.0,0.0,0.0,0.0,0.0,0.0,0.0,0.0,0.0,0.0,0.1583,0.1263,0.1009,0.0758,0.0374,0.0155,0.0,0.0,0.0,0.0,0.0,0.0,0.0,0.0,0.0,0.0,0.0,0.0,0.0,0.0,0.0,0.0,0.0,0.0,0.0,0.0,0.0,0.0,0.0,0.0,0.0,0.0,0.0,0.0,0.0,0.0,0.0,0.0,0.0,0.0,0.0,0.0,0.0,0.0,0.0,0.0,0.0,0.0,0.0,0.0,0.0,0.0,0.0,0.0,0.0,0.0,0.0,0.0,0.0,0.0,0.0,0.0,0.0,0.0,0.0,0.0,0.0,0.0,0.0,0.0,0.0,0.0,0.0,0.0,0.0,0.0,0.0,0.0,0.0,0.0,0.0,0.0,0.0,0.0,0.0,0.0,0.0,0.0,0.0,0.0,0.0,0.0,0.0,0.0,0.0,0.0,0.0,0.0,0.0,0.0,0.0,0.0,0.0,0.0,0.0,0.0,0.0,0.0,0.0,0.0,0.0,0.1806,0.1664,0.1305,0.1113,0.0905,0.0427,0.0307,0.0145,0.0,-0.0083,0.0,0.0,0.0,0.0,0.0,0.0,0.0,0.0,0.0,0.0,0.0,0.0,0.0,0.0,0.0,0.0,0.0,0.0,0.0,0.0,0.0,0.0,0.0,0.0,0.0,0.0,0.0,0.0,0.0,0.0,0.0,0.0,0.0,0.0,0.0,0.0,0.0,0.0,0.0,0.0,0.0,0.0,0.0,0.0,0.0,0.0,0.0,0.0,0.0,0.0,0.0,0.0,0.0,0.0,0.0,0.0,0.0,0.0,0.0,0.0,0.0,0.0,0.0,0.0,0.0,0.0,0.0,0.0,0.0,0.0,0.0,0.0,0.0,0.0,0.0,0.0,0.0,0.0,0.0,0.0,0.0,0.0,0.0,0.0,0.0,0.0,0.0,0.0,0.0,0.0,0.0,0.0,0.0,0.0,0.0,0.0,0.0,0.0,0.0,0.0,0.0,0.0,0.2008,0.1873,0.1526,0.1366,0.11,0.0632,0.0503,0.0381,0.0179,0.0123,0.0,0.0,0.0,0.0,0.0,0.0,0.0,0.0,0.0,0.0,0.0,0.0,0.0,0.0,0.0,0.0,0.0,0.0,0.0,0.0,0.0,0.0,0.0,0.0,0.0,0.0,0.0,0.0,0.0,0.0,0.0,0.0,0.0,0.0,0.0,0.0,0.0,0.0,0.0,0.0,0.0,0.0,0.0,0.0,0.0,0.0,0.0,0.0,0.0,0.0,0.0,0.0,0.0,0.0,0.0,0.0,0.0,0.0,0.0,0.0,0.0,0.0,0.0,0.0,0.0,0.0,0.0,0.0,0.0,0.0,0.0,0.0,0.0,0.0,0.0,0.0,0.0,0.0,0.0,0.0,0.0,0.0,0.0,0.0,0.0,0.0,0.0,0.0,0.0,0.0,0.0,0.0,0.0,0.0,0.0,0.0,0.0,0.0,0.0,0.0,0.0,0.0,0.2455,0.2237,0.2069,0.1791,0.1522,0.117,0.088,0.0652,0.0657,0.0401,0.0,0.0,0.0,0.0,0.0,0.0,0.0,0.0,0.0,0.0,0.0,0.0,0.0,0.0,0.0,0.0,0.0,0.0,0.0,0.0,0.0,0.0,0.0,0.0,0.0,0.0,0.0,0.0,0.0,0.0,0.0,0.0,0.0,0.0,0.0,0.0,0.0,0.0,0.0,0.0,0.0,0.0,0.0,0.0,0.0,0.0,0.0,0.0,0.0,0.0,0.0,0.0,0.0,0.0,0.0,0.0,0.0,0.0,0.0,0.0,0.0,0.0,0.0,0.0,0.0,0.0,0.0,0.0,0.0,0.0,0.0,0.0,0.0,0.0,0.0,0.0,0.0,0.0,0.0,0.0,0.0,0.0,0.0,0.0,0.0,0.0,0.0,0.0,0.0,0.0,0.0,0.0,0.0,0.0,0.0,0.0,0.0,0.0,0.0,0.0,0.0,0.0,0.3063,0.2835,0.0,0.2411,0.2202,0.1718,0.1494,0.1231,0.0899,0.0,0.0,0.0,0.0,0.0,0.0,0.0,0.0,0.0,0.0,0.0,0.0,0.0,0.0,0.0,0.0,0.0,0.0,0.0,0.0,0.0,0.0,0.0,0.0,0.0,0.0,0.0,0.0,0.0,0.0,0.0,0.0,0.0,0.0,0.0,0.0,0.0,0.0,0.0,0.0,0.0,0.0,0.0,0.0,0.0,0.0,0.0,0.0,0.0,0.0,0.0,0.0,0.0,0.0,0.0,0.0,0.0,0.0,0.0,0.0,0.0,0.0,0.0,0.0,0.0,0.0,0.0,0.0,0.0,0.0,0.0,0.0,0.0,0.0,0.0,0.0,0.0,0.0,0.0,0.0,0.0,0.0,0.0,0.0,0.0,0.0,0.0,0.0,0.0,0.0,0.0,0.0,0.0,0.0,0.0,0.0,0.0,0.0,0.0,0.0,0.0,0.0,0.3869,0.383,0.3639,0.0,0.325,0.3041,0.2477,0.2301,0.1993,0.1547,0.0,0.0,0.0,0.0,0.0,0.0,0.0,0.0,0.0,0.0,0.0,0.0,0.0,0.0,0.0,0.0,0.0,0.0,0.0,0.0,0.0,0.0,0.0,0.0,0.0,0.0,0.0,0.0,0.0,0.0,0.0,0.0,0.0,0.0,0.0,0.0,0.0,0.0,0.0,0.0,0.0,0.0,0.0,0.0,0.0,0.0,0.0,0.0,0.0,0.0,0.0,0.0,0.0,0.0,0.0,0.0,0.0,0.0,0.0,0.0,0.0,0.0,0.0,0.0,0.0,0.0,0.0,0.0,0.0,0.0,0.0,0.0,0.0,0.0,0.0,0.0,0.0,0.0,0.0,0.0,0.0,0.0,0.0,0.0,0.0,0.0,0.0,0.0,0.0,0.0,0.0,0.0,0.0,0.0,0.0,0.0,0.0,0.0,0.0,0.0,0.0,0.0,0.4716,0.4721,0.4591,0.4341,0.4311,0.4082,0.3474,0.3238,0.2983,0.0,0.0,0.0,0.0,0.0,0.0,0.0,0.0,0.0,0.0,0.0,0.0,0.0,0.0,0.0,0.0,0.0,0.0,0.0,0.0,0.0,0.0,0.0,0.0,0.0,0.0,0.0,0.0,0.0,0.0,0.0,0.0,0.0,0.0,0.0,0.0,0.0,0.0,0.0,0.0,0.0,0.0,0.0,0.0,0.0,0.0,0.0,0.0,0.0,0.0,0.0,0.0,0.0,0.0,0.0,0.0,0.0,0.0,0.0,0.0,0.0,0.0,0.0,0.0,0.0,0.0,0.0,0.0,0.0,0.0,0.0,0.0,0.0,0.0,0.0,0.0,0.0,0.0,0.0,0.0,0.0,0.0,0.0,0.0,0.0,0.0,0.0,0.0,0.0,0.0,0.0,0.0,0.0,0.0,0.0,0.0,0.0,0.0,0.0,0.0,0.0,0.0,0.0,0.5412,0.5486,0.5426,0.5195,0.5183,0.5014,0.4522,0.4244,0.3865,0.3339,0.0,0.0,0.0,0.0,0.0,0.0,0.0,0.0,0.0,0.0,0.0,0.0,0.0,0.0,0.0,0.0,0.0,0.0,0.0,0.0,0.0,0.0,0.0,0.0,0.0,0.0,0.0,0.0,0.0,0.0,0.0,0.0,0.0,0.0,0.0,0.0,0.0,0.0,0.0,0.0,0.0,0.0,0.0,0.0,0.0,0.0,0.0,0.0,0.0,0.0,0.0,0.0,0.0,0.0,0.0,0.0,0.0,0.0,0.0,0.0,0.0,0.0,0.0,0.0,0.0,0.0,0.0,0.0,0.0,0.0,0.0,0.0,0.0,0.0,0.0,0.0,0.0,0.0,0.0,0.0,0.0,0.0,0.0,0.0,0.0,0.0,0.0,0.0,0.0,0.0,0.0,0.0,0.0,0.0,0.0,0.0,0.0,0.0,0.0,0.0,0.0,0.0,0.6028,0.627,0.636,0.6172,0.6165,0.6059,0.5644,0.5312,0.4872,0.4246,0.0,0.0,0.0,0.0,0.0,0.0,0.0,0.0,0.0,0.0,0.0,0.0,0.0,0.0,0.0,0.0,0.0,0.0,0.0,0.0,0.0,0.0,0.0,0.0,0.0,0.0,0.0,0.0,0.0,0.0,0.0,0.0,0.0,0.0,0.0,0.0,0.0,0.0,0.0,0.0,0.0,0.0,0.0,0.0,0.0,0.0,0.0,0.0,0.0,0.0,0.0,0.0,0.0,0.0,0.0,0.0,0.0,0.0,0.0,0.0,0.0,0.0,0.0,0.0,0.0,0.0,0.0,0.0,0.0,0.0,0.0,0.0,0.0,0.0,0.0,0.0,0.0,0.0,0.0,0.0,0.0,0.0,0.0,0.0,0.0,0.0,0.0,0.0,0.0,0.0,0.0,0.0,0.0,0.0,0.0,0.0,0.0,0.0,0.0,0.0,0.0,0.0,0.6537,0.6937,0.7193,0.7129,0.7099,0.7007,0.6778,0.6379,0.5913,0.5254,0.0,0.0,0.0,0.0,0.0,0.0,0.0,0.0,0.0,0.0,0.0,0.0,0.0,0.0,0.0,0.0,0.0,0.0,0.0,0.0,0.0,0.0,0.0,0.0,0.0,0.0,0.0,0.0,0.0,0.0,0.0,0.0,0.0,0.0,0.0,0.0,0.0,0.0,0.0,0.0,0.0,0.0,0.0,0.0,0.0,0.0,0.0,0.0,0.0,0.0,0.0,0.0,0.0,0.0,0.0,0.0,0.0,0.0,0.0,0.0,1.6748,0.0,0.0,0.0,0.0,0.0,0.0,0.0,0.0,0.0,0.0,0.0,0.0,0.0,0.0,0.0,0.0,0.0,0.0,0.0,0.0,0.0,0.0,0.0,0.0,0.0,0.0,0.0,0.0,0.0,0.0,0.0,0.0,0.0,0.0,0.0,0.0,0.0,0.0,0.0,0.0,0.0,0.6835,0.7117,0.733,0.7282,0.7255,0.7204,0.7037,0.6774,0.6506,0.6156,0.5775,0.0,0.0,0.0,0.0,0.0,0.0,0.0,0.0,0.0,0.0,0.0,0.0,0.0,0.0,0.0,0.0,0.0,0.0,0.0,0.0,0.0,0.0,0.0,0.0,0.0,0.0,0.0,0.0,0.0,0.0,0.0,0.0,0.0,0.0,0.0,0.0,0.0,0.0,0.0,0.0,0.0,0.0,0.0,0.0,0.0,0.0,0.0,0.0,0.0,0.0,0.0,0.0,0.0,0.0,0.0,0.0,0.0,0.0,0.0,0.0,1.7364,0.0,0.0,0.0,0.0,0.0,0.0,0.0,0.0,0.0,0.0,0.0,0.0,0.0,0.0,0.0,0.0,0.0,0.0,0.0,0.0,0.0,0.0,0.0,0.0,0.0,0.0,0.0,0.0,0.0,0.0,0.0,0.0,0.0,0.0,0.0,0.0,0.0,0.0,0.0,0.0,0.7187,0.7595,0.7829,0.768,0.7691,0.7615,0.7445,0.7241,0.7045,0.6857,0.6538,0.0,0.0,0.0,0.0,0.0,0.0,0.0,0.0,0.0,0.0,0.0,0.0,0.0,0.0,0.0,0.0,0.0,0.0,0.0,0.0,0.0,0.0,0.0,0.0,0.0,0.0,0.0,0.0,0.0,0.0,0.0,0.0,0.0,0.0,0.0,0.0,0.0,0.0,0.0,0.0,0.0,0.0,0.0,0.0,0.0,0.0,0.0,0.0,0.0,0.0,0.0,0.0,0.0,2.434,2.4634,2.4376,2.4045,2.3568,2.2935,2.0522,1.9068,1.8289,0.0,0.0,0.0,0.0,0.0,0.0,0.0,0.0,0.0,0.0,0.0,0.0,0.0,0.0,0.0,0.0,0.0,0.0,0.0,0.0,0.0,0.0,0.0,0.0,0.0,1.3346,1.3127,0.0,0.0,0.0,0.0,0.0,0.0,0.0,0.0,0.0,0.0,0.0,0.0,0.7588,0.8045,0.8295,0.8177,0.8102,0.8028,0.787,0.769,0.7571,0.7455,0.7276,0.7093,0.0,0.0,0.0,0.0,0.0,0.0,0.0,0.0,0.0,0.0,0.0,0.0,0.0,0.0,0.0,0.0,0.0,0.0,0.0,0.0,0.0,0.0,0.0,0.0,0.0,0.0,0.0,0.0,0.0,0.0,0.0,0.0,2.0818,2.0934,0.0,0.0,0.0,0.0,0.0,0.0,0.0,0.0,0.0,0.0,0.0,0.0,0.0,2.3985,2.4042,2.5129,2.5658,2.5658,2.6391,2.6572,2.6349,2.6301,2.592,2.5248,2.4205,0.0,2.005,1.9638,0.0,0.0,0.0,0.0,0.0,0.0,0.0,0.0,0.0,0.0,0.0,0.0,0.0,0.0,0.0,0.0,0.0,0.0,0.0,0.0,0.0,0.0,1.5131,1.5048,1.4935,1.4675,0.0,1.271,1.1526,1.0972,1.036,0.0,0.0,0.0,0.0,0.0,0.0,0.0,0.799,0.8025,0.814,0.8349,0.8218,0.8103,0.8064,0.8043,0.8012,0.799,0.7985,0.7857,0.7663,0.7642,0.0,0.0,0.0,0.0,0.0,0.0,0.0,0.0,0.0,0.0,0.0,0.0,0.0,0.0,0.0,0.0,0.0,0.0,0.0,0.0,0.0,0.0,0.0,0.0,0.0,0.0,0.0,0.0,0.0,2.1132,2.167,2.1959,2.1988,2.1988,0.0,0.0,0.0,0.0,0.0,0.0,0.0,0.0,0.0,2.5443,2.5837,2.6271,2.6754,2.7497,2.7994,2.8242,2.8525,2.8562,2.8437,2.7942,2.7462,2.698,2.6208,2.4908,2.3308,2.1626,2.0589,2.0043,0.0,0.0,0.0,0.0,1.8494,1.8806,1.8806,1.8728,0.0,0.0,0.0,0.0,0.0,0.0,0.0,0.0,0.0,0.0,0.0,0.0,0.0,1.594,1.5827,1.5616,1.5079,1.4317,1.3433,0.0,1.1543,1.0909,1.029,0.0,0.0,0.0,0.0,0.0,0.8648,0.873,0.8728,0.8532,0.8532,0.8454,0.8276,0.8377,0.8467,0.8533,0.844,0.8371,0.8369,0.8255,0.8126,0.0,0.0,0.0,0.0,0.0,0.0,0.0,0.0,0.0,0.0,0.0,0.0,0.0,0.0,0.0,0.0,0.0,0.0,0.0,0.0,0.0,0.0,0.0,0.0,0.0,0.0,0.0,0.0,2.2123,2.2736,2.3238,2.3401,2.3473,0.0,0.0,0.0,0.0,0.0,0.0,2.6054,2.6115,2.6699,2.7909,2.8052,2.8502,2.9289,2.9739,3.0087,3.0302,3.0237,3.0166,3.0044,2.937,2.8899,2.8469,2.7653,2.6873,2.6053,2.364,2.2357,2.188,2.1235,2.0719,2.0316,2.0265,2.0307,2.0316,2.0316,2.025,2.0112,1.9737,0.0,1.8691,1.7687,0.0,0.0,0.0,0.0,1.6909,1.7151,1.717,1.7111,1.6966,1.6867,1.6635,1.5914,1.5658,1.5075,0.0,1.2675,1.197,1.1166,0.0,0.0,0.0,0.0,0.9441,0.9382,0.9457,0.9355,0.8955,0.9005,0.8964,0.8721,0.8859,0.8953,0.9078,0.8984,0.8965,0.9069,0.8926,0.8837,0.8765,0.0,0.0,0.0,0.0,0.0,0.0,0.0,0.0,0.0,0.0,0.0,0.0,0.0,0.0,0.0,0.0,0.0,0.0,0.0,0.0,0.0,0.0,0.0,0.0,0.0,0.0,0.0,0.0,0.0,2.5104,2.5551,0.0,0.0,0.0,0.0,2.6478,2.6542,2.7126,2.854,2.8625,2.9051,3.0008,3.0476,3.0955,3.1455,3.1934,3.1891,3.1392,3.1392,3.1169,3.0756,3.0713,3.0283,2.9565,2.8904,2.819,2.7382,2.5628,2.4238,2.3071,2.2867,2.2269,2.1473,2.1288,2.1339,2.1515,2.1515,2.1629,2.1697,2.1218,2.0323,1.9231,1.8638,1.8276,0.0,0.0,1.811,1.8211,1.8501,1.8439,1.8366,1.8554,1.8452,1.7973,1.6809,1.6535,1.6055,0.0,1.3542,1.287,1.2081,0.0,1.0913,1.0322,1.0072,0.9981,1.0025,0.9907,0.9813,0.9846,0.9671,0.9543,0.9543,0.9554,0.9554,0.9578,0.9741,0.9794,0.974,0.9789,0.9697,0.946,0.93,0.0,0.0,0.0,0.0,0.0,0.0,0.0,0.0,0.0,0.0,0.0,0.0,0.0,0.0,0.0,0.0,0.0,0.0,0.0,0.0,0.0,0.0,0.0,0.0,0.0,0.0,0.0,0.0,2.6566,2.7078,0.0,2.7366,2.7217,2.7377,2.8017,2.806,2.8689,3.0098,3.0173,3.06,3.1497,3.17,3.1859,3.1966,3.2136,3.2125,3.1955,3.1646,3.1412,3.1242,3.0595,3.0223,2.992,2.906,2.8568,2.8261,2.7347,2.6249,2.5113,2.4786,2.4357,2.3899,2.3684,2.347,2.325,2.307,2.2881,2.2617,2.1899,2.0985,2.0118,1.9774,1.9345,1.9043,1.9285,1.9361,1.9429,1.961,1.952,1.9353,1.9295,1.9134,1.8728,1.7767,1.7373,1.6856,1.5738,1.4669,1.3665,1.2859,1.2349,1.1799,1.1055,1.0888,1.0764,1.0566,1.0483,1.0361,1.0169,1.0198,1.0196,1.0135,1.0218,1.0277,1.0242,1.0297,1.0346,1.0303,1.0329,1.0309,1.0199,1.0174,1.0047,0.0,0.0,0.0,0.0,0.0,0.0,0.0,0.0,0.0,0.0,0.0,0.0,0.0,0.0,0.0,0.0,0.0,0.0,0.0,0.0,0.0,0.0,0.0,0.0,0.0,0.0,2.7313,2.828,2.8766,2.9059,2.9059,2.9059,2.9367,3.0019,3.0074,3.0628,3.19,3.1761,3.2043,3.2803,3.2662,3.2651,3.2749,3.2749,3.2663,3.2554,3.2229,3.1991,3.1806,3.0925,3.0382,3.0077,2.9197,2.8711,2.8423,2.7966,2.7351,2.6645,2.6152,2.574,2.5401,2.5114,2.4778,2.4497,2.4315,2.3965,2.3515,2.2776,2.2017,2.1285,2.0981,2.0578,2.0249,2.0522,2.0601,2.0596,2.0643,2.0489,2.0294,2.0079,1.9779,1.9294,1.8564,1.8009,1.7461,1.6738,1.5423,1.4198,1.3587,1.2999,1.2372,1.1727,1.1584,1.1466,1.1178,1.1153,1.1028,1.0681,1.0754,1.077,1.0647,1.0751,1.081,1.0783,1.077,1.078,1.0814,1.0839,1.087,1.094,1.094,1.087,1.0744,0.0,0.0,0.0,0.0,0.0,0.0,0.0,0.0,0.0,0.0,0.0,0.0,0.0,0.0,0.0,0.0,0.0,0.0,0.0,0.0,0.0,0.0,0.0,2.7817,2.8394,2.9262,3.0261,3.0799,3.1091,3.1102,3.1102,3.1506,3.2521,3.2538,3.3016,3.3982,3.3526,3.344,3.3922,3.3473,3.344,3.391,3.3922,3.3664,3.3223,3.3223,3.2965,3.246,3.1667,3.0921,3.0171,2.9412,2.8698,2.7981,2.7487,2.749,2.7608,2.6886,2.6328,2.5849,2.5392,2.5211,2.52,2.52,2.4881,2.4413,2.3966,2.334,2.272,2.2248,2.1949,2.1807,2.1807,2.1807,2.1769,2.1578,2.1387,2.1136,2.0962,2.0396,1.9738,1.9153,1.8521,1.7899,1.7345,1.5842,1.4595,1.4272,1.3445,1.2734,1.2352,1.2212,0.0,1.1833,1.1833,1.1677,1.1365,1.1334,1.1279,1.1153,1.1122,1.1122,1.1122,1.1122,1.1185,1.1334,1.1334,1.1435,1.1622,1.1622,1.1622,1.1622,0.0,0.0,0.0,0.0,0.0,0.0,0.0,0.0,0.0,0.0,0.0,0.0,0.0,0.0,0.0,0.0,0.0,0.0,0.0,0.0,0.0,0.0,2.9821,2.9539,3.0007,3.0925,3.2319,3.2875,3.332,3.3737,3.3566,3.368,3.4108,3.3975,3.41,3.453,3.4416,3.4416,3.45,3.4375,3.4193,3.3954,3.3954,3.3703,3.3213,3.3213,3.2839,3.2191,3.1634,3.0945,3.0144,2.9207,2.8627,2.8235,2.7775,2.7623,2.7656,2.7092,2.6702,2.639,2.6088,2.568,2.52,2.52,2.5006,2.4618,2.4006,2.3538,2.3135,2.2514,2.2289,2.2252,2.2252,2.2252,2.2214,2.2187,2.1736,2.1337,2.13,2.0755,2.0088,1.9475,1.9108,1.869,1.811,1.7067,1.599,1.5088,1.4148,1.336,1.2885,1.2674,0.0,1.2212,1.2143,1.2089,1.1903,1.1872,1.1872,1.184,1.184,1.184,1.184,1.184,1.184,1.1872,1.1872,1.1903,1.1972,1.1965,1.1965,0.0,0.0,0.0,0.0,0.0,0.0,0.0,0.0,0.0,0.0,0.0,0.0,0.0,0.0,0.0,0.0,0.0,0.0,0.0,0.0,0.0,0.0,3.1496,3.2017,3.2523,3.242,3.2805,3.4094,3.4527,3.4914,3.547,3.5362,3.5404,3.5782,3.5439,3.5415,3.5793,3.5383,3.5109,3.5058,3.4848,3.4591,3.4337,3.4337,3.4185,3.3892,3.3621,3.3315,3.2843,3.1921,3.1249,0.0,2.9455,2.8791,2.8645,2.7843,2.7521,0.0,0.0,0.0,0.0,0.0,2.5924,2.5506,2.5506,2.5407,2.5144,2.4374,2.4003,2.3725,2.2918,2.2665,2.2665,2.2665,2.2525,2.2348,2.2253,2.1801,2.1341,2.1233,2.0768,2.0254,1.9924,1.951,1.9124,1.8724,1.7903,0.0,1.6117,1.5002,1.4081,1.3488,1.3285,1.3103,1.2758,1.2728,1.2636,1.2428,1.2398,1.2344,1.2212,1.2182,0.0,0.0,0.0,1.2127,1.2182,1.2243,0.0,0.0,0.0,1.2375,1.2313,0.0,0.0,0.0,1.2406,1.2553,0.0,0.0,0.0,0.0,0.0,0.0,0.0,0.0,0.0,0.0,0.0,0.0,0.0,0.0,0.0,0.0,3.327,3.4295,3.5851,3.5149,3.4823,3.5695,3.5754,3.6033,3.6676,3.6737,3.688,3.7363,3.6913,3.6792,3.7142,0.0,0.0,0.0,0.0,3.4969,3.4969,3.4909,3.4884,3.4872,3.4341,3.4004,3.392,3.2507,3.1791,3.1523,2.988,2.9123,2.8953,2.7807,2.7307,2.7296,2.6988,2.703,2.7124,2.6479,2.6146,2.5979,2.5979,0.0,0.0,2.4861,2.4522,2.4303,2.336,2.3038,2.3027,2.2973,2.263,2.2266,2.1999,2.1606,2.1226,2.1015,2.0618,2.0266,2.0277,1.9802,1.9318,1.9175,1.857,1.7859,1.7299,1.5983,1.4802,1.4183,1.398,1.3791,1.345,1.339,1.3246,1.295,0.0,0.0,1.2451,1.2451,1.2398,1.2274,1.2243,1.2274,1.2398,1.256,1.266,1.266,1.2775,1.2775,1.266,1.266,1.2781,1.3108,1.3129,1.3196,0.0,0.0,0.0,0.0,0.0,0.0,0.0,0.0,0.0,0.0,0.0,0.0,0.0,0.0,0.0,3.4391,3.5305,3.6158,3.7001,3.6981,3.6823,3.6832,3.6809,3.7207,3.8266,3.815,3.8149,3.8464,3.8212,3.7753,3.717,3.6921,0.0,3.6248,3.6123,3.6073,3.6073,3.559,3.5379,3.5366,0.0,0.0,3.3572,3.3081,3.2285,3.125,3.0153,2.9303,2.8617,2.7793,2.7469,2.7428,2.6851,2.6696,2.6737,2.6595,2.652,2.6479,2.6479,2.617,2.5717,2.5166,2.4698,2.4236,2.3661,2.3372,0.0,2.2775,2.2512,2.219,2.1786,2.1328,2.0968,2.0934,2.0531,2.0117,2.0008,1.9866,1.9736,1.9539,1.9234,1.8894,1.8458,1.6884,1.5495,1.4909,1.4666,1.441,1.4061,1.3941,1.3791,1.3619,1.3459,1.3329,1.3268,1.3268,1.3268,1.3238,1.3117,1.3086,1.3117,1.2981,1.2928,1.2928,1.2958,1.2958,1.2928,1.2928,1.296,1.3019,1.3363,1.3642,0.0,0.0,0.0,0.0,0.0,0.0,0.0,0.0,0.0,0.0,0.0,3.1433,0.0,0.0,3.4633,3.582,3.6611,3.7294,3.7935,3.8055,3.7977,3.7734,3.7594,3.7828,3.8702,3.8678,3.8678,3.879,3.8413,3.7947,3.7523,3.7232,3.7013,3.6747,3.6888,3.6794,3.6501,3.6299,3.6076,3.5808,3.5175,3.4709,3.4341,3.3701,3.2907,3.1997,3.0933,3.0063,2.9342,2.8599,2.8303,2.8263,2.7983,2.751,2.7033,2.7033,2.6992,2.691,2.691,2.654,2.6001,2.5436,2.4901,2.4329,2.3787,2.353,2.3345,2.2772,2.2366,2.1985,2.1386,2.0871,2.05,2.05,2.0282,2.0074,2.0009,2.0009,1.9944,1.9769,1.9671,1.9423,1.8881,1.803,1.7042,1.5969,1.5449,1.5069,1.4745,1.4577,1.4428,1.427,1.4112,1.3962,1.3851,1.3791,1.3761,1.3761,1.37,1.364,1.364,1.3549,1.3467,1.3407,1.3407,1.3346,1.3246,1.3246,1.3216,1.3172,1.3523,1.3745,0.0,0.0,0.0,0.0,0.0,0.0,0.0,0.0,3.1289,3.1561,3.1978,3.2635,3.3721,3.4835,3.5904,3.7029,3.7672,3.8163,3.8671,3.8599,3.8421,3.8285,3.8148,3.8256,3.8836,3.8936,3.8936,3.8936,3.8449,3.814,3.8024,3.7645,3.7387,3.7387,3.7481,3.73,3.6805,3.675,3.6498,3.6053,3.5463,3.5175,3.5162,3.4153,3.3405,3.2838,3.1564,3.0688,3.0146,2.958,2.9316,2.9316,2.9316,2.8806,2.8023,2.7834,2.7632,2.7429,2.7429,2.7024,2.6417,2.5858,2.5241,2.4568,2.4011,2.3787,2.3554,2.2769,2.2264,2.1761,2.104,2.0534,2.0216,2.0216,2.0216,2.0216,2.0183,2.0151,2.0107,1.9976,1.9933,1.9781,1.9233,1.903,1.8448,1.695,1.6315,1.5878,1.5478,1.5274,1.5108,1.4942,1.4765,1.4627,1.4449,1.433,1.427,1.427,1.424,1.424,1.424,1.4189,1.413,1.401,1.4001,1.3911,1.3713,1.3713,1.3631,1.3489,1.3735,1.3796,3.094,3.0911,3.1013,3.1462,3.1515,3.1503,0.0,0.0,3.2982,3.2827,3.3863,3.5008,3.5678,3.6565,3.747,3.812,3.8729,3.9135,3.9203,3.8593,3.8152,3.8131,3.8376,3.8739,3.9283,3.9336,3.9336,3.9336,3.9283,3.9018,3.854,3.8448,3.8421,3.8421,3.7917,3.767,3.7604,3.6555,3.5984,3.5918,3.5375,3.5096,3.507,3.4187,3.3514,3.2909,3.1319,3.0509,3.0292,3.019,3.0165,3.0165,3.0165,3.0088,2.9896,2.8976,2.8526,2.8339,2.8339,2.7669,2.6846,2.6761,2.592,2.4921,2.4718,2.4418,2.3885,2.2752,2.2274,2.1878,2.0961,2.0681,2.0637,2.0637,2.0637,2.0572,2.041,2.0378,2.0313,2.0118,2.0074,2.0064,1.9977,1.95,1.8708,1.741,1.7172,1.6907,1.6251,1.597,1.5787,1.5758,1.5497,1.5294,1.5264,1.5235,1.5235,1.5235,1.5118,1.5059,1.5059,1.4883,1.4804,1.4775,1.4775,1.4715,1.4567,1.4567,1.4419,1.41,1.4144,1.3952,3.1596,3.1881,0.0,0.0,3.2883,3.3337,3.3174,3.384,3.4468,3.4554,3.5078,3.5848,3.679,3.7497,3.8099,0.0,3.9232,3.9554,3.9554,3.8803,3.8293,3.8293,3.8081,3.8067,3.8389,3.8397,3.8544,3.8922,3.8948,3.8855,3.8615,3.8602,3.8456,3.8109,3.7989,3.7578,3.6895,3.65,3.614,3.5762,3.5561,3.544,3.5413,3.458,3.3647,3.2601,3.1615,3.111,3.1048,3.1048,3.1048,3.1048,3.1048,3.0998,3.0797,2.9986,2.9535,2.938,2.938,2.8596,2.757,2.7446,2.6578,2.55,2.5336,2.4969,2.4424,2.3224,2.2741,2.2376,2.1272,2.0978,2.0946,2.085,2.0818,2.0786,2.0604,2.0572,2.054,2.0475,2.0443,2.0443,2.0443,2.0233,1.9763,1.8825,1.7969,1.7212,1.6672,1.6428,1.6257,1.6142,1.5999,1.5912,1.5912,1.5912,1.5912,1.5912,1.5884,1.5855,1.5855,1.5671,1.5584,1.5584,1.5526,1.5439,1.541,1.5264,1.5118,1.4893,1.4754,1.451,3.2351,0.0,0.0,3.3394,3.4167,3.4784,3.4537,3.5001,3.5569,3.5697,3.577,3.6059,3.71,3.7558,3.7979,3.8574,3.9135,3.9459,3.9207,3.8667,3.8154,3.7935,3.7392,3.7101,3.735,3.7565,3.7912,3.8488,3.8541,3.8608,3.8769,3.8622,3.8341,3.7926,3.7752,3.7259,3.6397,3.636,3.6144,3.571,3.571,3.571,3.5656,3.4739,3.3719,3.256,3.1997,3.178,3.178,3.178,3.178,3.178,3.178,3.1656,3.1495,3.0985,3.0608,3.0279,3.0279,2.9463,2.8388,2.823,2.7308,2.6176,2.5955,2.5629,2.5071,2.379,2.3337,2.2979,2.1786,2.1486,2.1454,2.1285,2.1221,2.1126,2.101,2.0914,2.0882,2.0862,2.083,2.083,2.0754,2.0754,2.0522,1.9861,1.8857,1.7967,1.7399,1.7073,1.6803,1.6477,1.6438,1.6438,1.6438,1.6438,1.6438,1.6438,1.6438,1.6438,1.6438,1.6343,1.6285,1.6285,1.62,1.6132,1.6075,1.5941,1.5797,1.5584,1.54,1.5196,3.3198,3.3354,3.3664,3.485,3.5171,3.5278,3.557,3.5875,3.6033,3.5844,3.5759,3.5858,3.6433,3.6613,3.6851,3.7449,3.8408,3.882,3.7961,3.7893,3.7576,3.6769,3.613,3.6008,0.0,3.716,3.777,3.8353,3.8407,3.8651,3.9234,3.8719,3.8393,3.838,3.7228,3.6646,3.6605,3.6035,3.5737,3.571,3.571,3.571,3.5683,3.4463,3.3596,3.3061,3.244,3.2182,3.2182,3.2182,3.2182,3.2182,3.2182,3.2182,3.2182,3.2132,3.1656,3.0986,3.0986,3.0179,2.9164,2.9164,2.8174,2.6939,2.6714,2.644,2.5859,2.4401,2.3956,2.3672,2.2493,2.2154,2.2154,2.2166,2.1999,2.1831,2.1694,2.1526,2.1336,2.1221,2.119,2.1126,2.0935,2.0903,2.0669,1.9994,1.9873,1.9549,1.8739,1.8132,1.7492,1.686,1.6779,1.6779,1.6779,1.6779,1.6779,1.6779,1.6779,1.6779,1.6779,1.6779,1.6779,1.6779,1.6779,1.6694,1.657,1.657,1.64,1.6085,1.6085,1.5884,3.3662,3.4408,3.5231,3.5638,3.5951,3.6215,3.6228,3.6442,3.6463,3.5863,3.576,3.584,3.5994,3.6093,3.642,3.7363,3.795,3.8449,3.8824,3.8104,3.7552,3.7648,3.6796,0.0,0.0,0.0,0.0,3.7743,3.8149,3.8505,3.8708,3.8532,3.8247,3.7811,3.7026,3.6415,3.6022,3.5818,3.571,3.571,3.571,3.5506,3.5073,3.4273,3.362,3.3074,3.2477,3.2218,3.2218,3.2218,3.2218,3.2218,3.2218,3.2218,3.2218,3.2218,3.178,3.119,3.1059,3.0383,2.9535,2.9117,2.8321,2.751,2.7443,2.7162,2.6595,2.5421,2.4975,2.4582,2.3432,2.3047,2.2969,2.2811,2.2684,2.25,2.2341,2.2237,2.2156,2.2037,2.2006,2.1956,2.18,2.1643,2.1416,2.0968,2.0044,1.9339,1.9081,1.8855,1.846,1.7791,1.7737,1.7588,1.716,1.7127,1.7127,1.7127,1.7127,1.7127,1.7127,1.7127,1.7127,1.7127,1.7127,1.7099,1.7071,1.6937,1.6814,1.6701,1.6513,1.6371,3.4813,3.55,3.611,3.6578,3.6752,3.6738,3.6353,3.6383,3.6255,3.5428,3.5167,3.5109,3.5059,3.5297,3.5811,3.6654,3.742,3.8161,3.8905,3.8336,3.795,3.8311,3.7371,3.6682,0.0,0.0,0.0,3.7161,3.7758,3.8149,3.841,3.8423,3.8095,3.7512,3.6931,3.632,3.5723,3.571,3.571,3.571,3.571,3.552,3.5073,3.4273,3.3704,3.3335,3.2535,3.2218,3.2218,3.2218,3.2218,3.2218,3.2218,3.2218,3.2218,3.2218,3.1802,3.13,3.1159,3.0478,2.9609,2.9234,2.8599,2.7973,2.7973,2.7776,2.7275,2.6119,2.5686,2.5319,2.4094,2.3721,2.3616,2.3488,2.3352,2.3173,2.3058,2.2985,2.2937,2.2854,2.2805,2.2726,2.2561,2.2316,2.2056,2.1808,2.0946,2.0155,1.9622,1.9569,1.9306,1.8636,1.8407,1.8145,1.7749,1.7534,1.7434,1.7434,1.7434,1.7434,1.7434,1.7434,1.7434,1.7434,1.7434,1.7434,1.7434,1.7312,1.7245,1.7245,1.7078,1.6965,3.6482,3.6622,3.6468,3.7716,3.7545,3.6859,3.6094,3.582,3.5454,3.4519,3.4057,3.3789,3.3653,0.0,3.4831,3.5395,3.678,3.793,3.8285,3.8627,3.8805,0.0,0.0,0.0,0.0,0.0,0.0,3.6729,0.0,3.7799,3.8383,3.8467,3.8152,3.7541,3.6972,3.6361,3.5723,3.5723,3.5723,3.5723,3.5723,3.5696,3.5628,3.4475,3.3894,3.3799,3.2684,3.2218,3.2218,3.2218,3.2218,3.2218,3.2218,3.2218,3.2218,3.2218,3.1789,3.1246,3.1246,3.0473,2.9502,2.9475,2.8936,2.832,2.832,2.8216,2.7839,2.6555,2.6162,2.5854,2.4531,2.42,2.4157,2.4131,2.3989,2.3829,2.3829,2.3754,2.3636,2.3636,2.3526,2.3378,2.319,2.2864,2.2616,2.2469,2.2451,2.192,2.0492,2.0281,2.0026,1.937,1.8863,1.8559,1.8497,1.8019,1.7711,1.7711,1.7711,1.7711,1.7711,1.7711,1.7711,1.7711,1.7711,1.7711,1.7711,1.7711,1.7711,1.7711,1.7711,1.7617,3.7233,3.799,3.8558,3.8416,3.8167,3.7635,3.6413,3.5968,3.5352,3.3569,3.3061,3.288,3.2754,0.0,0.0,3.4934,3.5844,0.0,3.864,3.902,0.0,4.0163,0.0,3.9093,3.8756,3.8575,0.0,0.0,3.8131,3.8294,3.8899,3.8927,3.8652,3.8047,3.7442,3.6837,3.6232,3.6232,3.6232,3.6232,3.6232,3.5945,3.5464,3.4594,3.3916,3.34,3.2554,3.2218,3.2218,3.2218,3.2218,3.2218,3.2218,3.2218,3.2218,3.2218,3.1517,3.0635,3.0635,3.012,2.9434,2.8967,2.8676,2.8509,2.8509,2.849,2.8309,2.7521,2.7287,2.7004,2.5762,2.5365,2.517,2.4742,2.452,2.4392,2.4392,2.4376,2.4305,2.4147,2.4015,2.3868,2.3653,2.3564,2.3446,2.331,2.3198,2.2798,2.1808,2.1568,2.1213,2.0535,1.9917,1.931,1.8709,1.8176,1.781,1.7711,1.7711,1.7711,1.7711,1.7711,1.7711,1.7711,1.7711,1.7711,1.7711,1.7711,1.7711,1.7711,1.7711,1.7684,3.8602,3.9171,3.9408,3.9029,3.8446,3.7581,3.618,3.5291,3.4328,3.2775,3.2164,3.1871,3.1712,3.1974,0.0,0.0,0.0,0.0,3.9297,3.9853,4.0436,0.0,4.1117,0.0,4.0205,3.992,3.9782,0.0,3.9199,3.8908,3.9254,3.9446,3.9098,3.8228,3.7869,3.7275,3.6405,3.6405,3.6405,3.6405,3.6405,3.606,3.5386,3.473,3.4073,3.3404,0.0,3.2408,3.2408,3.2408,3.2408,3.2408,3.2408,3.2408,3.2367,3.2107,3.1424,3.059,3.033,2.9824,2.925,2.876,2.8587,2.8587,2.8587,2.8587,2.8465,2.7881,2.7705,2.7488,2.6538,2.6045,2.5689,2.5364,2.5024,2.4778,2.4778,2.4778,2.4721,2.4536,2.445,2.4363,2.4176,2.4147,2.4089,2.393,2.3826,2.3616,2.3108,2.2622,2.2145,2.1619,2.0795,2.0081,1.9574,1.8845,1.8344,1.8275,1.8275,1.8275,1.8275,1.822,1.8177,1.8177,1.8111,1.8084,1.8084,1.8084,1.8084,1.8084,1.8084,1.8084,4.0103,4.0198,3.974,3.955,3.8555,3.7257,3.5726,3.4304,3.3045,3.2096,0.0,3.0848,3.0738,3.1638,3.2739,3.3857,0.0,3.7652,3.9869,4.0763,4.1635,4.2872,4.2456,4.1962,4.1739,4.1239,4.1072,4.1416,4.0539,3.9929,3.9845,4.001,3.9575,3.8352,3.8241,3.7685,3.6589,3.6589,3.6589,3.6549,3.648,3.6092,3.5415,3.4847,3.4238,3.3578,0.0,0.0,3.2775,3.2775,3.2775,3.2775,3.2739,3.2739,3.2656,3.2013,3.1419,3.0812,3.0204,2.9596,2.9035,2.8748,2.8651,2.8651,2.8651,2.8651,2.851,2.7994,2.7827,2.7691,2.7064,2.6538,2.609,2.5928,2.5493,2.51,2.5032,2.5005,2.4977,2.4835,2.4835,2.4778,2.4677,2.4649,2.4578,2.4408,2.4379,2.4321,2.4218,2.3514,2.2896,2.2622,2.1582,2.0864,2.0734,1.9709,1.9066,1.904,1.904,1.904,1.904,1.8946,1.8878,1.8878,1.8759,1.8694,1.8694,1.8667,1.864,1.864,1.864,1.864,4.0498,4.0909,4.0956,3.9787,3.8918,3.7812,3.5837,3.4304,0.0,0.0,3.0819,3.0297,3.0152,3.0761,3.1821,3.3419,0.0,0.0,0.0,0.0,4.2471,0.0,0.0,0.0,0.0,0.0,0.0,0.0,0.0,4.2158,4.1583,4.1112,4.0265,3.896,3.8467,3.8002,3.7634,3.762,3.7558,3.738,3.6869,3.6287,3.5634,3.4856,3.4178,3.3572,3.329,0.0,3.3199,3.3199,3.3199,3.3164,3.3023,3.2952,3.2834,3.2083,3.1419,3.0812,3.0204,2.9596,2.9099,2.9035,2.9004,2.9004,2.9004,2.8908,2.872,2.8625,2.8534,2.8302,2.7705,2.7474,2.7135,2.6131,2.5805,2.5602,2.5113,2.5005,2.4977,2.4977,2.4977,2.4948,2.492,2.492,2.492,2.4878,2.4778,2.4692,2.4692,2.4089,2.3623,2.3564,2.235,2.1483,2.1359,2.0198,1.946,1.9342,1.9342,1.9342,1.9342,1.9316,1.9289,1.9289,1.916,1.9107,1.9107,1.8987,1.8934,1.8934,1.8934,1.8934,4.0909,4.1351,4.1257,3.985,3.8728,3.7528,3.5789,0.0,0.0,0.0,3.037,2.9619,2.9533,3.0116,0.0,0.0,0.0,0.0,0.0,0.0,0.0,0.0,0.0,0.0,0.0,0.0,0.0,0.0,0.0,4.3457,4.2578,4.1462,4.0378,3.9428,3.8823,3.8449,3.8375,3.8375,3.8125,3.7709,3.7404,3.6736,3.5749,3.5354,3.4842,3.4269,3.4187,0.0,3.4104,3.4002,3.3968,3.3968,3.3791,3.3522,3.3118,3.2425,3.1768,3.1112,3.052,3.0046,2.9699,2.9699,2.9432,2.9099,2.9099,2.9035,2.8972,2.8972,2.8908,2.8776,2.8488,2.8187,2.7735,2.6848,2.6162,2.56,2.5312,2.5188,2.509,2.509,2.5061,2.5005,2.5005,2.5005,2.5005,2.5005,2.4948,2.4892,2.4892,2.4622,2.4337,2.4076,2.2916,2.2103,2.1981,2.0834,2.0093,2.0042,2.0016,2.0016,2.0016,1.9965,1.9914,1.9914,1.9785,1.9708,1.9618,1.954,1.9462,1.9422,1.9422,1.9422,4.1083,4.1478,4.1257,3.985,3.8476,3.7099,3.5505,3.3119,0.0,3.1033,2.9967,2.9098,2.9098,0.0,3.0614,0.0,3.3677,0.0,0.0,0.0,0.0,0.0,0.0,0.0,0.0,0.0,0.0,0.0,0.0,0.0,4.2944,4.1605,4.0538,3.9899,3.9415,3.9073,3.8903,3.8903,3.8525,3.7816,3.7682,3.7075,3.6052,3.5904,3.5548,3.5106,3.5106,0.0,0.0,3.4927,3.4861,3.4828,3.4493,3.4076,3.3474,3.2669,3.204,3.1486,3.0906,3.0598,3.0433,3.0433,2.9915,2.932,2.932,2.9257,2.9226,2.9243,2.918,2.9149,2.9194,2.8737,2.8099,2.7335,2.631,2.5494,2.5494,2.5369,2.5272,2.5272,2.5188,2.5103,2.5103,2.5103,2.5103,2.5103,2.5103,2.5103,2.5103,2.5103,2.4977,2.4593,2.3548,2.279,2.255,2.1497,2.0816,2.0698,2.0698,2.0698,2.0698,2.0573,2.0523,2.0523,2.0397,2.0296,2.0169,2.0144,2.0067,1.9978,1.9978,1.9978,4.0656,4.113,4.1257,3.985,3.8476,3.6972,3.4857,0.0,3.1033,3.0425,2.9659,2.9098,2.9098,2.9706,3.0663,0.0,0.0,3.513,0.0,0.0,0.0,0.0,0.0,0.0,0.0,0.0,0.0,0.0,0.0,0.0,4.2569,4.1822,4.1132,4.0458,4.0381,3.9975,3.9162,3.9162,3.8709,3.7775,3.7249,3.6902,3.6766,3.6163,3.5878,3.5817,3.5817,0.0,0.0,3.5785,3.5705,3.5516,3.4709,3.4297,3.3945,3.2501,3.1924,3.1777,3.1161,3.094,3.094,3.094,3.0507,3.0019,3.0019,2.9803,2.9571,2.9699,2.9529,2.931,2.9509,2.9063,2.8232,2.6984,2.6063,2.5494,2.5494,2.5494,2.5467,2.5467,2.5467,2.5439,2.5439,2.5439,2.5439,2.5439,2.5439,2.5439,2.5439,2.5439,2.5439,2.5383,2.4407,2.3541,2.2977,2.2243,2.1555,2.0999,2.0959,2.0959,2.0959,2.0934,2.0934,2.0934,2.0809,2.0734,2.0721,2.061,2.0535,2.0535,2.0535,2.0535,4.0658,4.1087,4.1072,4.0068,3.846,3.6676,3.4945,0.0,3.1246,3.0545,2.9837,2.9321,2.9236,2.9458,3.0101,3.1437,3.2465,0.0,0.0,0.0,0.0,0.0,0.0,0.0,0.0,0.0,0.0,0.0,0.0,0.0,4.261,4.2136,4.1546,4.0879,4.0445,4.0039,3.9694,3.9276,3.8702,3.7909,3.7679,3.7355,3.6939,3.6693,3.6569,3.6569,3.6569,0.0,0.0,3.6414,3.6122,3.5661,3.5186,3.4471,3.3636,3.3032,3.2564,3.217,3.1913,3.1809,3.1724,3.1724,3.1495,3.1102,3.0643,3.0357,3.0205,3.0266,3.019,3.0013,2.9671,2.8827,2.7883,2.7285,2.6606,2.6084,2.5989,2.5921,2.5853,2.5853,2.5716,2.5605,2.5605,2.5536,2.5494,2.5494,2.5494,2.5494,2.5494,2.5494,2.5494,2.5494,2.4682,2.4042,2.3797,2.2758,2.2034,2.1805,2.1442,2.1229,2.1229,2.1229,2.1229,2.1229,2.1191,2.1118,2.1044,2.0995,2.0921,2.0835,2.0835,2.0835,3.9916,4.0523,4.0619,3.9718,3.8255,3.6536,0.0,0.0,3.1398,3.0461,2.9854,2.9473,2.9389,2.9526,3.0044,3.114,3.1933,3.3297,3.5814,0.0,0.0,0.0,0.0,0.0,0.0,0.0,0.0,0.0,0.0,0.0,0.0,4.1812,4.1458,4.0955,4.0235,3.9765,3.9562,3.9077,3.8513,3.784,3.784,3.759,3.7151,3.6917,3.6823,3.6808,0.0,0.0,0.0,3.636,3.6004,3.5494,3.5143,3.4419,3.3512,3.3339,3.2968,3.2551,3.2551,3.2496,3.2401,3.2401,3.2259,3.1975,3.124,3.0954,3.0866,3.0866,3.0749,3.0411,2.9519,2.8612,2.7854,2.753,2.707,2.6642,2.6551,2.6418,2.6338,2.6338,2.615,2.5988,2.5988,2.5866,2.5812,2.5812,2.5757,2.573,2.573,2.5702,2.5674,2.5674,2.5107,2.464,2.4408,2.3468,2.2736,2.2408,2.1936,2.1589,2.1399,2.1399,2.1399,2.1399,2.1399,2.135,2.1253,2.1253,2.1204,2.1106,2.1106,2.1106,3.8094,3.9165,3.9902,3.8613,3.7797,3.6535,0.0,3.2385,3.1411,2.9987,2.9586,2.9496,2.9496,3.0094,3.0798,3.1486,3.2215,3.338,3.5343,0.0,0.0,0.0,0.0,0.0,0.0,0.0,0.0,0.0,0.0,0.0,0.0,4.0625,4.0625,4.0625,3.9898,3.9202,3.8508,3.8492,3.8175,3.7526,3.7526,3.751,3.7478,3.6724,3.6408,0.0,0.0,0.0,0.0,3.541,3.5294,3.503,3.4368,3.4006,3.3805,3.3135,3.2912,3.2897,3.2897,3.2897,3.2897,3.2897,3.2757,3.2478,3.18,3.153,3.148,3.148,3.1116,3.0361,2.888,2.8495,2.8304,2.7575,2.7244,2.7097,2.7097,2.6993,2.6901,2.6901,2.6785,2.6709,2.6709,2.659,2.6484,2.6484,2.6379,2.6286,2.6286,2.6179,2.6084,2.6084,2.5866,2.5396,2.465,2.4407,2.3806,2.2679,2.2394,2.2034,2.1412,2.1399,2.1399,2.1399,2.1399,2.1399,2.1399,2.1399,2.1399,2.1399,2.1399,2.1399,3.7687,3.8374,3.8554,3.7629,3.649,3.5095,3.3214,3.2212,3.138,3.038,3.0141,3.0055,2.988,3.0358,3.0999,3.1646,3.228,3.3415,0.0,0.0,0.0,0.0,0.0,0.0,0.0,0.0,0.0,0.0,0.0,0.0,0.0,4.0035,3.9594,3.9835,3.9187,3.8728,3.8507,3.8049,3.7701,3.751,3.751,3.7227,3.6753,3.6503,0.0,0.0,0.0,0.0,0.0,3.5394,3.5066,3.4549,3.4329,3.3939,3.3448,3.3255,3.3176,3.3176,3.3176,3.3176,3.3176,3.3176,3.2819,3.2311,3.1987,3.1685,3.1329,3.0815,3.0232,2.9648,2.9154,2.8753,2.8347,2.801,2.79,2.7795,2.7665,2.76,2.7565,2.7534,2.7367,2.7225,2.7192,2.7049,2.6916,2.6916,2.6785,2.6707,2.6707,2.659,2.6472,2.6392,2.6297,2.6011,2.5396,2.4844,2.4363,2.3977,2.3511,2.3144,2.285,2.2912,2.2938,2.2836,2.2938,2.2757,2.2292,2.2292,2.2037,2.1544,2.1544,2.1496,3.6084,3.6746,3.6879,3.6204,3.5345,0.0,3.2867,3.2145,3.1553,3.0721,3.0763,3.086,3.0647,3.1362,3.2105,3.2438,3.3032,3.4075,0.0,0.0,0.0,0.0,0.0,0.0,0.0,0.0,0.0,0.0,0.0,0.0,0.0,3.956,3.9024,3.8912,3.8485,3.8263,3.8263,3.761,3.7274,3.7274,3.6975,3.6626,3.6153,3.5899,0.0,0.0,0.0,0.0,0.0,3.4768,3.4482,3.407,3.4016,3.3736,3.3388,3.3335,3.3309,3.3309,3.3309,3.3309,3.3261,3.2993,3.2291,3.1476,3.136,3.1243,3.101,3.0299,2.9855,2.9478,2.9181,2.8859,2.8549,2.8453,2.842,2.8381,2.8277,2.8213,2.814,2.8113,2.7959,2.7835,2.7765,2.7625,2.7519,2.7519,2.7363,2.7261,2.7225,2.7097,2.6956,2.6841,2.6774,2.6575,2.627,2.5582,2.5032,2.4783,2.4354,2.3931,2.358,2.3644,2.3644,2.3566,2.3644,2.3476,2.3089,2.2815,2.2338,2.1688,2.1688,2.164,0.0,3.4533,3.5043,3.444,0.0,0.0,3.256,3.2161,0.0,3.0999,3.1386,3.18,3.1656,3.2862,3.3789,3.3657,3.4261,0.0,0.0,0.0,0.0,0.0,0.0,0.0,0.0,0.0,0.0,0.0,0.0,0.0,0.0,3.9159,3.8747,3.7927,3.7835,3.7806,3.7825,3.7166,3.6826,3.6826,3.6142,3.5762,3.5699,3.5,0.0,0.0,0.0,0.0,0.0,3.3694,3.3694,3.3684,3.3555,3.3503,3.3503,3.3372,3.3335,3.3335,3.3335,3.3288,3.3129,3.2386,3.1263,3.0188,3.0141,3.0364,3.0532,2.9933,2.9828,2.9759,2.9014,2.8881,2.8897,2.8826,2.8818,2.8818,2.8818,2.8732,2.8621,2.8621,2.8517,2.8436,2.8497,2.8385,2.8296,2.8296,2.8143,2.7974,2.7865,2.7695,2.7545,2.7463,2.728,2.7174,2.7174,2.6537,2.5856,2.5184,2.501,2.46,2.3899,2.3885,2.3885,2.3872,2.3856,2.3842,2.3828,2.3136,2.2464,2.1886,2.1845,2.1817,3.211,0.0,3.3917,3.3189,3.3022,3.2784,0.0,3.1657,3.155,3.1252,3.1788,3.2273,3.2171,3.3261,3.4158,3.408,3.4582,0.0,0.0,0.0,0.0,0.0,0.0,0.0,0.0,0.0,0.0,0.0,0.0,0.0,0.0,3.8876,3.8123,3.7905,3.7242,3.6983,3.7118,3.643,3.6062,3.6062,3.5886,3.5491,3.4936,3.4777,0.0,0.0,0.0,0.0,3.3694,3.3694,3.3694,3.3694,3.3684,3.3642,3.3658,3.3633,3.3607,3.3607,3.3607,3.3256,3.2561,3.1252,3.0625,3.022,2.9571,2.9415,2.9478,2.9305,2.9281,2.9273,2.9092,2.9029,2.9052,2.9045,2.9021,2.9021,2.9021,2.8982,2.8959,2.885,2.8803,2.8927,2.9401,2.943,2.9406,2.9406,2.9283,2.8999,2.8466,2.8284,2.8137,2.8014,2.7974,2.787,2.774,2.7108,2.6649,2.6463,2.6227,2.5985,2.571,2.5698,2.5698,2.5696,2.5449,2.5257,2.514,2.4016,2.3259,2.2853,2.2338,2.2067,3.1709,3.2254,3.273,3.2336,3.2233,3.213,3.1735,3.1632,3.1595,3.1466,0.0,0.0,3.2965,3.4126,0.0,0.0,3.5211,0.0,0.0,0.0,0.0,0.0,0.0,0.0,0.0,0.0,0.0,0.0,0.0,0.0,0.0,3.8452,3.7725,3.7581,3.6777,3.6505,3.6761,3.6055,3.5726,3.5805,3.5386,3.503,3.4693,3.4642,3.4406,0.0,0.0,0.0,3.405,3.4,3.3975,3.3975,3.3899,3.3873,3.3873,3.3797,3.3579,3.329,3.3214,3.2501,3.1486,3.0704,3.0234,2.9892,2.9425,2.9236,2.9167,2.9121,2.9098,2.9177,2.9532,2.9351,2.9193,2.9532,2.9351,2.9098,2.9098,2.9098,2.9075,2.9013,2.899,2.9187,2.9886,2.9972,3.0082,3.0396,3.0103,2.9725,2.9294,2.8879,2.8597,2.8493,2.8468,2.8429,2.8326,2.7904,2.753,2.721,2.703,2.689,2.668,2.6669,2.6669,2.668,2.6476,2.6207,2.5864,2.5116,2.4529,2.4062,2.3631,2.3388,3.1856,3.1924,3.2009,3.1991,3.2059,3.2145,3.2145,3.2145,3.2126,0.0,0.0,0.0,0.0,3.5141,0.0,0.0,0.0,0.0,0.0,0.0,0.0,0.0,0.0,0.0,0.0,0.0,0.0,0.0,0.0,0.0,0.0,3.801,3.7429,3.7218,3.6458,3.6205,3.6495,3.586,3.5605,3.5712,3.4963,3.4667,3.4763,3.4528,3.4406,0.0,0.0,0.0,3.4218,3.4096,3.4048,3.4048,3.3925,3.3876,3.3876,3.3752,3.3314,3.2716,3.2473,3.163,3.0603,3.0445,3.0012,2.9525,2.9518,2.9412,2.9337,2.9333,2.9295,2.943,3.0148,2.9896,2.954,3.0093,2.9722,2.924,2.913,2.9098,2.9098,2.9098,2.9098,2.9367,3.0196,3.0362,3.0543,3.1103,3.0717,3.0235,2.9886,2.932,2.8912,2.8865,2.8842,2.8842,2.8842,2.8755,2.8398,2.774,2.764,2.7489,2.7236,2.7251,2.7251,2.7251,2.7291,2.7034,2.651,2.6283,2.586,2.532,2.5111,2.498,3.2055,3.2506,3.2939,3.2769,3.3231,3.3751,3.3751,3.3751,3.3751,0.0,0.0,0.0,0.0,3.5974,0.0,0.0,0.0,0.0,0.0,0.0,0.0,0.0,0.0,0.0,0.0,0.0,0.0,0.0,0.0,0.0,0.0,3.774,3.724,3.7194,3.636,3.5953,3.6027,3.5475,3.5214,3.5275,3.5158,3.5108,3.5091,3.4343,3.3997,0.0,0.0,3.297,3.297,3.2947,3.2947,3.2947,3.2925,3.2925,3.2925,3.2902,3.2728,3.2456,3.1736,3.1355,3.1038,3.0166,2.9824,2.9716,2.9547,2.9496,2.9601,3.0208,3.0227,3.018,3.0875,3.0946,3.0765,3.0315,3.0109,2.9848,2.9225,2.9098,2.9098,2.9098,2.9098,2.9509,3.0803,3.1065,3.1072,3.1167,3.1103,3.0598,2.9391,2.9138,2.9075,2.9068,2.9045,2.9045,2.9045,2.9045,2.8936,2.8716,2.8326,2.8008,2.779,2.7944,2.8024,2.8024,2.8137,2.8091,2.7896,2.7197,2.6681,2.6353,2.5711,2.5411,3.2108,3.263,3.3271,3.363,3.3992,3.4252,3.4252,3.4252,3.4272,0.0,0.0,0.0,0.0,0.0,0.0,0.0,0.0,0.0,0.0,0.0,0.0,0.0,0.0,0.0,0.0,0.0,0.0,0.0,0.0,0.0,0.0,0.0,3.6917,3.6818,3.6017,3.5583,3.5583,3.4929,3.4776,3.5101,3.5018,3.4798,3.4435,3.3934,3.3734,3.3669,0.0,3.3086,3.3026,3.2994,3.2972,3.2972,3.2972,3.2972,3.29,3.2424,3.2187,3.194,3.116,3.0869,3.0782,3.0314,3.0135,3.0108,2.9995,2.988,2.9893,3.0573,3.0597,3.0569,3.1253,3.1093,3.0696,3.0394,2.9943,2.9627,2.969,2.9367,2.9225,2.9627,2.9367,2.943,3.048,3.0654,3.078,3.1135,3.0891,3.0433,2.9785,2.9351,2.9098,2.9098,2.9098,2.9098,2.9098,2.9098,2.9052,2.8904,2.8653,2.8477,2.8374,2.8477,2.8517,2.8517,2.8565,2.8604,2.8517,2.8097,2.7808,2.7658,2.7248,2.7063,3.2232,3.2773,3.3523,3.4347,3.4603,3.47,3.4892,3.4927,3.4946,3.4965,0.0,0.0,0.0,0.0,0.0,0.0,0.0,0.0,0.0,0.0,0.0,0.0,0.0,0.0,0.0,0.0,0.0,0.0,0.0,0.0,0.0,0.0,3.6185,3.6087,3.5476,3.5164,3.5164,3.4608,3.4508,3.4874,3.4754,3.4428,3.3942,3.3616,3.345,3.3386,3.3196,3.3029,3.2947,3.2882,3.2878,3.2878,3.2878,3.2878,3.279,3.2083,3.1745,3.1595,3.094,3.0716,3.0675,3.0654,3.0609,3.0526,3.0485,3.0316,3.0293,3.0896,3.0927,3.0921,3.147,3.115,3.0648,3.0465,2.991,2.9586,3.0164,2.9847,2.9602,3.0164,2.9847,2.9618,3.018,3.026,3.045,3.0949,3.0608,3.0212,3.0006,2.95,2.9121,2.9098,2.9098,2.9098,2.9098,2.9098,2.9052,2.8943,2.8905,2.8873,2.8873,2.8873,2.8873,2.8873,2.8873,2.8873,2.8873,2.874,2.8653,2.8668,2.8541,2.8493,3.2573,3.3139,3.3952,3.4765,3.5196,3.5623,3.6354,3.6528,3.6548,3.6614,0.0,0.0,0.0,0.0,0.0,0.0,0.0,0.0,0.0,0.0,0.0,0.0,0.0,0.0,0.0,0.0,0.0,0.0,0.0,0.0,0.0,0.0,0.0,3.4827,3.4775,3.4739,3.4739,3.4687,3.4593,3.4451,3.4432,3.4397,3.4328,3.3524,3.3121,3.3087,3.2265,3.1918,3.1899,3.1899,3.1899,3.1899,3.1899,3.1899,3.1881,3.1682,3.1627,3.1591,3.1464,3.1351,3.1218,3.1103,3.1001,3.0915,3.0733,3.0651,3.0796,3.1378,3.1446,3.1389,3.1558,3.1574,3.1326,3.0663,3.0432,3.0416,3.0551,3.0519,3.0503,3.0551,3.0519,3.0487,3.0479,3.0479,3.0495,3.0543,3.0511,3.0217,2.9464,2.9314,2.9236,2.9098,2.9098,2.9098,2.9098,2.9098,2.9098,2.9075,2.9075,2.9091,2.9091,2.9091,2.9091,2.9091,2.9091,2.9091,2.9091,2.8943,2.8897,2.8897,2.8787,2.8771,3.2804,3.3001,3.3535,3.4816,3.5208,3.5612,3.6804,3.7066,3.7066,3.7105,3.7105,0.0,0.0,0.0,0.0,0.0,0.0,0.0,0.0,0.0,0.0,0.0,0.0,0.0,0.0,0.0,0.0,0.0,0.0,0.0,0.0,0.0,0.0,3.4706,3.4214,3.395,3.395,3.3494,3.2985,3.2424,3.3386,3.3614,3.3141,3.2826,3.2615,3.2508,3.2194,3.2036,3.2,3.2,3.2,3.2,3.2,3.2,3.1965,3.1839,3.1802,3.1784,3.1709,3.1653,3.1615,3.1542,3.1466,3.1351,3.1274,3.1176,3.1109,3.1237,3.1157,3.1094,3.1342,3.1286,3.0969,3.0177,3.0,3.0257,3.1148,3.0695,3.0371,3.1289,3.0725,3.0097,3.008,3.0029,3.0,3.0,2.9932,2.9761,2.9466,2.9412,2.9412,2.9344,2.9344,2.9344,2.9344,2.9344,2.9321,2.9236,2.9144,2.9098,2.9098,2.9098,2.9098,2.9098,2.9167,2.9236,2.9236,2.9259,2.9259,2.9275,2.9245,2.9238,3.3057,3.3237,3.3739,3.505,3.557,3.6073,3.7291,3.7466,3.7391,3.7334,3.7316,3.7278,0.0,0.0,0.0,0.0,0.0,0.0,0.0,0.0,0.0,0.0,0.0,0.0,0.0,0.0,0.0,0.0,0.0,0.0,0.0,0.0,0.0,0.0,3.3441,3.302,3.2774,3.2283,3.1633,3.0861,3.1914,3.2283,3.2019,3.2019,3.2108,3.2267,3.2267,3.2232,3.2196,3.2196,3.2196,3.2196,3.2196,3.2196,3.2179,3.209,3.2073,3.2055,3.2018,3.1964,3.1928,3.1928,3.1856,3.1747,3.171,3.16,3.1468,3.1353,3.1181,3.1083,3.1249,3.1013,3.0613,3.0081,2.9946,3.0249,3.1456,3.1004,3.068,3.1668,3.1071,3.0288,3.006,2.9973,2.9924,2.9924,2.977,2.9637,2.9614,2.9576,2.9576,2.9576,2.9586,2.9563,2.9563,2.9518,2.9473,2.9366,2.9275,2.9206,2.9167,2.9167,2.9167,2.9229,2.9321,2.935,2.935,2.9473,2.9496,2.9496,2.9496,2.9496,3.3393,3.3987,3.48,3.5597,3.6413,3.7194,3.7938,3.7845,3.7558,3.743,3.7336,3.7314,3.7297,0.0,0.0,0.0,0.0,0.0,0.0,0.0,0.0,0.0,0.0,0.0,0.0,0.0,0.0,0.0,0.0,0.0,0.0,0.0,0.0,0.0,3.2371,3.2002,3.1194,3.1177,3.0826,3.0088,3.0088,3.0475,3.1177,3.1177,3.1616,3.2388,3.2388,3.2388,3.2406,3.2406,3.2406,3.2406,3.2406,3.2406,3.2406,3.2406,3.2406,3.2406,3.2406,3.2301,3.2197,3.2197,3.2144,3.2073,3.1948,3.1894,3.1893,3.1819,3.1709,3.156,3.1353,3.0858,3.0438,3.0506,3.0443,3.0636,3.1427,3.1598,3.1598,3.1598,3.1598,3.1366,3.0621,3.0443,3.0401,3.0401,3.0184,2.9973,2.9832,2.981,2.981,2.981,2.9754,2.972,2.972,2.9586,2.9496,2.9496,2.9496,2.9434,2.9305,2.9305,2.935,2.9496,2.9496,2.9496,2.9496,2.9496,2.9496,2.9496,2.9496,2.9496,3.3671,3.427,0.0,3.5879,0.0,0.0,0.0,3.8201,0.0,0.0,3.781,3.7739,3.7613,0.0,0.0,0.0,0.0,0.0,0.0,0.0,0.0,0.0,0.0,0.0,0.0,0.0,0.0,0.0,0.0,0.0,0.0,0.0,0.0,0.0,3.1054,3.0668,3.044,3.044,3.0036,2.9263,2.9263,2.9667,3.044,3.044,3.0843,3.1563,3.1563,3.1879,3.2406,3.2406,3.2406,3.2406,3.2406,3.2406,3.2406,3.2406,3.2406,3.2406,3.2406,3.2371,3.2336,3.2336,3.2336,3.2301,3.2249,3.2196,3.2108,3.209,3.1948,3.1785,3.173,3.1487,3.114,3.0801,3.0777,3.1035,3.1775,3.1623,3.1463,3.2001,3.1681,3.1244,3.1026,3.0818,3.0679,3.0679,3.0447,3.0274,3.0231,3.0258,3.03,3.03,3.0258,3.0253,3.0205,3.0162,3.0017,2.9738,2.9798,2.9726,2.9457,2.9434,2.9473,2.9496,2.9643,2.9716,2.9716,2.9908,2.9989,2.9989,2.9989,2.9989,3.4305,3.4986,0.0,3.6591,3.7433,3.8169,3.8615,0.0,0.0,0.0,0.0,0.0,0.0,0.0,0.0,0.0,0.0,0.0,0.0,0.0,0.0,0.0,0.0,0.0,0.0,0.0,0.0,0.0,0.0,0.0,0.0,0.0,0.0,0.0,3.0334,2.9948,2.9632,2.9632,2.9228,2.8421,2.8421,2.8684,2.9158,2.9492,3.0036,3.0756,3.0756,3.1194,3.1914,3.1914,3.2107,3.2406,3.2406,3.2406,3.2406,3.2406,3.2406,3.2406,3.2406,3.2406,3.2406,3.2406,3.2406,3.2406,3.2406,3.2354,3.2284,3.2284,3.2179,3.209,3.2037,3.193,3.1728,3.1295,3.1235,3.1353,3.1871,3.1711,3.1579,3.202,3.173,3.1423,3.1368,3.1198,3.1064,3.1004,3.0797,3.063,3.0572,3.0634,3.0733,3.0773,3.0733,3.0654,3.0572,3.0526,3.0384,3.0092,3.0151,3.0103,2.9924,2.977,2.9748,2.9858,2.9995,3.0049,3.007,3.0236,3.0316,3.0316,3.0316,3.0316,3.501,3.5866,3.6703,3.7442,3.8288,0.0,3.8954,3.8685,3.8447,3.8337,0.0,0.0,0.0,0.0,0.0,0.0,0.0,0.0,0.0,0.0,0.0,0.0,0.0,0.0,0.0,0.0,0.0,0.0,0.0,0.0,0.0,0.0,0.0,3.0001,2.993,2.956,2.8838,2.8805,2.8436,0.0,2.773,2.773,2.7748,2.8471,2.9228,2.9985,3.0071,3.0475,3.1089,3.1089,3.1528,3.2195,3.2195,3.2195,3.2195,3.2265,3.2283,3.23,3.2371,3.2406,3.2406,3.2406,3.2406,3.2406,3.2406,3.2406,3.2406,3.2406,3.2406,3.2371,3.2249,3.2214,3.2161,3.191,3.1746,3.1673,3.1801,3.1837,3.1837,3.1837,3.1837,3.1783,3.1671,3.1579,3.1466,3.1315,3.1157,3.1015,3.0865,3.0958,3.1075,3.121,3.1131,3.0978,3.0865,3.0797,3.0675,3.0551,3.0568,3.0568,3.0547,3.0231,3.0167,3.0422,3.0422,3.0464,3.0547,3.0568,3.0551,3.0551,3.0551,3.0551,3.4528,3.5683,0.0,0.0,3.818,3.9293,3.9293,3.8718,3.8113,0.0,0.0,0.0,0.0,0.0,0.0,0.0,0.0,0.0,0.0,0.0,0.0,0.0,0.0,0.0,0.0,0.0,0.0,0.0,0.0,0.0,0.0,0.0,0.0,2.9235,2.8687,2.8326,2.819,2.819,2.8116,0.0,2.794,2.794,2.794,2.7953,2.8403,2.9193,2.9843,3.0194,3.0352,3.0352,3.044,3.0598,3.0598,3.0598,3.0668,3.123,3.1458,3.1545,3.2177,3.2406,3.2406,3.2406,3.2406,3.2406,3.2406,3.2406,3.2406,3.2406,3.2406,3.2388,3.2354,3.2354,3.2336,3.2284,3.2126,3.2001,3.2019,3.2054,3.2054,3.2054,3.2054,3.2019,3.2001,3.1838,3.1634,3.1334,3.1349,3.1329,3.1218,3.131,3.1402,3.144,3.1421,3.1346,3.1198,3.1179,3.1098,3.0915,3.0995,3.0995,3.0895,3.0568,3.0464,3.063,3.0679,3.076,3.0895,3.0995,3.1052,3.1052,3.1052,3.1052,3.4909,3.5656,0.0,3.7268,0.0,3.9292,3.8868,3.8426,0.0,0.0,0.0,0.0,0.0,0.0,0.0,0.0,0.0,0.0,0.0,0.0,0.0,0.0,0.0,0.0,0.0,0.0,0.0,0.0,0.0,0.0,0.0,2.8968,2.8514,2.8514,2.8141,2.7957,2.8014,2.8042,2.8056,2.8056,2.8056,2.8042,2.8,2.7853,2.7991,2.8351,2.8772,2.9176,2.9527,2.9527,2.9755,3.0106,3.0106,3.0106,3.0159,3.0527,3.0668,3.0738,3.1159,3.1528,3.1826,3.1826,3.209,3.2406,3.2406,3.2406,3.2406,3.2406,3.2406,3.2406,3.2406,3.2406,3.2406,3.2406,3.2319,3.2232,3.2232,3.2232,3.2232,3.2232,3.2232,3.2214,3.2144,3.2037,3.1874,3.1618,3.1691,3.1744,3.156,3.1634,3.1671,3.1651,3.1632,3.1595,3.1466,3.143,3.1389,3.1249,3.1308,3.1308,3.1249,3.1055,3.0995,3.0998,3.1021,3.1117,3.1249,3.1308,3.1327,3.1327,3.1327,3.1327,3.5112,3.5504,3.6084,3.7567,3.8477,0.0,3.8091,3.7829,0.0,0.0,0.0,0.0,0.0,0.0,0.0,0.0,0.0,0.0,0.0,0.0,0.0,0.0,0.0,0.0,0.0,0.0,0.0,0.0,0.0,0.0,2.9187,2.8436,2.8039,2.8039,2.8039,2.8053,2.8081,2.8136,2.8164,2.8196,2.8164,2.8109,2.8042,2.7989,2.7871,2.7716,2.7716,2.8102,2.8684,2.8684,2.9088,2.9702,2.9702,2.9702,2.9702,2.9843,2.9879,2.9897,3.0037,3.051,3.1001,3.1001,3.1545,3.2195,3.2195,3.2283,3.2406,3.2406,3.2406,3.2406,3.2406,3.2406,3.2406,3.2406,3.2406,3.2406,3.2406,3.2406,3.2406,3.2406,3.2406,3.2354,3.2214,3.2144,3.2073,3.1966,3.2037,3.2037,3.1856,3.1893,3.1912,3.1873,3.1819,3.1764,3.1654,3.1635,3.1615,3.1555,3.1555,3.1555,3.1555,3.1555,3.15,3.1389,3.1353,3.1408,3.1555,3.1555,3.1555,3.1555,3.1555,3.1555,3.3669,0.0,3.61,0.0,3.7319,3.7387,0.0,0.0,0.0,0.0,0.0,0.0,0.0,0.0,0.0,0.0,0.0,0.0,0.0,0.0,0.0,0.0,0.0,0.0,0.0,0.0,0.0,0.0,0.0,0.0,2.8519,2.8313,2.8259,2.8259,2.8259,2.8327,2.8427,2.844,2.8484,2.8536,2.8466,2.8353,2.8168,2.8154,2.806,2.7874,2.7874,2.788,2.7859,2.7859,2.7912,2.8017,2.8017,2.8017,2.8105,2.8807,2.907,2.9158,2.986,3.0176,3.0264,3.0264,3.0756,3.1352,3.1352,3.1844,3.2406,3.2406,3.2406,3.2406,3.2406,3.2406,3.2406,3.2406,3.2406,3.2406,3.2406,3.2406,3.2406,3.2406,3.2406,3.2354,3.2214,3.2197,3.2161,3.209,3.209,3.209,3.2055,3.2073,3.2073,3.2055,3.1948,3.1876,3.1858,3.1819,3.1781,3.1763,3.1763,3.1763,3.1763,3.1763,3.1763,3.1727,3.1617,3.1634,3.1763,3.1763,3.1763,3.1763,3.1763,3.1763,3.33,3.4685,3.6042,0.0,3.6844,3.7058,3.6554,0.0,0.0,0.0,0.0,0.0,0.0,0.0,0.0,0.0,0.0,0.0,0.0,0.0,0.0,0.0,0.0,0.0,0.0,0.0,0.0,0.0,0.0,3.0557,2.9267,2.8804,2.8569,2.8536,2.8556,2.8619,2.8669,2.8706,2.8731,2.8773,2.87,2.8587,2.8406,2.8358,2.8182,2.7975,2.7975,2.79,2.781,2.781,2.7763,2.7701,2.7701,2.7701,2.7736,2.8105,2.8228,2.828,2.8631,2.9053,2.9439,2.9439,2.9948,3.058,3.058,3.1124,3.1721,3.1721,3.2055,3.2406,3.2406,3.2406,3.2406,3.2406,3.2406,3.2406,3.2406,3.2406,3.2406,3.2406,3.2406,3.2371,3.2319,3.2301,3.2301,3.2267,3.2284,3.2232,3.2161,3.2144,3.2144,3.209,3.2055,3.2002,3.2002,3.1983,3.1965,3.1965,3.1965,3.1965,3.1965,3.1965,3.1965,3.1965,3.1801,3.1727,3.18,3.18,3.18,3.18,3.18,3.18,0.0,0.0,3.5419,3.5646,3.6184,3.6476,0.0,0.0,0.0,0.0,0.0,0.0,0.0,0.0,0.0,0.0,0.0,0.0,0.0,0.0,0.0,0.0,0.0,0.0,0.0,0.0,0.0,0.0,0.0,3.1218,3.0094,2.9509,2.9088,2.8797,2.8857,2.8874,2.8904,2.898,2.8991,2.898,2.8929,2.8822,2.8675,2.8549,2.8367,2.8122,2.8071,2.7986,2.7932,2.7932,2.7871,2.7774,2.7774,2.7774,2.7774,2.7774,2.7777,2.7748,2.7748,2.812,2.8596,2.8596,2.9141,2.9808,2.9808,3.0457,3.1194,3.1194,3.1774,3.2406,3.2406,3.2406,3.2406,3.2406,3.2406,3.2406,3.2406,3.2406,3.2406,3.2406,3.2406,3.2406,3.2406,3.2406,3.2406,3.2406,3.2406,3.2354,3.2267,3.2249,3.2232,3.2179,3.2161,3.2126,3.2126,3.2108,3.209,3.209,3.209,3.209,3.209,3.209,3.209,3.209,3.1947,3.1856,3.1819,3.1819,3.1837,3.18,3.18,3.18,0.0,3.355,0.0,3.4656,3.4912,0.0,0.0,0.0,0.0,0.0,0.0,0.0,0.0,0.0,0.0,0.0,0.0,0.0,0.0,0.0,0.0,0.0,0.0,0.0,0.0,0.0,0.0,0.0,0.0,3.2093,3.0452,3.0341,2.9935,2.9101,2.9075,2.9115,2.9177,2.9241,2.9241,2.9177,2.9181,2.9078,2.8893,2.881,2.8675,2.8453,2.8205,2.8056,2.8,2.8,2.8,2.7968,2.7968,2.7968,2.7968,2.7968,2.7943,2.7888,2.7888,2.783,2.7754,2.7754,2.8315,2.8965,2.8965,3.0001,3.1194,3.1194,3.1774,3.2406,3.2406,3.2406,3.2406,3.2406,3.2406,3.2406,3.2406,3.2406,3.2406,3.2406,3.2406,3.2406,3.2406,3.2406,3.2406,3.2406,3.2406,3.2406,3.2388,3.2388,3.2388,3.2371,3.2267,3.2197,3.2197,3.2126,3.209,3.209,3.209,3.209,3.209,3.209,3.209,3.209,3.209,3.2019,3.1894,3.1894,3.1857,3.18,3.18,3.18,0.0,0.0,0.0,3.4018,3.4472,3.4869,0.0,0.0,0.0,0.0,0.0,0.0,0.0,0.0,0.0,0.0,0.0,0.0,0.0,0.0,0.0,0.0,0.0,0.0,0.0,0.0,0.0,0.0,0.0,0.0,3.2165,3.1147,3.0451,3.014,2.9632,2.9373,2.9384,2.9414,2.9414,2.9384,2.9351,2.9275,2.9152,2.9033,2.8905,2.8743,2.8619,2.8414,2.8191,2.8191,2.8164,2.8122,2.8067,2.8071,2.8071,2.8028,2.7986,2.7957,2.7957,2.7925,2.7879,2.7879,2.8091,2.832,2.832,2.9029,2.9964,3.0492,3.12,3.1907,3.235,3.2456,3.2439,3.2405,3.2406,3.2406,3.2406,3.2406,3.2406,3.2406,3.2406,3.2406,3.2406,3.2406,3.2406,3.2406,3.2406,3.2406,3.2406,3.2406,3.2406,3.2406,3.2354,3.2336,3.2336,3.2319,3.2301,3.2301,3.2301,3.2301,3.2353,3.2371,3.237,3.2421,3.2421,3.2284,3.2037,3.2037,3.2019,3.1983,3.1983,3.1983,3.1024,0.0,0.0,0.0,0.0,3.414,0.0,0.0,0.0,0.0,0.0,0.0,0.0,0.0,0.0,0.0,0.0,0.0,0.0,0.0,0.0,0.0,0.0,0.0,0.0,0.0,0.0,0.0,0.0,0.0,3.322,3.2176,3.1345,3.0773,3.0242,2.985,2.9569,2.9569,2.9569,2.9569,2.9511,2.9431,2.9368,2.9254,2.9127,2.9003,2.895,2.8749,2.8427,2.8427,2.8388,2.834,2.8259,2.8232,2.8219,2.8136,2.8099,2.8071,2.8042,2.8025,2.8025,2.8025,2.8056,2.8067,2.8067,2.8575,2.9254,2.9768,3.0692,3.1598,3.2046,3.233,3.249,3.2405,3.2406,3.2423,3.2422,3.2405,3.2406,3.2406,3.2406,3.2423,3.2422,3.244,3.244,3.2456,3.2456,3.2456,3.2456,3.2456,3.2456,3.2456,3.2457,3.244,3.2456,3.2457,3.244,3.2456,3.2456,3.249,3.254,3.2591,3.2607,3.2673,3.2688,3.2606,3.2404,3.2301,3.2214,3.2179,3.2179,3.2179,0.0,0.0,0.0,0.0,0.0,0.0,0.0,0.0,0.0,0.0,0.0,0.0,0.0,0.0,0.0,0.0,0.0,0.0,0.0,0.0,0.0,0.0,0.0,0.0,0.0,0.0,0.0,0.0,0.0,3.4264,3.3494,3.3408,3.2639,3.0987,3.0912,3.0518,2.9739,2.9701,2.9701,2.9701,2.9626,2.9578,2.9502,2.9433,2.9332,2.9209,2.9209,2.9012,2.8718,2.8706,2.8675,2.86,2.8549,2.8505,2.8479,2.8367,2.8259,2.8196,2.8126,2.8112,2.8112,2.8112,2.815,2.8201,2.8201,2.8667,2.9186,2.9221,3.0295,3.1437,3.1491,3.1974,3.2455,3.2387,3.2371,3.2387,3.2455,3.2439,3.2423,3.2423,3.2423,3.2422,3.249,3.2489,3.2523,3.2589,3.2588,3.2588,3.2606,3.2588,3.2588,3.2606,3.254,3.2523,3.2589,3.254,3.2523,3.2606,3.2606,3.2622,3.2605,3.2739,3.2805,3.2823,3.2884,3.2945,3.3006,3.269,3.2456,3.2318,3.2318,3.2318,3.0082,0.0,0.0,0.0,0.0,0.0,0.0,0.0,0.0,0.0,0.0,0.0,0.0,0.0,0.0,0.0,0.0,0.0,0.0,0.0,0.0,0.0,0.0,0.0,0.0,0.0,0.0,0.0,3.4612,3.4489,3.4282,3.3719,3.2912,3.1804,3.1194,3.0781,3.0574,2.9983,2.9701,2.9701,2.9673,2.9636,2.956,2.954,2.9501,2.9433,2.9433,2.9332,2.9195,2.9037,2.8975,2.894,2.8785,2.87,2.8619,2.8492,2.8406,2.8358,2.838,2.8393,2.8406,2.8445,2.8471,2.8497,2.8497,2.8589,2.8811,2.9386,2.9804,3.0297,3.1315,3.1682,3.1778,3.1762,3.1745,3.1762,3.176,3.2168,3.254,3.254,3.254,3.2557,3.2573,3.2573,3.2573,3.2606,3.269,3.2706,3.2622,3.269,3.2706,3.2622,3.2589,3.2573,3.2606,3.2589,3.2623,3.274,3.2739,3.2804,3.2961,3.2993,3.3088,3.3229,3.3286,3.3345,3.336,3.3024,3.2832,3.28,3.277,3.2737,0.0,0.0,0.0,0.0,0.0,0.0,3.2435,3.2539,0.0,0.0,0.0,0.0,0.0,0.0,0.0,0.0,0.0,0.0,0.0,0.0,0.0,0.0,0.0,0.0,0.0,0.0,0.0,3.4612,3.4612,3.4612,3.4612,3.4151,3.3513,3.2668,3.2188,3.1607,3.0912,3.0424,3.0021,2.9701,2.9701,2.9692,2.9636,2.9636,2.9626,2.9579,2.9579,2.956,2.9521,2.937,2.9265,2.9171,2.9014,2.8929,2.8858,2.8682,2.8587,2.8536,2.8569,2.8594,2.865,2.8712,2.8749,2.8761,2.8761,2.87,2.8715,2.9186,2.9683,3.0341,3.1418,3.1912,3.2024,3.1657,3.1835,3.2009,3.1687,3.222,3.2737,3.2622,3.2639,3.269,3.2721,3.2753,3.2804,3.2884,3.2965,3.2997,3.293,3.2981,3.2981,3.29,3.282,3.2786,3.2818,3.2786,3.2836,3.2999,3.3015,3.3091,3.3253,3.3298,3.339,3.352,3.3591,3.3629,3.3657,3.3401,3.3238,3.3208,3.318,3.3135,0.0,0.0,0.0,0.0,0.0,0.0,3.2265,3.1924,3.1895,0.0,0.0,0.0,0.0,0.0,0.0,0.0,0.0,0.0,0.0,0.0,0.0,0.0,0.0,0.0,0.0,3.4612,3.4612,3.4612,3.4612,3.4612,3.4612,3.4612,3.4264,3.3569,3.3446,3.2639,3.1043,3.095,3.0499,2.9701,2.9701,2.9701,2.9701,2.9701,2.9701,2.9701,2.9701,2.9701,2.9701,2.9626,2.9511,2.9332,2.9246,2.9178,2.9089,2.8905,2.8798,2.8731,2.8731,2.8785,2.8846,2.8917,2.8975,2.9028,2.9028,2.8929,2.8822,2.8798,2.9836,3.1055,3.1583,3.2309,3.2706,3.1949,3.2306,3.2641,3.199,3.2471,3.2979,3.2753,3.2787,3.287,3.2948,3.2995,3.3106,3.3292,3.3322,3.3352,3.3408,3.3367,3.3322,3.3322,3.3152,3.3057,3.3117,3.3073,3.3122,3.3322,3.3322,3.3411,3.3534,3.3605,3.3657,3.3739,3.3807,3.3855,3.3934,3.3726,3.3605,3.3534,3.3534,3.3509,0.0,0.0,0.0,0.0,0.0,0.0,3.2502,3.2823,3.3325,0.0,0.0,0.0,0.0,0.0,0.0,0.0,0.0,0.0,0.0,0.0,0.0,0.0,0.0,0.0,0.0,3.4612,3.4612,3.4612,3.4612,3.4612,3.4612,3.4612,3.4526,3.4358,3.3738,3.2912,3.1879,3.1212,3.0499,2.9701,2.9701,2.9701,2.9701,2.9701,2.9701,2.9701,2.9701,2.9701,2.9701,2.9692,2.9626,2.9531,2.9402,2.9318,2.924,2.9163,2.9044,2.894,2.8998,2.9021,2.9044,2.9123,2.9145,2.9156,2.9156,2.9119,2.8998,2.8846,2.9939,3.1129,3.1156,3.1747,3.2307,3.2148,3.222,3.2293,3.2144,3.2759,3.3319,3.3331,3.3259,3.3232,3.3289,3.3319,3.3349,3.3452,3.3509,3.3549,3.3563,3.3549,3.352,3.3466,3.3378,3.3319,3.3334,3.3334,3.3393,3.3534,3.3534,3.3633,3.3802,3.3829,3.3868,3.3934,3.4011,3.4074,3.4136,3.3934,3.3829,3.3815,3.3766,3.3739,0.0,0.0,0.0,3.3542,0.0,0.0,0.0,3.3033,3.3184,3.3701,0.0,0.0,0.0,0.0,0.0,0.0,0.0,0.0,0.0,0.0,0.0,0.0,0.0,0.0,0.0,3.4666,3.4634,3.4594,3.4612,3.4612,3.4612,3.4612,3.4612,3.4612,3.4207,3.3607,3.2762,3.1917,3.1091,3.0302,2.9889,2.9701,2.9701,2.9701,2.9701,2.9701,2.9701,2.9701,2.9701,2.9701,2.9692,2.9636,2.9531,2.9461,2.938,2.9289,2.9211,2.9152,2.9186,2.9197,2.9207,2.9272,2.9294,2.9294,2.9294,2.9251,2.9163,2.9005,3.0113,3.1333,3.1237,3.2092,3.2894,3.2488,3.2707,3.2876,3.2488,3.3022,3.3633,3.3684,3.3661,3.3591,3.3549,3.3577,3.3615,3.3684,3.3726,3.3766,3.3807,3.378,3.3739,3.3698,3.3629,3.3605,3.3605,3.3605,3.3629,3.3739,3.3753,3.3815,3.3998,3.3998,3.4036,3.4099,3.4136,3.4173,3.4197,3.4099,3.4036,3.3998,3.3972,3.3934,0.0,0.0,0.0,0.0,0.0,3.3751,0.0,0.0,0.0,3.3891,0.0,0.0,0.0,0.0,0.0,0.0,0.0,0.0,0.0,0.0,0.0,0.0,0.0,0.0,0.0,3.4747,3.4666,3.4612,3.4612,3.4612,3.4612,3.4612,3.4612,3.4612,3.4612,3.4207,3.3408,3.2536,3.171,3.0893,3.0077,2.9701,2.9701,2.9701,2.9701,2.9701,2.9701,2.9701,2.9701,2.9701,2.9701,2.9683,2.9636,2.9588,2.9521,2.9394,2.9341,2.9315,2.9315,2.9334,2.9334,2.9386,2.9396,2.9396,2.9396,2.9365,2.9339,2.9359,3.0431,3.155,3.1648,3.2744,3.3663,3.3015,3.3364,3.3663,3.3015,3.3382,3.3855,3.3921,3.3934,3.3895,3.378,3.3788,3.3855,3.3934,3.3934,3.3959,3.4036,3.3985,3.3934,3.3934,3.3868,3.3829,3.3829,3.3829,3.3855,3.3934,3.3934,3.3998,3.4111,3.4124,3.4148,3.4197,3.4197,3.4197,3.4197,3.4197,3.4173,3.4124,3.4124,3.4086,0.0,0.0,0.0,0.0,3.4622,0.0,0.0,0.0,3.469,3.4905,0.0,0.0,0.0,0.0,0.0,0.0,0.0,0.0,0.0,0.0,0.0,0.0,0.0,0.0,0.0,0.0,3.4666,3.4612,3.4612,3.4612,3.4612,3.4612,3.4612,3.4612,3.4612,3.4207,3.3408,3.2536,3.171,3.0893,3.0077,2.9701,2.9701,2.9701,2.9701,2.9701,2.9701,2.9701,2.9701,2.9701,2.9701,2.9701,2.9701,2.9645,2.9588,2.9578,2.9491,2.9382,2.9382,2.938,2.9396,2.9396,2.9396,2.9396,2.9396,2.9396,2.9524,3.0154,3.0983,3.1823,3.2484,3.3308,3.3954,3.3874,3.3899,3.3954,3.3874,3.3899,3.3998,3.4061,3.4074,3.4049,3.3985,3.3972,3.3998,3.4074,3.4074,3.4099,3.4173,3.4124,3.4074,3.4074,3.4023,3.3972,3.3972,3.3972,3.4011,3.4074,3.4074,3.4111,3.4185,3.4185,3.4197,3.4197,3.4197,3.4197,3.4197,3.4197,3.4197,3.4185,3.4185,3.4185,0.0,0.0,0.0,0.0,0.0,0.0,0.0,0.0,3.4868,0.0,0.0,0.0,0.0,0.0,0.0,0.0,0.0,0.0,0.0,0.0,0.0,0.0,0.0,0.0,0.0,0.0,0.0,0.0,3.4612,3.4612,3.4612,3.4612,3.4612,3.4612,3.4612,3.4433,3.4095,3.3269,3.2443,3.1598,3.079,3.0152,2.9701,2.9701,2.9701,2.9701,2.9701,2.9701,2.9701,2.9701,2.9701,2.9701,2.9701,2.9673,2.9645,2.9607,2.954,2.9453,2.9412,2.9401,2.9396,2.9396,2.9396,2.9396,2.9396,2.9731,3.0158,3.046,3.147,3.2528,3.2845,3.3512,3.4124,3.4124,3.4124,3.4124,3.4124,3.4124,3.4124,3.4161,3.4161,3.4148,3.4124,3.4124,3.4124,3.4161,3.4161,3.4173,3.4197,3.4173,3.4161,3.4161,3.4136,3.4124,3.4124,3.4124,3.4124,3.4161,3.4161,3.4173,3.4197,3.4197,3.4197,3.4197,3.4197,3.4197,3.4197,3.4197,3.4197,3.4197,3.4197,3.4197,3.2386,0.0,0.0,0.0,0.0,0.0,0.0,0.0,0.0,0.0,0.0,0.0,0.0,0.0,0.0,0.0,0.0,0.0,0.0,0.0,0.0,0.0,0.0,0.0,0.0,0.0,0.0,3.4634,3.4612,3.4612,3.4612,3.4612,3.4612,3.4612,3.4612,3.4612,3.4612,3.3794,3.3081,3.2443,3.1607,3.0809,3.0021,3.0021,2.9908,2.9701,2.9701,2.9701,2.9701,2.9701,2.9701,2.9701,2.9701,2.9701,2.9683,2.9655,2.9579,2.9531,2.9453,2.9411,2.9396,2.9396,2.9396,2.9396,2.9396,2.9805,3.0326,3.053,3.144,3.2444,3.289,3.3429,3.3918,3.4141,3.4197,3.4197,3.4197,3.4197,3.4197,3.4197,3.4197,3.4197,3.4197,3.4197,3.4197,3.4197,3.4197,3.4197,3.4197,3.4197,3.4197,3.4197,3.4197,3.4197,3.4197,3.4197,3.4197,3.4197,3.4197,3.4197,3.4197,3.4197,3.4197,3.4197,3.4197,3.4197,3.4197,3.4197,3.4197,3.4197,3.4197,3.4197,0.0,0.0,0.0,3.4612,0.0,0.0,0.0,0.0,3.4829,0.0,0.0,0.0,0.0,0.0,0.0,3.4262,0.0,0.0,0.0,0.0,0.0,0.0,0.0,0.0,0.0,0.0,0.0,3.4697,3.4634,3.4612,3.4612,3.4612,3.4612,3.4612,3.4612,3.4612,3.4612,3.3794,3.339,3.3352,3.248,3.1635,3.0856,3.0856,3.0452,2.9701,2.9701,2.9701,2.9701,2.9701,2.9701,2.9701,2.9701,2.9701,2.9701,2.9701,2.9645,2.9588,2.9531,2.9451,2.9396,2.9396,2.9396,2.9396,2.9396,2.9415,2.9601,3.0381,3.0641,3.1032,3.2611,3.3008,3.3231,3.4011,3.4197,3.4197,3.4197,3.4197,3.4197,3.4197,3.4197,3.4197,3.4197,3.4197,3.4197,3.4197,3.4197,3.4197,3.4197,3.4197,3.4197,3.4197,3.4197,3.4197,3.4197,3.4197,3.4197,3.4197,3.4197,3.4197,3.4197,3.4197,3.4197,3.4197,3.4197,3.4197,3.4197,3.4197,3.4197,3.4197,3.4197,3.4197,0.0,0.0,3.4612,3.4612,0.0,0.0,0.0,0.0,0.0,0.0,0.0,0.0,0.0,0.0,0.0,3.5085,0.0,0.0,0.0,0.0,0.0,0.0,0.0,0.0,0.0,0.0,0.0,3.4716,3.4645,3.4612,3.4612,3.4612,3.4612,3.4612,3.4612,3.4612,3.4612,3.432,3.3926,3.339,3.31,3.2518,3.1692,3.1137,3.0743,3.0462,2.9927,3.0002,3.048,3.048,3.048,3.048,3.048,3.0171,2.9701,2.9701,2.9673,2.9588,2.9463,2.9411,2.9396,2.9396,2.9396,2.9396,2.9396,2.9768,3.0251,3.0511,3.0976,3.1515,3.2072,3.2611,3.3076,3.3336,3.3807,3.4197,3.4197,3.4197,3.4197,3.4197,3.4197,3.4197,3.4197,3.4197,3.4197,3.4197,3.4197,3.4197,3.4197,3.4197,3.4197,3.4197,3.4197,3.4197,3.4197,3.4197,3.4197,3.4197,3.4197,3.4197,3.4197,3.4197,3.4197,3.4197,3.4197,3.4197,3.4197,3.4197,3.4197,3.4197,3.4197,3.4197,3.3502,3.4207,0.0,3.4612,3.4612,0.0,3.4612,0.0,0.0,0.0,0.0,0.0,0.0,0.0,0.0,3.5439,0.0,0.0,0.0,3.5379,0.0,0.0,0.0,0.0,0.0,0.0,3.4778,3.4747,3.4655,3.4612,0.0,0.0,3.4612,3.4612,3.4612,3.4612,3.4612,3.4612,3.4339,3.3832,3.3832,3.3381,3.2536,3.2019,3.1625,3.1287,3.0772,3.0847,3.1325,3.1325,3.1325,3.1325,3.1325,3.0847,3.0096,2.9814,2.9842,3.0,2.9892,3.0046,3.0283,3.0262,3.0251,3.0196,2.9898,3.0196,3.053,3.0251,3.0549,3.1013,3.1292,3.1979,3.2648,3.2915,3.3615,3.4197,3.4197,3.4197,3.4197,3.4197,3.4197,3.4197,3.4197,3.4197,3.4197,3.4197,3.4197,3.4197,3.4197,3.4197,3.4197,3.4197,3.4197,3.4197,3.4197,3.4197,3.4197,3.4197,3.4197,3.4197,3.4197,3.4197,3.4197,3.4197,3.4197,3.4197,3.4197,3.4197,3.4197,3.4197,3.4197,3.4197]}]]